| time (UTC) | temp C | wind direction | speed KPH | gust KPH | rain 1hr cm | rain 24hr cm | rain mn cm | humidity % | barometer mb |
| 20260831132701 | 23 | 267 | 17.7 | 32.2 | 0.00 | 0.36 | 0.36 | 48 | 1015.8 |
| 20260831132602 | 23 | 265 | 17.7 | 32.2 | 0.00 | 0.36 | 0.36 | 47 | 1015.8 |
| 20260831132501 | 23 | 262 | 17.7 | 32.2 | 0.00 | 0.36 | 0.36 | 48 | 1016.0 |
| 20260831132401 | 23 | 239 | 19.3 | 32.2 | 0.00 | 0.36 | 0.36 | 47 | 1016.0 |
| 20260831132301 | 23 | 250 | 19.3 | 32.2 | 0.00 | 0.36 | 0.36 | 47 | 1016.0 |
| 20260831132201 | 23 | 208 | 19.3 | 32.2 | 0.00 | 0.36 | 0.36 | 46 | 1015.8 |
| 20260831132101 | 23 | 281 | 19.3 | 32.2 | 0.00 | 0.36 | 0.36 | 46 | 1016.0 |
| 20260831132000 | 23 | 246 | 19.3 | 32.2 | 0.00 | 0.36 | 0.36 | 46 | 1016.0 |
| 20260831131900 | 23 | 284 | 19.3 | 30.6 | 0.00 | 0.36 | 0.36 | 45 | 1016.0 |
| 20260831131800 | 23 | 292 | 17.7 | 30.6 | 0.00 | 0.36 | 0.36 | 46 | 1016.1 |
| 20260831131700 | 23 | 243 | 17.7 | 29.0 | 0.00 | 0.36 | 0.36 | 46 | 1016.0 |
| 20260831131600 | 23 | 269 | 17.7 | 29.0 | 0.00 | 0.36 | 0.36 | 46 | 1015.8 |
| 20260831131501 | 23 | 236 | 17.7 | 29.0 | 0.00 | 0.36 | 0.36 | 45 | 1016.0 |
| 20260831131401 | 23 | 271 | 17.7 | 29.0 | 0.00 | 0.36 | 0.36 | 45 | 1016.0 |
| 20260831131301 | 23 | 268 | 16.1 | 29.0 | 0.00 | 0.36 | 0.36 | 47 | 1016.0 |
| 20260831131201 | 23 | 260 | 16.1 | 29.0 | 0.00 | 0.36 | 0.36 | 46 | 1016.0 |
| 20260831131101 | 23 | 221 | 16.1 | 25.7 | 0.00 | 0.36 | 0.36 | 47 | 1015.8 |
| 20260831131019 | 23 | 231 | 16.1 | 32.2 | 0.00 | 0.36 | 0.36 | 47 | 1016.0 |
| 20260831131015 | 23 | 236 | 17.7 | 32.2 | 0.00 | 0.36 | 0.36 | 46 | 1016.0 |
| 20260831131011 | 23 | 242 | 17.7 | 32.2 | 0.00 | 0.36 | 0.36 | 46 | 1016.0 |
| 20260831130702 | 23 | 254 | 17.7 | 32.2 | 0.00 | 0.36 | 0.36 | 45 | 1016.0 |
| 20260831130601 | 23 | 286 | 17.7 | 32.2 | 0.00 | 0.36 | 0.36 | 46 | 1016.1 |
| 20260831130501 | 23 | 283 | 17.7 | 32.2 | 0.00 | 0.36 | 0.36 | 46 | 1016.0 |
| 20260831130401 | 23 | 265 | 17.7 | 32.2 | 0.00 | 0.36 | 0.36 | 45 | 1015.8 |
| 20260831130301 | 23 | 253 | 17.7 | 32.2 | 0.00 | 0.36 | 0.36 | 45 | 1016.0 |
| 20260831130231 | 23 | 267 | 17.7 | 32.2 | 0.00 | 0.36 | 0.36 | 46 | 1016.0 |
| 20260831130101 | 23 | 254 | 16.1 | 32.2 | 0.00 | 0.36 | 0.36 | 46 | 1016.1 |
| 20260831130021 | 23 | 270 | 16.1 | 32.2 | 0.00 | 0.36 | 0.36 | 46 | 1016.0 |
| 20260831130017 | 23 | 267 | 16.1 | 32.2 | 0.00 | 0.36 | 0.36 | 45 | 1016.1 |
| 20260831130013 | 23 | 257 | 14.5 | 32.2 | 0.00 | 0.36 | 0.36 | 46 | 1015.8 |
| 20260831125701 | 23 | 255 | 14.5 | 32.2 | 0.00 | 0.36 | 0.36 | 48 | 1016.0 |
| 20260831125601 | 23 | 261 | 14.5 | 32.2 | 0.00 | 0.36 | 0.36 | 46 | 1016.0 |
| 20260831125501 | 23 | 257 | 12.9 | 32.2 | 0.00 | 0.36 | 0.36 | 48 | 1016.0 |
| 20260831125400 | 23 | 267 | 14.5 | 24.1 | 0.00 | 0.36 | 0.36 | 49 | 1016.0 |
| 20260831125301 | 23 | 269 | 12.9 | 24.1 | 0.00 | 0.36 | 0.36 | 48 | 1016.0 |
| 20260831125200 | 23 | 316 | 14.5 | 24.1 | 0.00 | 0.36 | 0.36 | 48 | 1015.8 |
| 20260831125102 | 23 | 279 | 14.5 | 32.2 | 0.00 | 0.36 | 0.36 | 49 | 1016.0 |
| 20260831125001 | 23 | 265 | 14.5 | 32.2 | 0.00 | 0.36 | 0.36 | 48 | 1016.0 |
| 20260831124901 | 23 | 276 | 14.5 | 32.2 | 0.00 | 0.36 | 0.36 | 49 | 1016.0 |
| 20260831124800 | 23 | 219 | 14.5 | 32.2 | 0.00 | 0.36 | 0.36 | 49 | 1016.1 |
| 20260831124701 | 23 | 291 | 16.1 | 32.2 | 0.00 | 0.36 | 0.36 | 49 | 1016.0 |
| 20260831124601 | 23 | 239 | 16.1 | 32.2 | 0.00 | 0.36 | 0.36 | 48 | 1016.0 |
| 20260831124501 | 23 | 213 | 16.1 | 32.2 | 0.00 | 0.36 | 0.36 | 49 | 1016.0 |
| 20260831124401 | 23 | 254 | 16.1 | 32.2 | 0.00 | 0.36 | 0.36 | 49 | 1016.0 |
| 20260831124301 | 23 | 236 | 16.1 | 32.2 | 0.00 | 0.36 | 0.36 | 49 | 1016.0 |
| 20260831124202 | 23 | 271 | 16.1 | 32.2 | 0.00 | 0.36 | 0.36 | 50 | 1016.1 |
| 20260831124103 | 23 | 300 | 16.1 | 27.4 | 0.00 | 0.36 | 0.36 | 51 | 1016.0 |
| 20260831124001 | 23 | 240 | 16.1 | 27.4 | 0.00 | 0.36 | 0.36 | 51 | 1016.1 |
| 20260831123901 | 23 | 266 | 16.1 | 27.4 | 0.00 | 0.36 | 0.36 | 50 | 1016.0 |
| 20260831123801 | 23 | 260 | 16.1 | 27.4 | 0.00 | 0.36 | 0.36 | 48 | 1016.0 |
| 20260831123701 | 23 | 271 | 14.5 | 27.4 | 0.00 | 0.36 | 0.36 | 50 | 1016.1 |
| 20260831123601 | 23 | 214 | 14.5 | 27.4 | 0.00 | 0.36 | 0.36 | 51 | 1016.0 |
| 20260831123501 | 23 | 221 | 14.5 | 27.4 | 0.00 | 0.36 | 0.36 | 52 | 1016.0 |
| 20260831123401 | 23 | 241 | 14.5 | 35.4 | 0.00 | 0.36 | 0.36 | 50 | 1016.0 |
| 20260831123301 | 23 | 279 | 14.5 | 35.4 | 0.00 | 0.36 | 0.36 | 50 | 1016.0 |
| 20260831123201 | 23 | 231 | 14.5 | 35.4 | 0.00 | 0.36 | 0.36 | 51 | 1016.0 |
| 20260831123101 | 23 | 278 | 12.9 | 35.4 | 0.00 | 0.36 | 0.36 | 51 | 1016.1 |
| 20260831123001 | 23 | 218 | 14.5 | 35.4 | 0.00 | 0.36 | 0.36 | 53 | 1016.1 |
| 20260831122900 | 23 | 244 | 14.5 | 35.4 | 0.00 | 0.36 | 0.36 | 54 | 1016.0 |
| 20260831122802 | 23 | 293 | 14.5 | 35.4 | 0.00 | 0.36 | 0.36 | 52 | 1016.0 |
| 20260831122701 | 23 | 306 | 16.1 | 35.4 | 0.00 | 0.36 | 0.36 | 52 | 1016.1 |
| 20260831122601 | 23 | 232 | 16.1 | 35.4 | 0.00 | 0.36 | 0.36 | 52 | 1016.0 |
| 20260831122501 | 23 | 295 | 16.1 | 35.4 | 0.00 | 0.36 | 0.36 | 53 | 1016.0 |
| 20260831122401 | 23 | 213 | 17.7 | 35.4 | 0.00 | 0.36 | 0.36 | 53 | 1016.0 |
| 20260831122301 | 23 | 227 | 17.7 | 35.4 | 0.00 | 0.36 | 0.36 | 53 | 1016.0 |
| 20260831122201 | 23 | 252 | 17.7 | 35.4 | 0.00 | 0.36 | 0.36 | 52 | 1016.1 |
| 20260831122100 | 23 | 233 | 17.7 | 35.4 | 0.00 | 0.36 | 0.36 | 51 | 1016.1 |
| 20260831122000 | 23 | 212 | 17.7 | 35.4 | 0.00 | 0.36 | 0.36 | 52 | 1016.2 |
| 20260831121900 | 23 | 252 | 17.7 | 35.4 | 0.00 | 0.36 | 0.36 | 51 | 1016.1 |
| 20260831121800 | 23 | 246 | 17.7 | 35.4 | 0.00 | 0.36 | 0.36 | 51 | 1016.1 |
| 20260831121700 | 23 | 233 | 17.7 | 35.4 | 0.00 | 0.36 | 0.36 | 50 | 1016.1 |
| 20260831121600 | 23 | 242 | 17.7 | 35.4 | 0.00 | 0.36 | 0.36 | 50 | 1016.3 |
| 20260831121501 | 23 | 210 | 17.7 | 35.4 | 0.00 | 0.36 | 0.36 | 50 | 1016.2 |
| 20260831121401 | 23 | 248 | 17.7 | 33.8 | 0.00 | 0.36 | 0.36 | 49 | 1016.2 |
| 20260831121302 | 23 | 271 | 17.7 | 33.8 | 0.00 | 0.36 | 0.36 | 50 | 1016.2 |
| 20260831121201 | 23 | 263 | 17.7 | 33.8 | 0.00 | 0.36 | 0.36 | 51 | 1016.0 |
| 20260831121101 | 23 | 292 | 17.7 | 33.8 | 0.00 | 0.36 | 0.36 | 50 | 1016.1 |
| 20260831121002 | 23 | 269 | 17.7 | 33.8 | 0.00 | 0.36 | 0.36 | 51 | 1016.1 |
| 20260831120901 | 23 | 252 | 17.7 | 35.4 | 0.00 | 0.36 | 0.36 | 52 | 1016.1 |
| 20260831120801 | 23 | 242 | 19.3 | 35.4 | 0.00 | 0.36 | 0.36 | 52 | 1016.0 |
| 20260831120701 | 23 | 178 | 19.3 | 35.4 | 0.00 | 0.36 | 0.36 | 52 | 1016.0 |
| 20260831120601 | 23 | 279 | 19.3 | 35.4 | 0.00 | 0.36 | 0.36 | 52 | 1016.2 |
| 20260831120501 | 23 | 263 | 19.3 | 35.4 | 0.00 | 0.36 | 0.36 | 53 | 1016.1 |
| 20260831120401 | 22 | 268 | 19.3 | 35.4 | 0.00 | 0.36 | 0.36 | 52 | 1016.1 |
| 20260831120301 | 22 | 265 | 17.7 | 35.4 | 0.00 | 0.36 | 0.36 | 53 | 1016.1 |
| 20260831120201 | 22 | 240 | 17.7 | 35.4 | 0.00 | 0.36 | 0.36 | 51 | 1016.1 |
| 20260831120100 | 22 | 242 | 17.7 | 35.4 | 0.00 | 0.36 | 0.36 | 50 | 1016.1 |
| 20260831120000 | 22 | 261 | 16.1 | 35.4 | 0.00 | 0.36 | 0.36 | 52 | 1016.2 |
| 20260831115900 | 22 | 279 | 16.1 | 29.0 | 0.00 | 0.36 | 0.36 | 51 | 1016.2 |
| 20260831115801 | 22 | 209 | 16.1 | 29.0 | 0.00 | 0.36 | 0.36 | 55 | 1016.3 |
| 20260831115700 | 22 | 279 | 16.1 | 29.0 | 0.00 | 0.36 | 0.36 | 55 | 1016.2 |
| 20260831115601 | 22 | 208 | 16.1 | 29.0 | 0.00 | 0.36 | 0.36 | 54 | 1016.2 |
| 20260831115501 | 22 | 254 | 16.1 | 29.0 | 0.00 | 0.36 | 0.36 | 54 | 1016.2 |
| 20260831115401 | 22 | 225 | 16.1 | 29.0 | 0.00 | 0.36 | 0.36 | 54 | 1016.2 |
| 20260831115301 | 22 | 229 | 16.1 | 29.0 | 0.00 | 0.36 | 0.36 | 56 | 1016.2 |
| 20260831115201 | 22 | 238 | 16.1 | 29.0 | 0.00 | 0.36 | 0.36 | 55 | 1016.2 |
| 20260831115101 | 22 | 277 | 16.1 | 29.0 | 0.00 | 0.36 | 0.36 | 54 | 1016.2 |
| 20260831115001 | 22 | 226 | 16.1 | 29.0 | 0.00 | 0.36 | 0.36 | 55 | 1016.2 |
| 20260831114901 | 22 | 228 | 16.1 | 29.0 | 0.00 | 0.36 | 0.36 | 53 | 1016.3 |
| 20260831114800 | 22 | 277 | 16.1 | 29.0 | 0.00 | 0.36 | 0.36 | 53 | 1016.3 |
| 20260831114700 | 22 | 269 | 14.5 | 29.0 | 0.00 | 0.36 | 0.36 | 55 | 1016.4 |
| 20260831114600 | 22 | 287 | 14.5 | 27.4 | 0.00 | 0.36 | 0.36 | 54 | 1016.3 |
| 20260831114522 | 22 | 277 | 14.5 | 27.4 | 0.00 | 0.36 | 0.36 | 56 | 1016.3 |
| 20260831114518 | 22 | 268 | 14.5 | 24.1 | 0.00 | 0.36 | 0.36 | 56 | 1016.3 |
| 20260831114514 | 22 | 283 | 14.5 | 24.1 | 0.00 | 0.36 | 0.36 | 58 | 1016.3 |
| 20260831114202 | 22 | 255 | 14.5 | 24.1 | 0.00 | 0.36 | 0.36 | 57 | 1016.3 |
| 20260831114101 | 22 | 292 | 14.5 | 30.6 | 0.00 | 0.36 | 0.36 | 57 | 1016.3 |
| 20260831114001 | 22 | 290 | 16.1 | 30.6 | 0.00 | 0.36 | 0.36 | 59 | 1016.3 |
| 20260831113901 | 22 | 296 | 16.1 | 30.6 | 0.00 | 0.36 | 0.36 | 58 | 1016.3 |
| 20260831113801 | 22 | 288 | 16.1 | 30.6 | 0.00 | 0.36 | 0.36 | 57 | 1016.3 |
| 20260831113701 | 22 | 257 | 17.7 | 30.6 | 0.00 | 0.36 | 0.36 | 58 | 1016.4 |
| 20260831113601 | 22 | 235 | 17.7 | 37.0 | 0.00 | 0.36 | 0.36 | 57 | 1016.4 |
| 20260831113501 | 22 | 235 | 19.3 | 37.0 | 0.00 | 0.36 | 0.36 | 57 | 1016.4 |
| 20260831113401 | 22 | 242 | 19.3 | 37.0 | 0.00 | 0.36 | 0.36 | 58 | 1016.4 |
| 20260831113301 | 22 | 252 | 19.3 | 37.0 | 0.00 | 0.36 | 0.36 | 57 | 1016.4 |
| 20260831113205 | 22 | 238 | 20.9 | 37.0 | 0.00 | 0.36 | 0.36 | 59 | 1016.5 |
| 20260831113101 | 22 | 231 | 20.9 | 37.0 | 0.00 | 0.36 | 0.36 | 58 | 1016.4 |
| 20260831113001 | 22 | 275 | 20.9 | 37.0 | 0.00 | 0.36 | 0.36 | 57 | 1016.4 |
| 20260831112901 | 22 | 250 | 20.9 | 37.0 | 0.00 | 0.36 | 0.36 | 57 | 1016.4 |
| 20260831112800 | 22 | 269 | 19.3 | 37.0 | 0.00 | 0.36 | 0.36 | 55 | 1016.4 |
| 20260831112703 | 22 | 278 | 19.3 | 37.0 | 0.00 | 0.36 | 0.36 | 55 | 1016.4 |
| 20260831112601 | 22 | 285 | 17.7 | 35.4 | 0.00 | 0.36 | 0.36 | 57 | 1016.4 |
| 20260831112500 | 22 | 265 | 17.7 | 35.4 | 0.00 | 0.36 | 0.36 | 56 | 1016.4 |
| 20260831112400 | 22 | 225 | 17.7 | 35.4 | 0.00 | 0.36 | 0.36 | 56 | 1016.4 |
| 20260831112300 | 22 | 252 | 16.1 | 35.4 | 0.00 | 0.36 | 0.36 | 57 | 1016.5 |
| 20260831112201 | 22 | 246 | 16.1 | 35.4 | 0.00 | 0.36 | 0.36 | 60 | 1016.4 |
| 20260831112100 | 22 | 207 | 14.5 | 32.2 | 0.00 | 0.36 | 0.36 | 59 | 1016.4 |
| 20260831112000 | 22 | 253 | 14.5 | 32.2 | 0.00 | 0.36 | 0.36 | 60 | 1016.3 |
| 20260831111900 | 22 | 248 | 16.1 | 32.2 | 0.00 | 0.36 | 0.36 | 60 | 1016.4 |
| 20260831111801 | 22 | 236 | 16.1 | 32.2 | 0.00 | 0.36 | 0.36 | 60 | 1016.3 |
| 20260831111701 | 22 | 244 | 14.5 | 32.2 | 0.00 | 0.36 | 0.36 | 59 | 1016.3 |
| 20260831111600 | 22 | 262 | 14.5 | 32.2 | 0.00 | 0.36 | 0.36 | 60 | 1016.4 |
| 20260831111501 | 22 | 257 | 14.5 | 32.2 | 0.00 | 0.36 | 0.36 | 59 | 1016.4 |
| 20260831111401 | 22 | 222 | 14.5 | 29.0 | 0.00 | 0.36 | 0.36 | 62 | 1016.4 |
| 20260831111302 | 22 | 292 | 14.5 | 29.0 | 0.00 | 0.36 | 0.36 | 62 | 1016.4 |
| 20260831111201 | 22 | 229 | 14.5 | 29.0 | 0.00 | 0.36 | 0.36 | 62 | 1016.3 |
| 20260831111101 | 22 | 200 | 14.5 | 29.0 | 0.00 | 0.36 | 0.36 | 62 | 1016.4 |
| 20260831111001 | 22 | 219 | 14.5 | 29.0 | 0.00 | 0.36 | 0.36 | 63 | 1016.4 |
| 20260831110901 | 22 | 279 | 12.9 | 29.0 | 0.00 | 0.36 | 0.36 | 65 | 1016.4 |
| 20260831110801 | 22 | 238 | 12.9 | 24.1 | 0.00 | 0.36 | 0.36 | 64 | 1016.4 |
| 20260831110701 | 22 | 278 | 12.9 | 24.1 | 0.00 | 0.36 | 0.36 | 63 | 1016.3 |
| 20260831110601 | 22 | 248 | 12.9 | 24.1 | 0.00 | 0.36 | 0.36 | 65 | 1016.4 |
| 20260831110501 | 22 | 255 | 12.9 | 24.1 | 0.00 | 0.36 | 0.36 | 65 | 1016.4 |
| 20260831110401 | 22 | 260 | 12.9 | 27.4 | 0.00 | 0.36 | 0.36 | 64 | 1016.3 |
| 20260831110301 | 22 | 252 | 12.9 | 27.4 | 0.00 | 0.36 | 0.36 | 63 | 1016.3 |
| 20260831110253 | 22 | 205 | 12.9 | 27.4 | 0.00 | 0.36 | 0.36 | 65 | 1016.3 |
| 20260831110245 | 22 | 213 | 12.9 | 27.4 | 0.00 | 0.36 | 0.36 | 64 | 1016.4 |
| 20260831110238 | 22 | 247 | 12.9 | 27.4 | 0.00 | 0.36 | 0.36 | 64 | 1016.3 |
| 20260831110020 | 22 | 232 | 12.9 | 27.4 | 0.00 | 0.36 | 0.36 | 65 | 1016.4 |
| 20260831110016 | 22 | 215 | 12.9 | 27.4 | 0.00 | 0.36 | 0.36 | 64 | 1016.3 |
| 20260831110012 | 22 | 205 | 12.9 | 27.4 | 0.00 | 0.36 | 0.36 | 65 | 1016.3 |
| 20260831105701 | 22 | 309 | 14.5 | 27.4 | 0.00 | 0.36 | 0.36 | 65 | 1016.3 |
| 20260831105600 | 22 | 242 | 14.5 | 27.4 | 0.00 | 0.36 | 0.36 | 65 | 1016.4 |
| 20260831105519 | 22 | 263 | 14.5 | 27.4 | 0.00 | 0.36 | 0.36 | 65 | 1016.3 |
| 20260831105515 | 22 | 234 | 14.5 | 24.1 | 0.00 | 0.36 | 0.36 | 65 | 1016.3 |
| 20260831105511 | 22 | 200 | 14.5 | 24.1 | 0.00 | 0.36 | 0.36 | 65 | 1016.3 |
| 20260831105251 | 21 | 187 | 14.5 | 27.4 | 0.00 | 0.36 | 0.36 | 65 | 1016.3 |
| 20260831105246 | 21 | 236 | 14.5 | 24.1 | 0.00 | 0.36 | 0.36 | 65 | 1016.4 |
| 20260831105238 | 21 | 269 | 14.5 | 24.1 | 0.00 | 0.36 | 0.36 | 65 | 1016.4 |
| 20260831105020 | 21 | 229 | 14.5 | 27.4 | 0.00 | 0.36 | 0.36 | 65 | 1016.3 |
| 20260831105016 | 21 | 238 | 14.5 | 27.4 | 0.00 | 0.36 | 0.36 | 65 | 1016.4 |
| 20260831105012 | 21 | 187 | 14.5 | 27.4 | 0.00 | 0.36 | 0.36 | 65 | 1016.3 |
| 20260831104749 | 21 | 227 | 14.5 | 27.4 | 0.00 | 0.36 | 0.36 | 65 | 1016.3 |
| 20260831104744 | 21 | 232 | 14.5 | 27.4 | 0.00 | 0.36 | 0.36 | 64 | 1016.3 |
| 20260831104736 | 21 | 226 | 12.9 | 27.4 | 0.00 | 0.36 | 0.36 | 64 | 1016.3 |
| 20260831104519 | 21 | 194 | 12.9 | 27.4 | 0.00 | 0.36 | 0.36 | 64 | 1016.3 |
| 20260831104515 | 21 | 236 | 14.5 | 27.4 | 0.00 | 0.36 | 0.36 | 65 | 1016.3 |
| 20260831104511 | 21 | 227 | 14.5 | 27.4 | 0.00 | 0.36 | 0.36 | 65 | 1016.3 |
| 20260831104201 | 21 | 273 | 14.5 | 27.4 | 0.00 | 0.36 | 0.36 | 65 | 1016.4 |
| 20260831104101 | 21 | 273 | 14.5 | 27.4 | 0.00 | 0.36 | 0.36 | 65 | 1016.3 |
| 20260831104001 | 21 | 251 | 14.5 | 25.7 | 0.00 | 0.36 | 0.36 | 66 | 1016.4 |
| 20260831103901 | 21 | 283 | 14.5 | 27.4 | 0.00 | 0.36 | 0.36 | 65 | 1016.4 |
| 20260831103801 | 21 | 257 | 16.1 | 27.4 | 0.00 | 0.36 | 0.36 | 66 | 1016.3 |
| 20260831103701 | 21 | 247 | 16.1 | 27.4 | 0.00 | 0.36 | 0.36 | 65 | 1016.4 |
| 20260831103601 | 21 | 256 | 16.1 | 27.4 | 0.00 | 0.36 | 0.36 | 64 | 1016.4 |
| 20260831103521 | 21 | 229 | 17.7 | 27.4 | 0.00 | 0.36 | 0.36 | 65 | 1016.5 |
| 20260831103517 | 21 | 230 | 16.1 | 29.0 | 0.00 | 0.36 | 0.36 | 66 | 1016.5 |
| 20260831103513 | 21 | 246 | 16.1 | 29.0 | 0.00 | 0.36 | 0.36 | 65 | 1016.4 |
| 20260831103201 | 21 | 266 | 17.7 | 30.6 | 0.00 | 0.36 | 0.36 | 65 | 1016.5 |
| 20260831103101 | 21 | 256 | 17.7 | 30.6 | 0.00 | 0.36 | 0.36 | 64 | 1016.5 |
| 20260831103020 | 21 | 261 | 16.1 | 30.6 | 0.00 | 0.36 | 0.36 | 65 | 1016.6 |
| 20260831103016 | 21 | 207 | 16.1 | 30.6 | 0.00 | 0.36 | 0.36 | 64 | 1016.6 |
| 20260831103012 | 21 | 250 | 16.1 | 30.6 | 0.00 | 0.36 | 0.36 | 64 | 1016.5 |
| 20260831102700 | 21 | 212 | 16.1 | 30.6 | 0.00 | 0.36 | 0.36 | 65 | 1016.5 |
| 20260831102601 | 21 | 235 | 16.1 | 30.6 | 0.00 | 0.36 | 0.36 | 65 | 1016.5 |
| 20260831102500 | 21 | 225 | 16.1 | 30.6 | 0.00 | 0.36 | 0.36 | 65 | 1016.5 |
| 20260831102400 | 21 | 202 | 16.1 | 32.2 | 0.00 | 0.36 | 0.36 | 65 | 1016.5 |
| 20260831102301 | 21 | 212 | 16.1 | 32.2 | 0.00 | 0.36 | 0.36 | 66 | 1016.4 |
| 20260831102201 | 21 | 230 | 14.5 | 32.2 | 0.00 | 0.36 | 0.36 | 66 | 1016.5 |
| 20260831102101 | 21 | 270 | 14.5 | 32.2 | 0.00 | 0.36 | 0.36 | 66 | 1016.5 |
| 20260831102000 | 21 | 269 | 14.5 | 32.2 | 0.00 | 0.36 | 0.36 | 65 | 1016.4 |
| 20260831101900 | 21 | 276 | 16.1 | 32.2 | 0.00 | 0.36 | 0.36 | 67 | 1016.5 |
| 20260831101801 | 21 | 264 | 16.1 | 32.2 | 0.00 | 0.36 | 0.36 | 67 | 1016.4 |
| 20260831101701 | 21 | 288 | 16.1 | 32.2 | 0.00 | 0.36 | 0.36 | 66 | 1016.5 |
| 20260831101601 | 21 | 275 | 16.1 | 32.2 | 0.00 | 0.36 | 0.36 | 67 | 1016.5 |
| 20260831101500 | 21 | 219 | 17.7 | 32.2 | 0.00 | 0.36 | 0.36 | 66 | 1016.5 |
| 20260831101400 | 21 | 242 | 17.7 | 32.2 | 0.00 | 0.36 | 0.36 | 66 | 1016.6 |
| 20260831101301 | 21 | 276 | 17.7 | 33.8 | 0.00 | 0.36 | 0.36 | 66 | 1016.5 |
| 20260831101201 | 21 | 250 | 17.7 | 33.8 | 0.00 | 0.36 | 0.36 | 67 | 1016.6 |
| 20260831101101 | 21 | 252 | 19.3 | 33.8 | 0.00 | 0.36 | 0.36 | 67 | 1016.6 |
| 20260831101001 | 21 | 261 | 19.3 | 33.8 | 0.00 | 0.36 | 0.36 | 67 | 1016.6 |
| 20260831100901 | 21 | 271 | 19.3 | 33.8 | 0.00 | 0.36 | 0.36 | 66 | 1016.6 |
| 20260831100801 | 20 | 208 | 20.9 | 33.8 | 0.00 | 0.36 | 0.36 | 66 | 1016.6 |
| 20260831100701 | 20 | 228 | 20.9 | 33.8 | 0.00 | 0.36 | 0.36 | 66 | 1016.6 |
| 20260831100605 | 21 | 246 | 20.9 | 33.8 | 0.00 | 0.36 | 0.36 | 65 | 1016.7 |
| 20260831100501 | 21 | 265 | 19.3 | 33.8 | 0.00 | 0.36 | 0.36 | 66 | 1016.8 |
| 20260831100401 | 21 | 267 | 19.3 | 33.8 | 0.00 | 0.36 | 0.36 | 67 | 1016.5 |
| 20260831100302 | 21 | 278 | 20.9 | 32.2 | 0.00 | 0.36 | 0.36 | 66 | 1016.6 |
| 20260831100201 | 21 | 292 | 20.9 | 32.2 | 0.00 | 0.36 | 0.36 | 66 | 1016.6 |
| 20260831100103 | 21 | 274 | 20.9 | 32.2 | 0.00 | 0.36 | 0.36 | 65 | 1016.8 |
| 20260831100000 | 21 | 279 | 19.3 | 32.2 | 0.00 | 0.36 | 0.36 | 66 | 1016.6 |
| 20260831095901 | 21 | 275 | 19.3 | 32.2 | 0.00 | 0.36 | 0.36 | 66 | 1016.6 |
| 20260831095801 | 21 | 259 | 19.3 | 32.2 | 0.00 | 0.36 | 0.36 | 66 | 1017.0 |
| 20260831095701 | 21 | 256 | 19.3 | 32.2 | 0.00 | 0.36 | 0.36 | 66 | 1016.6 |
| 20260831095601 | 21 | 268 | 17.7 | 32.2 | 0.00 | 0.36 | 0.36 | 66 | 1016.6 |
| 20260831095501 | 21 | 284 | 17.7 | 32.2 | 0.00 | 0.36 | 0.36 | 66 | 1016.8 |
| 20260831095401 | 21 | 286 | 16.1 | 32.2 | 0.00 | 0.36 | 0.36 | 66 | 1016.8 |
| 20260831095300 | 21 | 265 | 16.1 | 32.2 | 0.00 | 0.36 | 0.36 | 66 | 1016.8 |
| 20260831095200 | 21 | 259 | 14.5 | 32.2 | 0.00 | 0.36 | 0.36 | 67 | 1016.7 |
| 20260831095100 | 21 | 248 | 12.9 | 27.4 | 0.00 | 0.36 | 0.36 | 67 | 1016.6 |
| 20260831095000 | 21 | 238 | 12.9 | 25.7 | 0.00 | 0.36 | 0.36 | 67 | 1016.6 |
| 20260831094900 | 21 | 271 | 12.9 | 25.7 | 0.00 | 0.36 | 0.36 | 67 | 1016.6 |
| 20260831094801 | 21 | 271 | 12.9 | 25.7 | 0.00 | 0.36 | 0.36 | 67 | 1016.7 |
| 20260831094701 | 21 | 297 | 12.9 | 25.7 | 0.00 | 0.36 | 0.36 | 68 | 1016.6 |
| 20260831094601 | 21 | 282 | 11.3 | 24.1 | 0.00 | 0.36 | 0.36 | 69 | 1016.6 |
| 20260831094501 | 21 | 298 | 12.9 | 22.5 | 0.00 | 0.36 | 0.36 | 69 | 1016.5 |
| 20260831094401 | 21 | 265 | 12.9 | 22.5 | 0.00 | 0.36 | 0.36 | 69 | 1016.5 |
| 20260831094301 | 21 | 246 | 12.9 | 22.5 | 0.00 | 0.36 | 0.36 | 70 | 1016.5 |
| 20260831094201 | 21 | 221 | 14.5 | 24.1 | 0.00 | 0.36 | 0.36 | 69 | 1016.5 |
| 20260831094102 | 21 | 286 | 14.5 | 24.1 | 0.00 | 0.36 | 0.36 | 69 | 1016.6 |
| 20260831094001 | 21 | 277 | 14.5 | 24.1 | 0.00 | 0.36 | 0.36 | 70 | 1016.5 |
| 20260831093901 | 21 | 281 | 14.5 | 24.1 | 0.00 | 0.36 | 0.36 | 70 | 1016.5 |
| 20260831093800 | 21 | 319 | 16.1 | 25.7 | 0.00 | 0.36 | 0.36 | 69 | 1016.5 |
| 20260831093700 | 21 | 272 | 16.1 | 25.7 | 0.00 | 0.36 | 0.36 | 70 | 1016.5 |
| 20260831093601 | 20 | 254 | 16.1 | 25.7 | 0.00 | 0.36 | 0.36 | 69 | 1016.5 |
| 20260831093521 | 20 | 264 | 16.1 | 25.7 | 0.00 | 0.36 | 0.36 | 69 | 1016.6 |
| 20260831093517 | 20 | 271 | 16.1 | 25.7 | 0.00 | 0.36 | 0.36 | 69 | 1016.6 |
| 20260831093513 | 20 | 262 | 16.1 | 25.7 | 0.00 | 0.36 | 0.36 | 70 | 1016.6 |
| 20260831093201 | 20 | 271 | 17.7 | 25.7 | 0.00 | 0.36 | 0.36 | 70 | 1016.7 |
| 20260831093101 | 20 | 238 | 17.7 | 25.7 | 0.00 | 0.36 | 0.36 | 71 | 1016.5 |
| 20260831093001 | 20 | 286 | 17.7 | 27.4 | 0.00 | 0.36 | 0.36 | 70 | 1016.7 |
| 20260831092901 | 20 | 264 | 17.7 | 27.4 | 0.00 | 0.36 | 0.36 | 71 | 1016.7 |
| 20260831092801 | 20 | 298 | 17.7 | 27.4 | 0.00 | 0.36 | 0.36 | 70 | 1016.6 |
| 20260831092701 | 20 | 263 | 17.7 | 27.4 | 0.00 | 0.36 | 0.36 | 71 | 1016.7 |
| 20260831092601 | 20 | 273 | 17.7 | 27.4 | 0.00 | 0.36 | 0.36 | 72 | 1016.6 |
| 20260831092501 | 20 | 259 | 16.1 | 27.4 | 0.00 | 0.36 | 0.36 | 72 | 1016.5 |
| 20260831092400 | 20 | 244 | 16.1 | 27.4 | 0.00 | 0.36 | 0.36 | 72 | 1016.6 |
| 20260831092300 | 20 | 246 | 16.1 | 27.4 | 0.00 | 0.36 | 0.36 | 72 | 1016.6 |
| 20260831092200 | 20 | 304 | 14.5 | 27.4 | 0.00 | 0.36 | 0.36 | 71 | 1016.7 |
| 20260831092100 | 20 | 236 | 14.5 | 27.4 | 0.00 | 0.36 | 0.36 | 72 | 1016.5 |
| 20260831092020 | 20 | 256 | 14.5 | 27.4 | 0.00 | 0.36 | 0.36 | 72 | 1016.6 |
| 20260831092016 | 20 | 277 | 12.9 | 27.4 | 0.00 | 0.36 | 0.36 | 72 | 1016.6 |
| 20260831092012 | 20 | 266 | 12.9 | 27.4 | 0.00 | 0.36 | 0.36 | 72 | 1016.6 |
| 20260831091701 | 20 | 248 | 12.9 | 27.4 | 0.00 | 0.36 | 0.36 | 73 | 1016.7 |
| 20260831091602 | 20 | 273 | 11.3 | 27.4 | 0.00 | 0.36 | 0.36 | 73 | 1016.5 |
| 20260831091502 | 20 | 238 | 11.3 | 27.4 | 0.00 | 0.36 | 0.36 | 73 | 1016.5 |
| 20260831091401 | 20 | 268 | 11.3 | 27.4 | 0.00 | 0.36 | 0.36 | 72 | 1016.5 |
| 20260831091302 | 20 | 277 | 11.3 | 27.4 | 0.00 | 0.36 | 0.36 | 74 | 1016.6 |
| 20260831091201 | 20 | 217 | 11.3 | 27.4 | 0.00 | 0.36 | 0.36 | 75 | 1016.6 |
| 20260831091100 | 20 | 239 | 11.3 | 25.7 | 0.00 | 0.36 | 0.36 | 76 | 1016.5 |
| 20260831091001 | 19 | 267 | 11.3 | 20.9 | 0.00 | 0.36 | 0.36 | 76 | 1016.6 |
| 20260831090901 | 19 | 302 | 11.3 | 20.9 | 0.00 | 0.36 | 0.36 | 75 | 1016.6 |
| 20260831090800 | 19 | 265 | 11.3 | 20.9 | 0.00 | 0.36 | 0.36 | 76 | 1016.5 |
| 20260831090700 | 19 | 293 | 11.3 | 20.9 | 0.00 | 0.36 | 0.36 | 75 | 1016.5 |
| 20260831090601 | 19 | 254 | 11.3 | 20.9 | 0.00 | 0.36 | 0.36 | 75 | 1016.6 |
| 20260831090501 | 19 | 275 | 11.3 | 20.9 | 0.00 | 0.36 | 0.36 | 75 | 1016.5 |
| 20260831090401 | 19 | 228 | 11.3 | 20.9 | 0.00 | 0.36 | 0.36 | 75 | 1016.6 |
| 20260831090301 | 19 | 250 | 11.3 | 20.9 | 0.00 | 0.36 | 0.36 | 75 | 1016.7 |
| 20260831090201 | 19 | 254 | 11.3 | 20.9 | 0.00 | 0.36 | 0.36 | 75 | 1016.6 |
| 20260831090101 | 19 | 265 | 11.3 | 17.7 | 0.00 | 0.36 | 0.36 | 75 | 1016.6 |
| 20260831090001 | 19 | 273 | 11.3 | 19.3 | 0.00 | 0.36 | 0.36 | 76 | 1016.6 |
| 20260831085901 | 19 | 245 | 11.3 | 19.3 | 0.00 | 0.36 | 0.36 | 76 | 1016.6 |
| 20260831085800 | 19 | 280 | 11.3 | 19.3 | 0.00 | 0.36 | 0.36 | 76 | 1016.6 |
| 20260831085700 | 19 | 256 | 12.9 | 20.9 | 0.00 | 0.36 | 0.36 | 76 | 1016.5 |
| 20260831085600 | 19 | 265 | 12.9 | 20.9 | 0.00 | 0.36 | 0.36 | 75 | 1016.6 |
| 20260831085500 | 19 | 256 | 12.9 | 22.5 | 0.00 | 0.36 | 0.36 | 76 | 1016.6 |
| 20260831085401 | 19 | 274 | 12.9 | 22.5 | 0.00 | 0.36 | 0.36 | 76 | 1016.5 |
| 20260831085301 | 19 | 277 | 12.9 | 22.5 | 0.00 | 0.36 | 0.36 | 75 | 1016.5 |
| 20260831085248 | 19 | 288 | 12.9 | 22.5 | 0.00 | 0.36 | 0.36 | 76 | 1016.5 |
| 20260831085245 | 19 | 257 | 14.5 | 22.5 | 0.00 | 0.36 | 0.36 | 75 | 1016.4 |
| 20260831085240 | 19 | 232 | 14.5 | 22.5 | 0.00 | 0.36 | 0.36 | 75 | 1016.5 |
| 20260831085020 | 19 | 240 | 12.9 | 22.5 | 0.00 | 0.36 | 0.36 | 76 | 1016.4 |
| 20260831085015 | 19 | 266 | 12.9 | 22.5 | 0.00 | 0.36 | 0.36 | 76 | 1016.6 |
| 20260831085011 | 19 | 288 | 12.9 | 22.5 | 0.00 | 0.36 | 0.36 | 76 | 1016.5 |
| 20260831084701 | 19 | 251 | 12.9 | 22.5 | 0.00 | 0.36 | 0.36 | 76 | 1016.5 |
| 20260831084601 | 19 | 269 | 11.3 | 22.5 | 0.00 | 0.36 | 0.36 | 77 | 1016.4 |
| 20260831084501 | 19 | 258 | 11.3 | 19.3 | 0.00 | 0.36 | 0.36 | 77 | 1016.5 |
| 20260831084401 | 19 | 267 | 11.3 | 19.3 | 0.00 | 0.36 | 0.36 | 77 | 1016.5 |
| 20260831084300 | 19 | 290 | 11.3 | 19.3 | 0.00 | 0.36 | 0.36 | 76 | 1016.5 |
| 20260831084202 | 19 | 233 | 9.7 | 19.3 | 0.00 | 0.36 | 0.36 | 77 | 1016.5 |
| 20260831084100 | 19 | 263 | 9.7 | 17.7 | 0.00 | 0.36 | 0.36 | 78 | 1016.4 |
| 20260831084001 | 19 | 256 | 9.7 | 17.7 | 0.00 | 0.36 | 0.36 | 78 | 1016.4 |
| 20260831083901 | 19 | 281 | 9.7 | 17.7 | 0.00 | 0.36 | 0.36 | 78 | 1016.4 |
| 20260831083801 | 19 | 263 | 11.3 | 17.7 | 0.00 | 0.36 | 0.36 | 78 | 1016.5 |
| 20260831083700 | 19 | 242 | 11.3 | 19.3 | 0.00 | 0.36 | 0.36 | 78 | 1016.4 |
| 20260831083600 | 19 | 258 | 11.3 | 19.3 | 0.00 | 0.36 | 0.36 | 78 | 1016.4 |
| 20260831083501 | 19 | 282 | 11.3 | 19.3 | 0.00 | 0.36 | 0.36 | 77 | 1016.4 |
| 20260831083400 | 19 | 236 | 11.3 | 19.3 | 0.00 | 0.36 | 0.36 | 78 | 1016.4 |
| 20260831083300 | 19 | 254 | 11.3 | 19.3 | 0.00 | 0.36 | 0.36 | 78 | 1016.4 |
| 20260831083201 | 19 | 251 | 11.3 | 19.3 | 0.00 | 0.36 | 0.36 | 78 | 1016.4 |
| 20260831083101 | 18 | 265 | 11.3 | 19.3 | 0.00 | 0.36 | 0.36 | 78 | 1016.3 |
| 20260831083000 | 19 | 281 | 11.3 | 19.3 | 0.00 | 0.36 | 0.36 | 78 | 1016.4 |
| 20260831082900 | 19 | 253 | 11.3 | 19.3 | 0.00 | 0.36 | 0.36 | 78 | 1016.4 |
| 20260831082801 | 19 | 248 | 11.3 | 19.3 | 0.00 | 0.36 | 0.36 | 78 | 1016.3 |
| 20260831082701 | 19 | 260 | 11.3 | 19.3 | 0.00 | 0.36 | 0.36 | 78 | 1016.4 |
| 20260831082601 | 18 | 263 | 11.3 | 19.3 | 0.00 | 0.36 | 0.36 | 80 | 1016.3 |
| 20260831082500 | 18 | 257 | 11.3 | 19.3 | 0.00 | 0.36 | 0.36 | 80 | 1016.2 |
| 20260831082401 | 18 | 253 | 11.3 | 19.3 | 0.00 | 0.36 | 0.36 | 79 | 1016.2 |
| 20260831082301 | 18 | 298 | 11.3 | 19.3 | 0.00 | 0.36 | 0.36 | 79 | 1016.2 |
| 20260831082200 | 18 | 246 | 11.3 | 19.3 | 0.00 | 0.36 | 0.36 | 79 | 1016.2 |
| 20260831082100 | 18 | 254 | 11.3 | 19.3 | 0.00 | 0.36 | 0.36 | 78 | 1016.2 |
| 20260831082001 | 18 | 271 | 11.3 | 19.3 | 0.00 | 0.36 | 0.36 | 80 | 1016.4 |
| 20260831081900 | 18 | 277 | 11.3 | 19.3 | 0.00 | 0.36 | 0.36 | 81 | 1016.3 |
| 20260831081801 | 18 | 292 | 11.3 | 19.3 | 0.00 | 0.36 | 0.36 | 81 | 1016.2 |
| 20260831081701 | 18 | 293 | 11.3 | 19.3 | 0.00 | 0.36 | 0.36 | 81 | 1016.2 |
| 20260831081601 | 18 | 259 | 12.9 | 19.3 | 0.00 | 0.36 | 0.36 | 81 | 1016.2 |
| 20260831081501 | 18 | 221 | 12.9 | 22.5 | 0.00 | 0.36 | 0.36 | 81 | 1016.2 |
| 20260831081401 | 18 | 271 | 12.9 | 22.5 | 0.00 | 0.36 | 0.36 | 82 | 1016.2 |
| 20260831081301 | 18 | 255 | 11.3 | 22.5 | 0.00 | 0.36 | 0.36 | 82 | 1016.4 |
| 20260831081200 | 18 | 254 | 11.3 | 22.5 | 0.00 | 0.36 | 0.36 | 82 | 1016.2 |
| 20260831081100 | 18 | 260 | 9.7 | 22.5 | 0.00 | 0.36 | 0.36 | 81 | 1016.3 |
| 20260831081000 | 18 | 221 | 9.7 | 22.5 | 0.00 | 0.36 | 0.36 | 82 | 1016.3 |
| 20260831080900 | 18 | 232 | 9.7 | 22.5 | 0.00 | 0.36 | 0.36 | 82 | 1016.3 |
| 20260831080800 | 18 | 242 | 9.7 | 22.5 | 0.00 | 0.36 | 0.36 | 83 | 1016.2 |
| 20260831080700 | 18 | 249 | 9.7 | 22.5 | 0.00 | 0.36 | 0.36 | 83 | 1016.2 |
| 20260831080601 | 18 | 212 | 8.0 | 22.5 | 0.00 | 0.36 | 0.36 | 84 | 1016.1 |
| 20260831080501 | 18 | 264 | 8.0 | 17.7 | 0.00 | 0.36 | 0.36 | 84 | 1016.1 |
| 20260831080401 | 18 | 237 | 8.0 | 17.7 | 0.00 | 0.36 | 0.36 | 84 | 1016.2 |
| 20260831080302 | 18 | 248 | 9.7 | 17.7 | 0.00 | 0.36 | 0.36 | 84 | 1016.1 |
| 20260831080200 | 18 | 262 | 9.7 | 17.7 | 0.00 | 0.36 | 0.36 | 83 | 1016.1 |
| 20260831080021 | 18 | 219 | 9.7 | 17.7 | 0.00 | 0.36 | 0.36 | 83 | 1016.2 |
| 20260831080017 | 18 | 252 | 9.7 | 17.7 | 0.00 | 0.36 | 0.36 | 83 | 1016.2 |
| 20260831080013 | 18 | 232 | 9.7 | 17.7 | 0.00 | 0.36 | 0.36 | 83 | 1016.2 |
| 20260831075701 | 18 | 264 | 9.7 | 17.7 | 0.00 | 0.36 | 0.36 | 83 | 1016.2 |
| 20260831075601 | 18 | 231 | 9.7 | 17.7 | 0.00 | 0.36 | 0.36 | 83 | 1016.1 |
| 20260831075501 | 18 | 270 | 9.7 | 17.7 | 0.00 | 0.36 | 0.36 | 83 | 1016.1 |
| 20260831075400 | 18 | 233 | 9.7 | 16.1 | 0.00 | 0.36 | 0.36 | 83 | 1016.1 |
| 20260831075300 | 18 | 268 | 8.0 | 16.1 | 0.00 | 0.36 | 0.36 | 84 | 1016.1 |
| 20260831075200 | 18 | 236 | 8.0 | 16.1 | 0.00 | 0.36 | 0.36 | 84 | 1016.1 |
| 20260831075100 | 18 | 231 | 9.7 | 16.1 | 0.00 | 0.36 | 0.36 | 84 | 1016.1 |
| 20260831075000 | 18 | 238 | 9.7 | 17.7 | 0.00 | 0.36 | 0.36 | 84 | 1016.1 |
| 20260831074900 | 18 | 261 | 8.0 | 17.7 | 0.00 | 0.36 | 0.36 | 84 | 1016.1 |
| 20260831074801 | 18 | 238 | 8.0 | 17.7 | 0.00 | 0.36 | 0.36 | 84 | 1016.1 |
| 20260831074701 | 18 | 300 | 9.7 | 17.7 | 0.00 | 0.36 | 0.36 | 83 | 1016.1 |
| 20260831074601 | 18 | 275 | 9.7 | 17.7 | 0.00 | 0.36 | 0.36 | 83 | 1016.1 |
| 20260831074501 | 18 | 285 | 9.7 | 17.7 | 0.00 | 0.36 | 0.36 | 83 | 1016.1 |
| 20260831074401 | 18 | 317 | 9.7 | 17.7 | 0.00 | 0.36 | 0.36 | 83 | 1016.1 |
| 20260831074301 | 18 | 269 | 11.3 | 20.9 | 0.00 | 0.36 | 0.36 | 83 | 1016.0 |
| 20260831074202 | 18 | 252 | 11.3 | 20.9 | 0.00 | 0.36 | 0.36 | 84 | 1016.0 |
| 20260831074101 | 18 | 265 | 11.3 | 20.9 | 0.00 | 0.36 | 0.36 | 83 | 1016.1 |
| 20260831074023 | 18 | 252 | 11.3 | 22.5 | 0.00 | 0.36 | 0.36 | 84 | 1016.0 |
| 20260831074015 | 18 | 283 | 11.3 | 22.5 | 0.00 | 0.36 | 0.36 | 84 | 1016.0 |
| 20260831074011 | 18 | 263 | 11.3 | 22.5 | 0.00 | 0.36 | 0.36 | 85 | 1016.0 |
| 20260831073700 | 18 | 231 | 11.3 | 22.5 | 0.00 | 0.36 | 0.36 | 85 | 1016.1 |
| 20260831073600 | 18 | 244 | 11.3 | 22.5 | 0.00 | 0.36 | 0.36 | 84 | 1016.1 |
| 20260831073502 | 18 | 264 | 12.9 | 22.5 | 0.00 | 0.36 | 0.36 | 84 | 1016.0 |
| 20260831073400 | 18 | 241 | 12.9 | 22.5 | 0.00 | 0.36 | 0.36 | 84 | 1016.1 |
| 20260831073301 | 18 | 265 | 12.9 | 22.5 | 0.00 | 0.36 | 0.36 | 84 | 1016.1 |
| 20260831073201 | 18 | 281 | 12.9 | 32.2 | 0.00 | 0.36 | 0.36 | 84 | 1016.0 |
| 20260831073101 | 18 | 283 | 12.9 | 32.2 | 0.00 | 0.36 | 0.36 | 85 | 1016.1 |
| 20260831073001 | 18 | 267 | 12.9 | 32.2 | 0.00 | 0.36 | 0.36 | 85 | 1015.8 |
| 20260831072901 | 18 | 229 | 12.9 | 32.2 | 0.00 | 0.36 | 0.36 | 85 | 1015.8 |
| 20260831072801 | 18 | 249 | 12.9 | 32.2 | 0.00 | 0.36 | 0.36 | 85 | 1015.8 |
| 20260831072700 | 18 | 290 | 12.9 | 32.2 | 0.00 | 0.36 | 0.36 | 84 | 1016.0 |
| 20260831072600 | 18 | 255 | 12.9 | 32.2 | 0.00 | 0.36 | 0.36 | 85 | 1016.0 |
| 20260831072500 | 18 | 260 | 12.9 | 32.2 | 0.00 | 0.36 | 0.36 | 85 | 1016.0 |
| 20260831072401 | 18 | 263 | 12.9 | 32.2 | 0.00 | 0.36 | 0.36 | 85 | 1016.0 |
| 20260831072301 | 18 | 279 | 11.3 | 32.2 | 0.00 | 0.36 | 0.36 | 85 | 1016.0 |
| 20260831072201 | 18 | 236 | 11.3 | 20.9 | 0.00 | 0.36 | 0.36 | 87 | 1015.8 |
| 20260831072100 | 18 | 241 | 11.3 | 20.9 | 0.00 | 0.36 | 0.36 | 87 | 1015.8 |
| 20260831072000 | 17 | 254 | 11.3 | 20.9 | 0.00 | 0.36 | 0.36 | 87 | 1015.8 |
| 20260831071901 | 17 | 252 | 11.3 | 20.9 | 0.00 | 0.36 | 0.36 | 87 | 1015.8 |
| 20260831071800 | 17 | 281 | 11.3 | 22.5 | 0.00 | 0.36 | 0.36 | 87 | 1015.8 |
| 20260831071701 | 17 | 269 | 12.9 | 22.5 | 0.00 | 0.36 | 0.36 | 86 | 1016.0 |
| 20260831071601 | 17 | 238 | 12.9 | 22.5 | 0.00 | 0.36 | 0.36 | 87 | 1016.0 |
| 20260831071500 | 17 | 257 | 11.3 | 22.5 | 0.00 | 0.36 | 0.36 | 87 | 1015.8 |
| 20260831071401 | 17 | 255 | 11.3 | 22.5 | 0.00 | 0.36 | 0.36 | 87 | 1016.0 |
| 20260831071301 | 17 | 250 | 12.9 | 22.5 | 0.00 | 0.36 | 0.36 | 87 | 1015.8 |
| 20260831071201 | 17 | 253 | 12.9 | 22.5 | 0.00 | 0.36 | 0.36 | 87 | 1015.8 |
| 20260831071101 | 17 | 234 | 12.9 | 22.5 | 0.00 | 0.36 | 0.36 | 87 | 1016.0 |
| 20260831071001 | 17 | 221 | 12.9 | 22.5 | 0.00 | 0.36 | 0.36 | 86 | 1015.7 |
| 20260831070901 | 17 | 259 | 12.9 | 22.5 | 0.00 | 0.36 | 0.36 | 86 | 1016.0 |
| 20260831070801 | 17 | 271 | 12.9 | 25.7 | 0.00 | 0.36 | 0.36 | 86 | 1015.7 |
| 20260831070700 | 17 | 260 | 12.9 | 25.7 | 0.00 | 0.36 | 0.36 | 87 | 1015.8 |
| 20260831070600 | 17 | 198 | 12.9 | 25.7 | 0.00 | 0.36 | 0.36 | 87 | 1015.7 |
| 20260831070500 | 17 | 281 | 12.9 | 25.7 | 0.00 | 0.36 | 0.36 | 87 | 1015.7 |
| 20260831070401 | 17 | 244 | 12.9 | 25.7 | 0.00 | 0.36 | 0.36 | 87 | 1015.7 |
| 20260831070300 | 17 | 277 | 11.3 | 25.7 | 0.00 | 0.36 | 0.36 | 87 | 1015.7 |
| 20260831070200 | 17 | 265 | 11.3 | 25.7 | 0.00 | 0.36 | 0.36 | 87 | 1015.7 |
| 20260831070100 | 17 | 205 | 12.9 | 25.7 | 0.00 | 0.36 | 0.36 | 87 | 1015.6 |
| 20260831070000 | 17 | 241 | 11.3 | 25.7 | 0.00 | 0.36 | 0.36 | 87 | 1015.7 |
| 20260831065900 | 17 | 217 | 11.3 | 25.7 | 0.00 | 0.36 | 0.36 | 87 | 1015.7 |
| 20260831065801 | 17 | 247 | 11.3 | 20.9 | 0.00 | 0.36 | 0.36 | 88 | 1015.6 |
| 20260831065701 | 17 | 228 | 11.3 | 20.9 | 0.00 | 0.36 | 0.36 | 88 | 1015.6 |
| 20260831065559 | 17 | 235 | 11.3 | 20.9 | 0.00 | 0.36 | 0.36 | 88 | 1015.6 |
| 20260831065459 | 17 | 246 | 11.3 | 20.9 | 0.00 | 0.36 | 0.36 | 88 | 1015.5 |
| 20260831065359 | 17 | 250 | 11.3 | 20.9 | 0.00 | 0.36 | 0.36 | 88 | 1015.6 |
| 20260831065306 | 17 | 252 | 11.3 | 20.9 | 0.00 | 0.36 | 0.36 | 88 | 1015.6 |
| 20260831065258 | 17 | 252 | 11.3 | 20.9 | 0.00 | 0.36 | 0.36 | 88 | 1015.6 |
| 20260831065158 | 17 | 222 | 11.3 | 20.9 | 0.00 | 0.36 | 0.36 | 89 | 1015.6 |
| 20260831065058 | 17 | 217 | 9.7 | 20.9 | 0.00 | 0.36 | 0.36 | 89 | 1015.7 |
| 20260831064958 | 17 | 271 | 9.7 | 20.9 | 0.00 | 0.36 | 0.36 | 89 | 1015.6 |
| 20260831064858 | 17 | 264 | 9.7 | 20.9 | 0.00 | 0.36 | 0.36 | 89 | 1015.6 |
| 20260831064802 | 17 | 279 | 9.7 | 20.9 | 0.00 | 0.36 | 0.36 | 89 | 1015.6 |
| 20260831064758 | 17 | 262 | 9.7 | 20.9 | 0.00 | 0.36 | 0.36 | 89 | 1015.6 |
| 20260831064658 | 17 | 248 | 11.3 | 20.9 | 0.00 | 0.36 | 0.36 | 89 | 1015.6 |
| 20260831064559 | 17 | 243 | 11.3 | 20.9 | 0.00 | 0.36 | 0.36 | 89 | 1015.5 |
| 20260831064458 | 17 | 284 | 11.3 | 20.9 | 0.00 | 0.36 | 0.36 | 89 | 1015.5 |
| 20260831064358 | 17 | 264 | 11.3 | 20.9 | 0.00 | 0.36 | 0.36 | 89 | 1015.5 |
| 20260831064303 | 17 | 273 | 11.3 | 17.7 | 0.00 | 0.36 | 0.36 | 89 | 1015.5 |
| 20260831064259 | 17 | 275 | 11.3 | 17.7 | 0.00 | 0.36 | 0.36 | 89 | 1015.5 |
| 20260831064159 | 17 | 284 | 11.3 | 20.9 | 0.00 | 0.36 | 0.36 | 89 | 1015.4 |
| 20260831064059 | 17 | 215 | 11.3 | 20.9 | 0.00 | 0.36 | 0.36 | 89 | 1015.4 |
| 20260831063959 | 17 | 219 | 11.3 | 20.9 | 0.00 | 0.36 | 0.36 | 89 | 1015.5 |
| 20260831063859 | 17 | 268 | 11.3 | 20.9 | 0.00 | 0.36 | 0.36 | 89 | 1015.4 |
| 20260831063803 | 17 | 231 | 12.9 | 20.9 | 0.00 | 0.36 | 0.36 | 89 | 1015.5 |
| 20260831063758 | 17 | 231 | 12.9 | 20.9 | 0.00 | 0.36 | 0.36 | 89 | 1015.5 |
| 20260831063654 | 17 | 242 | 11.3 | 20.9 | 0.00 | 0.36 | 0.36 | 89 | 1015.4 |
| 20260831063554 | 16 | 236 | 11.3 | 20.9 | 0.00 | 0.36 | 0.36 | 89 | 1015.5 |
| 20260831063454 | 16 | 228 | 11.3 | 20.9 | 0.00 | 0.36 | 0.36 | 89 | 1015.5 |
| 20260831063354 | 16 | 209 | 12.9 | 20.9 | 0.00 | 0.36 | 0.36 | 89 | 1015.4 |
| 20260831063300 | 16 | 255 | 12.9 | 20.9 | 0.00 | 0.36 | 0.36 | 89 | 1015.4 |
| 20260831063254 | 16 | 277 | 12.9 | 20.9 | 0.00 | 0.36 | 0.36 | 89 | 1015.4 |
| 20260831063154 | 16 | 220 | 12.9 | 17.7 | 0.00 | 0.36 | 0.36 | 90 | 1015.4 |
| 20260831063054 | 16 | 271 | 12.9 | 19.3 | 0.00 | 0.36 | 0.36 | 90 | 1015.5 |
| 20260831062955 | 16 | 247 | 12.9 | 19.3 | 0.00 | 0.36 | 0.36 | 90 | 1015.5 |
| 20260831062854 | 16 | 284 | 12.9 | 19.3 | 0.00 | 0.36 | 0.36 | 90 | 1015.4 |
| 20260831062800 | 16 | 233 | 12.9 | 20.9 | 0.00 | 0.36 | 0.36 | 90 | 1015.4 |
| 20260831062755 | 16 | 259 | 12.9 | 20.9 | 0.00 | 0.36 | 0.36 | 90 | 1015.4 |
| 20260831062655 | 16 | 261 | 12.9 | 20.9 | 0.00 | 0.36 | 0.36 | 90 | 1015.4 |
| 20260831062555 | 16 | 289 | 12.9 | 20.9 | 0.00 | 0.36 | 0.36 | 90 | 1015.4 |
| 20260831062454 | 16 | 228 | 12.9 | 20.9 | 0.00 | 0.36 | 0.36 | 90 | 1015.4 |
| 20260831062355 | 16 | 267 | 12.9 | 20.9 | 0.00 | 0.36 | 0.36 | 90 | 1015.4 |
| 20260831062301 | 16 | 244 | 12.9 | 20.9 | 0.00 | 0.36 | 0.36 | 90 | 1015.4 |
| 20260831062254 | 16 | 286 | 12.9 | 20.9 | 0.00 | 0.36 | 0.36 | 90 | 1015.4 |
| 20260831062154 | 16 | 277 | 11.3 | 20.9 | 0.00 | 0.36 | 0.36 | 90 | 1015.3 |
| 20260831062054 | 16 | 295 | 11.3 | 20.9 | 0.00 | 0.36 | 0.36 | 90 | 1015.4 |
| 20260831062025 | 16 | 261 | 11.3 | 20.9 | 0.00 | 0.36 | 0.36 | 91 | 1015.4 |
| 20260831062020 | 16 | 265 | 11.3 | 20.9 | 0.00 | 0.36 | 0.36 | 90 | 1015.4 |
| 20260831062012 | 16 | 274 | 11.3 | 20.9 | 0.00 | 0.36 | 0.36 | 91 | 1015.4 |
| 20260831061748 | 16 | 252 | 11.3 | 20.9 | 0.00 | 0.36 | 0.36 | 91 | 1015.4 |
| 20260831061648 | 16 | 299 | 11.3 | 20.9 | 0.00 | 0.36 | 0.36 | 91 | 1015.3 |
| 20260831061548 | 16 | 279 | 9.7 | 20.9 | 0.00 | 0.36 | 0.36 | 91 | 1015.4 |
| 20260831061525 | 16 | 250 | 9.7 | 17.7 | 0.00 | 0.36 | 0.36 | 91 | 1015.4 |
| 20260831061520 | 16 | 271 | 9.7 | 20.9 | 0.00 | 0.36 | 0.36 | 91 | 1015.4 |
| 20260831061511 | 16 | 244 | 9.7 | 20.9 | 0.00 | 0.36 | 0.36 | 91 | 1015.5 |
| 20260831061242 | 16 | 285 | 9.7 | 17.7 | 0.00 | 0.36 | 0.36 | 91 | 1015.4 |
| 20260831061140 | 16 | 248 | 9.7 | 17.7 | 0.00 | 0.36 | 0.36 | 91 | 1015.4 |
| 20260831061040 | 16 | 273 | 9.7 | 14.5 | 0.00 | 0.36 | 0.36 | 91 | 1015.3 |
| 20260831060940 | 16 | 254 | 9.7 | 14.5 | 0.00 | 0.36 | 0.36 | 91 | 1015.4 |
| 20260831060839 | 16 | 278 | 9.7 | 14.5 | 0.00 | 0.36 | 0.36 | 91 | 1015.3 |
| 20260831060800 | 16 | 271 | 9.7 | 14.5 | 0.00 | 0.36 | 0.36 | 91 | 1015.3 |
| 20260831060734 | 16 | 248 | 9.7 | 14.5 | 0.00 | 0.36 | 0.36 | 91 | 1015.3 |
| 20260831060635 | 16 | 273 | 8.0 | 14.5 | 0.00 | 0.36 | 0.36 | 91 | 1015.3 |
| 20260831060535 | 16 | 260 | 8.0 | 14.5 | 0.00 | 0.36 | 0.36 | 91 | 1015.3 |
| 20260831060435 | 16 | 248 | 8.0 | 14.5 | 0.00 | 0.36 | 0.36 | 91 | 1015.3 |
| 20260831060334 | 16 | 271 | 8.0 | 14.5 | 0.00 | 0.36 | 0.36 | 91 | 1015.3 |
| 20260831060301 | 16 | 244 | 8.0 | 14.5 | 0.00 | 0.36 | 0.36 | 91 | 1015.3 |
| 20260831060234 | 16 | 240 | 8.0 | 14.5 | 0.00 | 0.36 | 0.36 | 91 | 1015.3 |
| 20260831060132 | 16 | 243 | 8.0 | 14.5 | 0.00 | 0.36 | 0.36 | 91 | 1015.3 |
| 20260831060032 | 16 | 227 | 8.0 | 14.5 | 0.00 | 0.36 | 0.36 | 91 | 1015.3 |
| 20260831055930 | 16 | 248 | 8.0 | 14.5 | 0.00 | 0.36 | 0.36 | 91 | 1015.3 |
| 20260831055831 | 16 | 232 | 6.4 | 12.9 | 0.00 | 0.36 | 0.36 | 91 | 1015.3 |
| 20260831055800 | 16 | 215 | 6.4 | 12.9 | 0.00 | 0.36 | 0.36 | 92 | 1015.3 |
| 20260831055731 | 16 | 267 | 6.4 | 12.9 | 0.00 | 0.36 | 0.36 | 92 | 1015.3 |
| 20260831055631 | 16 | 261 | 6.4 | 12.9 | 0.00 | 0.36 | 0.36 | 91 | 1015.3 |
| 20260831055530 | 16 | 277 | 6.4 | 12.9 | 0.00 | 0.36 | 0.36 | 91 | 1015.3 |
| 20260831055523 | 16 | 262 | 6.4 | 12.9 | 0.00 | 0.36 | 0.36 | 91 | 1015.3 |
| 20260831055519 | 16 | 262 | 6.4 | 12.9 | 0.00 | 0.36 | 0.36 | 91 | 1015.3 |
| 20260831055511 | 16 | 269 | 6.4 | 12.9 | 0.00 | 0.36 | 0.36 | 91 | 1015.3 |
| 20260831055229 | 16 | 247 | 6.4 | 12.9 | 0.00 | 0.36 | 0.36 | 91 | 1015.3 |
| 20260831055129 | 16 | 247 | 6.4 | 11.3 | 0.00 | 0.36 | 0.36 | 91 | 1015.3 |
| 20260831055029 | 16 | 242 | 4.8 | 11.3 | 0.00 | 0.36 | 0.36 | 92 | 1015.3 |
| 20260831054929 | 16 | 223 | 4.8 | 11.3 | 0.00 | 0.36 | 0.36 | 91 | 1015.3 |
| 20260831054829 | 16 | 220 | 4.8 | 11.3 | 0.00 | 0.36 | 0.36 | 91 | 1015.3 |
| 20260831054801 | 16 | 215 | 4.8 | 11.3 | 0.00 | 0.36 | 0.36 | 91 | 1015.3 |
| 20260831054729 | 16 | 237 | 4.8 | 11.3 | 0.00 | 0.36 | 0.36 | 91 | 1015.3 |
| 20260831054629 | 16 | 277 | 4.8 | 11.3 | 0.00 | 0.36 | 0.36 | 91 | 1015.2 |
| 20260831054529 | 16 | 273 | 4.8 | 11.3 | 0.00 | 0.36 | 0.36 | 91 | 1015.3 |
| 20260831054429 | 16 | 290 | 4.8 | 14.5 | 0.00 | 0.36 | 0.36 | 91 | 1015.3 |
| 20260831054329 | 16 | 258 | 4.8 | 14.5 | 0.00 | 0.36 | 0.36 | 91 | 1015.2 |
| 20260831054301 | 16 | 261 | 4.8 | 14.5 | 0.00 | 0.36 | 0.36 | 91 | 1015.2 |
| 20260831054229 | 16 | 261 | 4.8 | 14.5 | 0.00 | 0.36 | 0.36 | 91 | 1015.2 |
| 20260831054128 | 16 | 238 | 4.8 | 14.5 | 0.00 | 0.36 | 0.36 | 91 | 1015.2 |
| 20260831054029 | 16 | 267 | 6.4 | 14.5 | 0.00 | 0.36 | 0.36 | 91 | 1015.2 |
| 20260831053929 | 16 | 250 | 6.4 | 14.5 | 0.00 | 0.36 | 0.36 | 91 | 1015.2 |
| 20260831053829 | 16 | 243 | 6.4 | 14.5 | 0.00 | 0.36 | 0.36 | 91 | 1015.1 |
| 20260831053801 | 16 | 274 | 6.4 | 14.5 | 0.00 | 0.36 | 0.36 | 91 | 1015.2 |
| 20260831053729 | 16 | 263 | 6.4 | 14.5 | 0.00 | 0.36 | 0.36 | 91 | 1015.2 |
| 20260831053629 | 16 | 265 | 6.4 | 14.5 | 0.00 | 0.36 | 0.36 | 91 | 1015.1 |
| 20260831053529 | 16 | 235 | 6.4 | 14.5 | 0.00 | 0.36 | 0.36 | 91 | 1015.1 |
| 20260831053429 | 16 | 253 | 6.4 | 14.5 | 0.00 | 0.36 | 0.36 | 91 | 1015.2 |
| 20260831053329 | 16 | 275 | 6.4 | 14.5 | 0.00 | 0.36 | 0.36 | 91 | 1015.1 |
| 20260831053300 | 16 | 284 | 6.4 | 14.5 | 0.00 | 0.36 | 0.36 | 91 | 1015.2 |
| 20260831053229 | 16 | 215 | 6.4 | 14.5 | 0.00 | 0.36 | 0.36 | 91 | 1015.2 |
| 20260831053129 | 16 | 225 | 6.4 | 14.5 | 0.00 | 0.36 | 0.36 | 91 | 1015.1 |
| 20260831053028 | 16 | 231 | 8.0 | 16.1 | 0.00 | 0.36 | 0.36 | 91 | 1015.2 |
| 20260831052928 | 16 | 252 | 8.0 | 16.1 | 0.00 | 0.36 | 0.36 | 91 | 1015.2 |
| 20260831052829 | 16 | 252 | 8.0 | 16.1 | 0.00 | 0.36 | 0.36 | 91 | 1015.2 |
| 20260831052801 | 16 | 225 | 6.4 | 16.1 | 0.00 | 0.36 | 0.36 | 91 | 1015.1 |
| 20260831052728 | 16 | 223 | 6.4 | 16.1 | 0.00 | 0.36 | 0.36 | 91 | 1015.1 |
| 20260831052628 | 16 | 247 | 6.4 | 16.1 | 0.00 | 0.36 | 0.36 | 91 | 1015.2 |
| 20260831052528 | 16 | 238 | 6.4 | 16.1 | 0.00 | 0.36 | 0.36 | 91 | 1015.1 |
| 20260831052425 | 16 | 229 | 6.4 | 16.1 | 0.00 | 0.36 | 0.36 | 91 | 1015.2 |
| 20260831052320 | 16 | 217 | 6.4 | 16.1 | 0.00 | 0.36 | 0.36 | 91 | 1015.1 |
| 20260831052301 | 16 | 269 | 6.4 | 16.1 | 0.00 | 0.36 | 0.36 | 91 | 1015.1 |
| 20260831052220 | 16 | 227 | 6.4 | 16.1 | 0.00 | 0.36 | 0.36 | 91 | 1015.1 |
| 20260831052121 | 16 | 242 | 6.4 | 16.1 | 0.00 | 0.36 | 0.36 | 91 | 1015.1 |
| 20260831052021 | 16 | 220 | 6.4 | 12.9 | 0.00 | 0.36 | 0.36 | 91 | 1015.1 |
| 20260831051917 | 16 | 221 | 6.4 | 12.9 | 0.00 | 0.36 | 0.36 | 91 | 1015.1 |
| 20260831051817 | 16 | 244 | 6.4 | 14.5 | 0.00 | 0.36 | 0.36 | 91 | 1015.1 |
| 20260831051801 | 16 | 232 | 6.4 | 14.5 | 0.00 | 0.36 | 0.36 | 91 | 1015.1 |
| 20260831051716 | 16 | 232 | 6.4 | 14.5 | 0.00 | 0.36 | 0.36 | 91 | 1015.1 |
| 20260831051614 | 16 | 240 | 6.4 | 14.5 | 0.00 | 0.36 | 0.36 | 91 | 1015.1 |
| 20260831051514 | 16 | 242 | 6.4 | 14.5 | 0.00 | 0.36 | 0.36 | 91 | 1015.2 |
| 20260831051412 | 16 | 251 | 6.4 | 14.5 | 0.00 | 0.36 | 0.36 | 91 | 1015.1 |
| 20260831051306 | 16 | 244 | 6.4 | 14.5 | 0.00 | 0.36 | 0.36 | 90 | 1015.1 |
| 20260831051301 | 16 | 230 | 6.4 | 14.5 | 0.00 | 0.36 | 0.36 | 90 | 1015.1 |
| 20260831051206 | 16 | 249 | 6.4 | 14.5 | 0.00 | 0.36 | 0.36 | 90 | 1015.1 |
| 20260831051107 | 16 | 273 | 6.4 | 14.5 | 0.00 | 0.36 | 0.36 | 91 | 1015.1 |
| 20260831051007 | 16 | 260 | 6.4 | 14.5 | 0.00 | 0.36 | 0.36 | 91 | 1015.1 |
| 20260831050905 | 16 | 267 | 6.4 | 14.5 | 0.00 | 0.36 | 0.36 | 91 | 1015.1 |
| 20260831050801 | 16 | 255 | 6.4 | 16.1 | 0.00 | 0.36 | 0.36 | 90 | 1015.1 |
| 20260831050707 | 16 | 276 | 8.0 | 16.1 | 0.00 | 0.36 | 0.36 | 90 | 1015.1 |
| 20260831050606 | 16 | 231 | 8.0 | 20.9 | 0.00 | 0.36 | 0.36 | 90 | 1015.1 |
| 20260831050506 | 16 | 256 | 8.0 | 20.9 | 0.00 | 0.36 | 0.36 | 90 | 1015.1 |
| 20260831050406 | 16 | 208 | 8.0 | 20.9 | 0.00 | 0.36 | 0.36 | 90 | 1015.1 |
| 20260831050306 | 16 | 230 | 8.0 | 20.9 | 0.00 | 0.36 | 0.36 | 90 | 1015.1 |
| 20260831050301 | 16 | 229 | 8.0 | 20.9 | 0.00 | 0.36 | 0.36 | 90 | 1015.1 |
| 20260831050206 | 16 | 224 | 9.7 | 20.9 | 0.00 | 0.36 | 0.36 | 90 | 1015.0 |
| 20260831050107 | 16 | 225 | 9.7 | 20.9 | 0.00 | 0.36 | 0.36 | 90 | 1015.1 |
| 20260831050005 | 16 | 269 | 9.7 | 20.9 | 0.00 | 0.36 | 0.36 | 90 | 1015.1 |
| 20260831045904 | 16 | 260 | 9.7 | 20.9 | 0.00 | 0.36 | 0.36 | 90 | 1015.1 |
| 20260831045801 | 16 | 219 | 9.7 | 20.9 | 0.00 | 0.36 | 0.36 | 90 | 1015.0 |
| 20260831045702 | 16 | 212 | 9.7 | 20.9 | 0.00 | 0.36 | 0.36 | 90 | 1015.0 |
| 20260831045602 | 16 | 183 | 9.7 | 17.7 | 0.00 | 0.36 | 0.36 | 91 | 1015.0 |
| 20260831045502 | 16 | 234 | 8.0 | 17.7 | 0.00 | 0.36 | 0.36 | 91 | 1015.0 |
| 20260831045401 | 16 | 260 | 9.7 | 17.7 | 0.00 | 0.36 | 0.36 | 91 | 1015.1 |
| 20260831045301 | 16 | 226 | 9.7 | 17.7 | 0.00 | 0.36 | 0.36 | 91 | 1015.1 |
| 20260831045201 | 16 | 240 | 9.7 | 22.5 | 0.00 | 0.36 | 0.36 | 91 | 1015.0 |
| 20260831045101 | 16 | 236 | 9.7 | 22.5 | 0.00 | 0.36 | 0.36 | 91 | 1015.0 |
| 20260831045001 | 16 | 230 | 9.7 | 22.5 | 0.00 | 0.36 | 0.36 | 91 | 1015.0 |
| 20260831044901 | 16 | 221 | 9.7 | 22.5 | 0.00 | 0.36 | 0.36 | 91 | 1014.9 |
| 20260831044801 | 16 | 219 | 9.7 | 22.5 | 0.00 | 0.38 | 0.36 | 91 | 1015.0 |
| 20260831044702 | 16 | 223 | 9.7 | 22.5 | 0.00 | 0.38 | 0.36 | 91 | 1014.9 |
| 20260831044601 | 16 | 219 | 9.7 | 22.5 | 0.00 | 0.38 | 0.36 | 91 | 1015.0 |
| 20260831044501 | 16 | 258 | 9.7 | 22.5 | 0.00 | 0.38 | 0.36 | 91 | 1014.9 |
| 20260831044401 | 15 | 209 | 9.7 | 22.5 | 0.00 | 0.38 | 0.36 | 91 | 1014.8 |
| 20260831044301 | 15 | 216 | 9.7 | 22.5 | 0.00 | 0.38 | 0.36 | 91 | 1014.9 |
| 20260831044201 | 15 | 211 | 9.7 | 20.9 | 0.00 | 0.38 | 0.36 | 91 | 1014.9 |
| 20260831044101 | 15 | 193 | 9.7 | 19.3 | 0.00 | 0.38 | 0.36 | 91 | 1014.9 |
| 20260831044001 | 15 | 200 | 9.7 | 19.3 | 0.00 | 0.38 | 0.36 | 91 | 1014.8 |
| 20260831043901 | 15 | 216 | 9.7 | 22.5 | 0.00 | 0.38 | 0.36 | 91 | 1014.8 |
| 20260831043801 | 15 | 222 | 9.7 | 22.5 | 0.00 | 0.38 | 0.36 | 91 | 1014.9 |
| 20260831043701 | 15 | 236 | 9.7 | 22.5 | 0.00 | 0.38 | 0.36 | 91 | 1014.9 |
| 20260831043601 | 15 | 221 | 9.7 | 22.5 | 0.00 | 0.38 | 0.36 | 91 | 1014.9 |
| 20260831043501 | 15 | 221 | 9.7 | 22.5 | 0.00 | 0.38 | 0.36 | 91 | 1014.9 |
| 20260831043400 | 15 | 211 | 9.7 | 22.5 | 0.00 | 0.38 | 0.36 | 91 | 1014.9 |
| 20260831043300 | 15 | 205 | 9.7 | 22.5 | 0.00 | 0.38 | 0.36 | 91 | 1014.9 |
| 20260831043200 | 15 | 204 | 9.7 | 22.5 | 0.00 | 0.38 | 0.36 | 91 | 1014.9 |
| 20260831043100 | 15 | 228 | 9.7 | 22.5 | 0.00 | 0.38 | 0.36 | 91 | 1014.9 |
| 20260831043001 | 15 | 213 | 8.0 | 22.5 | 0.00 | 0.38 | 0.36 | 91 | 1015.0 |
| 20260831042901 | 15 | 212 | 9.7 | 19.3 | 0.00 | 0.38 | 0.36 | 91 | 1014.8 |
| 20260831042801 | 15 | 209 | 9.7 | 17.7 | 0.00 | 0.38 | 0.36 | 91 | 1015.0 |
| 20260831042701 | 15 | 255 | 9.7 | 17.7 | 0.00 | 0.38 | 0.36 | 91 | 1014.9 |
| 20260831042601 | 15 | 242 | 9.7 | 17.7 | 0.00 | 0.38 | 0.36 | 91 | 1014.9 |
| 20260831042500 | 15 | 248 | 9.7 | 19.3 | 0.00 | 0.38 | 0.36 | 91 | 1014.9 |
| 20260831042401 | 15 | 207 | 9.7 | 19.3 | 0.00 | 0.38 | 0.36 | 91 | 1014.9 |
| 20260831042301 | 15 | 221 | 9.7 | 19.3 | 0.00 | 0.38 | 0.36 | 90 | 1014.9 |
| 20260831042201 | 15 | 238 | 9.7 | 19.3 | 0.00 | 0.38 | 0.36 | 91 | 1014.9 |
| 20260831042101 | 15 | 231 | 8.0 | 19.3 | 0.00 | 0.38 | 0.36 | 91 | 1014.9 |
| 20260831042001 | 15 | 220 | 8.0 | 19.3 | 0.00 | 0.38 | 0.36 | 91 | 1014.9 |
| 20260831041901 | 15 | 234 | 8.0 | 20.9 | 0.00 | 0.38 | 0.36 | 91 | 1014.9 |
| 20260831041801 | 15 | 221 | 8.0 | 20.9 | 0.00 | 0.38 | 0.36 | 91 | 1014.9 |
| 20260831041701 | 15 | 248 | 8.0 | 20.9 | 0.00 | 0.38 | 0.36 | 90 | 1014.8 |
| 20260831041601 | 15 | 216 | 8.0 | 20.9 | 0.00 | 0.38 | 0.36 | 90 | 1014.8 |
| 20260831041501 | 15 | 205 | 8.0 | 20.9 | 0.00 | 0.38 | 0.36 | 90 | 1014.9 |
| 20260831041401 | 15 | 234 | 8.0 | 20.9 | 0.00 | 0.38 | 0.36 | 90 | 1014.9 |
| 20260831041301 | 15 | 246 | 8.0 | 20.9 | 0.00 | 0.38 | 0.36 | 91 | 1014.9 |
| 20260831041201 | 15 | 218 | 8.0 | 20.9 | 0.00 | 0.38 | 0.36 | 91 | 1014.8 |
| 20260831041101 | 15 | 234 | 9.7 | 20.9 | 0.00 | 0.38 | 0.36 | 91 | 1014.8 |
| 20260831041000 | 15 | 231 | 9.7 | 22.5 | 0.00 | 0.38 | 0.36 | 91 | 1014.8 |
| 20260831040900 | 15 | 254 | 9.7 | 22.5 | 0.00 | 0.38 | 0.36 | 91 | 1014.8 |
| 20260831040801 | 15 | 259 | 9.7 | 22.5 | 0.00 | 0.38 | 0.36 | 91 | 1014.8 |
| 20260831040700 | 15 | 232 | 9.7 | 22.5 | 0.00 | 0.38 | 0.36 | 91 | 1014.7 |
| 20260831040600 | 15 | 228 | 8.0 | 22.5 | 0.00 | 0.38 | 0.36 | 91 | 1014.8 |
| 20260831040524 | 15 | 220 | 8.0 | 22.5 | 0.00 | 0.38 | 0.36 | 90 | 1014.7 |
| 20260831040520 | 15 | 219 | 8.0 | 22.5 | 0.00 | 0.38 | 0.36 | 90 | 1014.8 |
| 20260831040513 | 15 | 220 | 8.0 | 22.5 | 0.00 | 0.38 | 0.36 | 91 | 1014.8 |
| 20260831040200 | 15 | 194 | 8.0 | 22.5 | 0.00 | 0.38 | 0.36 | 91 | 1014.8 |
| 20260831040100 | 15 | 222 | 6.4 | 22.5 | 0.00 | 0.38 | 0.36 | 91 | 1014.8 |
| 20260831040023 | 15 | 196 | 8.0 | 14.5 | 0.00 | 0.38 | 0.36 | 91 | 1014.7 |
| 20260831040020 | 15 | 225 | 6.4 | 14.5 | 0.00 | 0.38 | 0.36 | 91 | 1014.8 |
| 20260831040012 | 15 | 194 | 6.4 | 14.5 | 0.00 | 0.38 | 0.36 | 91 | 1014.7 |
| 20260831035701 | 15 | 227 | 6.4 | 14.5 | 0.00 | 0.38 | 0.36 | 91 | 1014.8 |
| 20260831035601 | 15 | 202 | 6.4 | 16.1 | 0.00 | 0.38 | 0.36 | 91 | 1014.8 |
| 20260831035502 | 15 | 217 | 6.4 | 16.1 | 0.00 | 0.38 | 0.36 | 91 | 1014.7 |
| 20260831035401 | 15 | 221 | 6.4 | 16.1 | 0.00 | 0.38 | 0.36 | 91 | 1014.7 |
| 20260831035306 | 15 | 178 | 6.4 | 16.1 | 0.00 | 0.38 | 0.36 | 91 | 1014.6 |
| 20260831035201 | 15 | 198 | 6.4 | 16.1 | 0.00 | 0.38 | 0.36 | 91 | 1014.7 |
| 20260831035101 | 15 | 229 | 6.4 | 16.1 | 0.00 | 0.38 | 0.36 | 91 | 1014.6 |
| 20260831035025 | 15 | 206 | 6.4 | 16.1 | 0.00 | 0.38 | 0.36 | 91 | 1014.6 |
| 20260831035021 | 15 | 225 | 6.4 | 16.1 | 0.00 | 0.38 | 0.36 | 91 | 1014.6 |
| 20260831035014 | 15 | 225 | 6.4 | 16.1 | 0.00 | 0.38 | 0.36 | 90 | 1014.6 |
| 20260831034701 | 15 | 227 | 8.0 | 16.1 | 0.03 | 0.38 | 0.36 | 91 | 1014.6 |
| 20260831034601 | 15 | 204 | 8.0 | 16.1 | 0.03 | 0.38 | 0.36 | 91 | 1014.6 |
| 20260831034501 | 15 | 259 | 8.0 | 17.7 | 0.03 | 0.38 | 0.36 | 91 | 1014.6 |
| 20260831034401 | 15 | 234 | 6.4 | 17.7 | 0.03 | 0.38 | 0.36 | 91 | 1014.6 |
| 20260831034301 | 15 | 212 | 6.4 | 17.7 | 0.03 | 0.38 | 0.36 | 91 | 1014.6 |
| 20260831034201 | 15 | 205 | 6.4 | 17.7 | 0.03 | 0.38 | 0.36 | 91 | 1014.7 |
| 20260831034101 | 15 | 198 | 6.4 | 17.7 | 0.03 | 0.38 | 0.36 | 91 | 1014.6 |
| 20260831034023 | 15 | 209 | 6.4 | 17.7 | 0.05 | 0.38 | 0.36 | 91 | 1014.7 |
| 20260831034019 | 15 | 216 | 6.4 | 17.7 | 0.05 | 0.38 | 0.36 | 91 | 1014.7 |
| 20260831034011 | 15 | 203 | 6.4 | 17.7 | 0.05 | 0.38 | 0.36 | 91 | 1014.7 |
| 20260831033701 | 15 | 190 | 6.4 | 17.7 | 0.05 | 0.38 | 0.36 | 91 | 1014.7 |
| 20260831033601 | 15 | 226 | 6.4 | 17.7 | 0.05 | 0.38 | 0.36 | 91 | 1014.7 |
| 20260831033501 | 15 | 199 | 6.4 | 14.5 | 0.05 | 0.38 | 0.36 | 91 | 1014.8 |
| 20260831033400 | 15 | 219 | 6.4 | 14.5 | 0.05 | 0.38 | 0.36 | 91 | 1014.8 |
| 20260831033301 | 15 | 207 | 6.4 | 14.5 | 0.08 | 0.38 | 0.36 | 91 | 1014.7 |
| 20260831033200 | 15 | 217 | 6.4 | 14.5 | 0.08 | 0.38 | 0.36 | 91 | 1014.8 |
| 20260831033100 | 15 | 217 | 6.4 | 12.9 | 0.08 | 0.38 | 0.36 | 91 | 1014.7 |
| 20260831033023 | 15 | 214 | 6.4 | 12.9 | 0.08 | 0.38 | 0.36 | 91 | 1014.6 |
| 20260831033019 | 15 | 248 | 6.4 | 12.9 | 0.08 | 0.38 | 0.36 | 91 | 1014.8 |
| 20260831033012 | 15 | 207 | 6.4 | 12.9 | 0.08 | 0.38 | 0.36 | 91 | 1014.7 |
| 20260831032701 | 15 | 221 | 6.4 | 12.9 | 0.10 | 0.38 | 0.36 | 91 | 1014.7 |
| 20260831032601 | 15 | 209 | 6.4 | 12.9 | 0.10 | 0.38 | 0.36 | 91 | 1014.7 |
| 20260831032501 | 15 | 207 | 6.4 | 14.5 | 0.10 | 0.38 | 0.36 | 91 | 1014.8 |
| 20260831032401 | 15 | 206 | 6.4 | 14.5 | 0.13 | 0.38 | 0.36 | 91 | 1014.8 |
| 20260831032301 | 15 | 233 | 6.4 | 14.5 | 0.15 | 0.38 | 0.36 | 91 | 1014.8 |
| 20260831032201 | 15 | 235 | 6.4 | 14.5 | 0.15 | 0.38 | 0.36 | 91 | 1014.8 |
| 20260831032101 | 15 | 227 | 6.4 | 14.5 | 0.20 | 0.38 | 0.36 | 91 | 1014.8 |
| 20260831032025 | 15 | 210 | 6.4 | 14.5 | 0.20 | 0.38 | 0.36 | 91 | 1014.8 |
| 20260831032021 | 15 | 215 | 6.4 | 14.5 | 0.23 | 0.38 | 0.36 | 92 | 1014.8 |
| 20260831032013 | 15 | 211 | 6.4 | 14.5 | 0.25 | 0.38 | 0.36 | 92 | 1014.8 |
| 20260831031701 | 15 | 236 | 6.4 | 14.5 | 0.28 | 0.38 | 0.36 | 92 | 1014.8 |
| 20260831031601 | 15 | 243 | 6.4 | 14.5 | 0.30 | 0.38 | 0.36 | 92 | 1014.8 |
| 20260831031501 | 15 | 215 | 6.4 | 12.9 | 0.30 | 0.38 | 0.36 | 92 | 1014.8 |
| 20260831031401 | 15 | 259 | 4.8 | 12.9 | 0.30 | 0.38 | 0.36 | 92 | 1014.8 |
| 20260831031301 | 15 | 232 | 4.8 | 12.9 | 0.30 | 0.38 | 0.36 | 92 | 1014.7 |
| 20260831031201 | 15 | 218 | 4.8 | 12.9 | 0.30 | 0.38 | 0.36 | 92 | 1014.8 |
| 20260831031101 | 15 | 285 | 4.8 | 12.9 | 0.30 | 0.38 | 0.36 | 92 | 1014.8 |
| 20260831031000 | 15 | 230 | 4.8 | 12.9 | 0.30 | 0.38 | 0.36 | 92 | 1014.8 |
| 20260831030900 | 15 | 257 | 4.8 | 12.9 | 0.30 | 0.38 | 0.36 | 92 | 1014.8 |
| 20260831030802 | 15 | 225 | 4.8 | 12.9 | 0.30 | 0.38 | 0.36 | 92 | 1014.8 |
| 20260831030758 | 16 | 225 | 4.8 | 12.9 | 0.30 | 0.38 | 0.36 | 92 | 1014.8 |
| 20260831030658 | 15 | 225 | 4.8 | 12.9 | 0.30 | 0.38 | 0.36 | 92 | 1014.8 |
| 20260831030558 | 16 | 246 | 4.8 | 12.9 | 0.30 | 0.38 | 0.36 | 92 | 1014.9 |
| 20260831030458 | 15 | 227 | 4.8 | 9.7 | 0.30 | 0.38 | 0.36 | 92 | 1014.9 |
| 20260831030356 | 15 | 219 | 4.8 | 9.7 | 0.30 | 0.38 | 0.36 | 91 | 1014.9 |
| 20260831030301 | 16 | 219 | 4.8 | 9.7 | 0.33 | 0.38 | 0.36 | 91 | 1014.9 |
| 20260831030255 | 16 | 219 | 4.8 | 9.7 | 0.33 | 0.38 | 0.36 | 91 | 1014.9 |
| 20260831030153 | 16 | 219 | 4.8 | 9.7 | 0.33 | 0.38 | 0.36 | 91 | 1014.9 |
| 20260831030054 | 16 | 228 | 4.8 | 9.7 | 0.33 | 0.38 | 0.36 | 91 | 1014.9 |
| 20260831025951 | 16 | 223 | 4.8 | 9.7 | 0.33 | 0.38 | 0.36 | 91 | 1014.9 |
| 20260831025848 | 16 | 223 | 4.8 | 9.7 | 0.33 | 0.38 | 0.36 | 91 | 1014.9 |
| 20260831025800 | 16 | 221 | 3.2 | 9.7 | 0.33 | 0.38 | 0.36 | 91 | 1014.9 |
| 20260831025746 | 16 | 221 | 3.2 | 9.7 | 0.33 | 0.38 | 0.36 | 91 | 1014.9 |
| 20260831025646 | 16 | 220 | 3.2 | 9.7 | 0.33 | 0.38 | 0.36 | 91 | 1014.9 |
| 20260831025546 | 16 | 225 | 3.2 | 9.7 | 0.33 | 0.38 | 0.36 | 91 | 1014.9 |
| 20260831025528 | 16 | 315 | 3.2 | 6.4 | 0.36 | 0.38 | 0.36 | 91 | 1014.3 |
| 20260831025520 | 16 | 219 | 3.2 | 8.0 | 0.33 | 0.38 | 0.36 | 91 | 1014.8 |
| 20260831025516 | 16 | 228 | 3.2 | 6.4 | 0.36 | 0.38 | 0.36 | 91 | 1014.5 |
| 20260831025240 | 16 | 320 | 3.2 | 6.4 | 0.36 | 0.38 | 0.36 | 91 | 1014.3 |
| 20260831025140 | 16 | 320 | 3.2 | 9.7 | 0.36 | 0.38 | 0.36 | 91 | 1014.1 |
| 20260831025039 | 16 | 320 | 3.2 | 9.7 | 0.36 | 0.38 | 0.36 | 90 | 1013.9 |
| 20260831024939 | 16 | 320 | 4.8 | 9.7 | 0.36 | 0.38 | 0.36 | 90 | 1013.9 |
| 20260831024838 | 16 | 320 | 4.8 | 11.3 | 0.36 | 0.38 | 0.33 | 90 | 1014.2 |
| 20260831024801 | 16 | 265 | 4.8 | 11.3 | 0.36 | 0.38 | 0.33 | 90 | 1014.3 |
| 20260831024738 | 16 | 264 | 4.8 | 11.3 | 0.33 | 0.36 | 0.33 | 90 | 1014.3 |
| 20260831024635 | 16 | 263 | 4.8 | 11.3 | 0.33 | 0.36 | 0.33 | 90 | 1014.4 |
| 20260831024535 | 16 | 264 | 4.8 | 11.3 | 0.33 | 0.36 | 0.33 | 90 | 1014.5 |
| 20260831024433 | 16 | 260 | 6.4 | 11.3 | 0.33 | 0.36 | 0.33 | 90 | 1014.7 |
| 20260831024332 | 16 | 254 | 6.4 | 11.3 | 0.33 | 0.36 | 0.33 | 90 | 1014.9 |
| 20260831024301 | 16 | 258 | 6.4 | 12.9 | 0.33 | 0.36 | 0.33 | 90 | 1015.0 |
| 20260831024232 | 16 | 259 | 6.4 | 12.9 | 0.33 | 0.36 | 0.33 | 90 | 1015.0 |
| 20260831024132 | 16 | 263 | 6.4 | 12.9 | 0.33 | 0.36 | 0.33 | 90 | 1015.0 |
| 20260831024032 | 16 | 257 | 6.4 | 12.9 | 0.33 | 0.36 | 0.33 | 90 | 1015.0 |
| 20260831024028 | 16 | 245 | 6.4 | 12.9 | 0.33 | 0.33 | 0.33 | 90 | 1015.2 |
| 20260831024015 | 16 | 241 | 6.4 | 12.9 | 0.33 | 0.33 | 0.33 | 90 | 1015.2 |
| 20260831024011 | 16 | 243 | 6.4 | 12.9 | 0.33 | 0.33 | 0.33 | 90 | 1015.2 |
| 20260831023732 | 16 | 250 | 6.4 | 12.9 | 0.33 | 0.33 | 0.30 | 90 | 1015.2 |
| 20260831023632 | 16 | 259 | 6.4 | 12.9 | 0.30 | 0.33 | 0.30 | 89 | 1015.2 |
| 20260831023532 | 16 | 263 | 8.0 | 19.3 | 0.30 | 0.33 | 0.30 | 89 | 1015.2 |
| 20260831023432 | 16 | 245 | 8.0 | 19.3 | 0.30 | 0.33 | 0.28 | 89 | 1015.2 |
| 20260831023332 | 16 | 267 | 9.7 | 19.3 | 0.28 | 0.30 | 0.28 | 89 | 1015.2 |
| 20260831023301 | 16 | 265 | 9.7 | 20.9 | 0.28 | 0.30 | 0.28 | 89 | 1015.1 |
| 20260831023232 | 16 | 261 | 9.7 | 24.1 | 0.28 | 0.30 | 0.28 | 89 | 1015.1 |
| 20260831023131 | 16 | 264 | 11.3 | 24.1 | 0.28 | 0.30 | 0.28 | 89 | 1015.1 |
| 20260831023029 | 16 | 284 | 12.9 | 24.1 | 0.28 | 0.30 | 0.28 | 89 | 1015.2 |
| 20260831022930 | 16 | 236 | 12.9 | 24.1 | 0.28 | 0.30 | 0.28 | 88 | 1015.3 |
| 20260831022829 | 16 | 273 | 14.5 | 24.1 | 0.28 | 0.30 | 0.28 | 89 | 1015.4 |
| 20260831022801 | 16 | 275 | 14.5 | 24.1 | 0.28 | 0.30 | 0.25 | 88 | 1015.4 |
| 20260831022729 | 16 | 277 | 14.5 | 24.1 | 0.28 | 0.30 | 0.25 | 88 | 1015.4 |
| 20260831022628 | 16 | 273 | 16.1 | 25.7 | 0.25 | 0.28 | 0.25 | 88 | 1015.4 |
| 20260831022528 | 16 | 262 | 16.1 | 25.7 | 0.25 | 0.28 | 0.23 | 88 | 1015.6 |
| 20260831022428 | 16 | 269 | 16.1 | 25.7 | 0.23 | 0.25 | 0.23 | 88 | 1015.6 |
| 20260831022328 | 16 | 257 | 16.1 | 25.7 | 0.23 | 0.23 | 0.23 | 88 | 1015.6 |
| 20260831022301 | 16 | 234 | 16.1 | 25.7 | 0.23 | 0.23 | 0.20 | 88 | 1015.7 |
| 20260831022227 | 16 | 254 | 16.1 | 29.0 | 0.20 | 0.23 | 0.15 | 88 | 1015.7 |
| 20260831022122 | 16 | 265 | 16.1 | 29.0 | 0.18 | 0.20 | 0.15 | 88 | 1016.0 |
| 20260831022022 | 16 | 274 | 16.1 | 29.0 | 0.15 | 0.18 | 0.15 | 88 | 1016.0 |
| 20260831021922 | 16 | 282 | 16.1 | 29.0 | 0.15 | 0.15 | 0.15 | 88 | 1015.8 |
| 20260831021821 | 16 | 278 | 16.1 | 29.0 | 0.13 | 0.15 | 0.10 | 87 | 1016.1 |
| 20260831021801 | 16 | 259 | 16.1 | 29.0 | 0.10 | 0.13 | 0.08 | 87 | 1016.1 |
| 20260831021721 | 16 | 269 | 16.1 | 29.0 | 0.08 | 0.10 | 0.08 | 87 | 1016.1 |
| 20260831021616 | 16 | 253 | 16.1 | 29.0 | 0.05 | 0.08 | 0.05 | 87 | 1015.7 |
| 20260831021516 | 16 | 248 | 16.1 | 29.0 | 0.05 | 0.08 | 0.05 | 87 | 1016.1 |
| 20260831021416 | 16 | 262 | 17.7 | 29.0 | 0.05 | 0.08 | 0.05 | 87 | 1015.6 |
| 20260831021316 | 16 | 246 | 16.1 | 29.0 | 0.05 | 0.08 | 0.05 | 87 | 1015.7 |
| 20260831021301 | 16 | 259 | 16.1 | 29.0 | 0.05 | 0.08 | 0.05 | 87 | 1015.7 |
| 20260831021215 | 16 | 278 | 16.1 | 27.4 | 0.05 | 0.08 | 0.05 | 87 | 1015.6 |
| 20260831021110 | 16 | 263 | 16.1 | 29.0 | 0.05 | 0.08 | 0.05 | 87 | 1015.7 |
| 20260831021010 | 16 | 271 | 16.1 | 29.0 | 0.05 | 0.08 | 0.05 | 87 | 1015.6 |
| 20260831020910 | 16 | 271 | 16.1 | 29.0 | 0.05 | 0.08 | 0.05 | 86 | 1015.4 |
| 20260831020809 | 16 | 285 | 16.1 | 29.0 | 0.05 | 0.08 | 0.05 | 86 | 1015.6 |
| 20260831020800 | 16 | 249 | 16.1 | 29.0 | 0.05 | 0.08 | 0.05 | 86 | 1015.6 |
| 20260831020710 | 17 | 256 | 16.1 | 29.0 | 0.05 | 0.08 | 0.05 | 86 | 1015.4 |
| 20260831020603 | 17 | 295 | 16.1 | 43.5 | 0.05 | 0.08 | 0.05 | 86 | 1015.4 |
| 20260831020503 | 17 | 286 | 17.7 | 43.5 | 0.05 | 0.08 | 0.05 | 87 | 1015.1 |
| 20260831020404 | 17 | 252 | 17.7 | 46.7 | 0.05 | 0.08 | 0.05 | 87 | 1014.9 |
| 20260831020304 | 17 | 259 | 19.3 | 46.7 | 0.05 | 0.05 | 0.05 | 87 | 1014.8 |
| 20260831020300 | 17 | 269 | 19.3 | 46.7 | 0.05 | 0.05 | 0.05 | 87 | 1014.8 |
| 20260831020203 | 17 | 264 | 19.3 | 46.7 | 0.05 | 0.05 | 0.05 | 87 | 1014.8 |
| 20260831020002 | 17 | 254 | 19.3 | 46.7 | 0.05 | 0.05 | 0.05 | 87 | 1014.8 |
| 20260831015901 | 17 | 313 | 19.3 | 46.7 | 0.05 | 0.05 | 0.05 | 87 | 1014.7 |
| 20260831015802 | 17 | 287 | 17.7 | 46.7 | 0.05 | 0.05 | 0.05 | 87 | 1015.0 |
| 20260831015701 | 17 | 257 | 16.1 | 46.7 | 0.05 | 0.05 | 0.03 | 87 | 1014.9 |
| 20260831015602 | 17 | 267 | 14.5 | 46.7 | 0.03 | 0.05 | 0.03 | 86 | 1014.9 |
| 20260831015520 | 17 | 302 | 12.9 | 46.7 | 0.03 | 0.05 | 0.00 | 86 | 1015.0 |
| 20260831015516 | 17 | 290 | 9.7 | 30.6 | 0.00 | 0.03 | 0.00 | 86 | 1014.7 |
| 20260831015512 | 17 | 313 | 8.0 | 30.6 | 0.00 | 0.03 | 0.00 | 86 | 1014.7 |
| 20260831015202 | 17 | 273 | 6.4 | 27.4 | 0.00 | 0.03 | 0.00 | 86 | 1014.6 |
| 20260831015101 | 17 | 294 | 4.8 | 25.7 | 0.00 | 0.03 | 0.00 | 86 | 1014.4 |
| 20260831015001 | 17 | 271 | 3.2 | 20.9 | 0.00 | 0.03 | 0.00 | 86 | 1014.3 |
| 20260831014901 | 17 | 288 | 1.6 | 17.7 | 0.00 | 0.03 | 0.00 | 86 | 1013.7 |
| 20260831014801 | 17 | 273 | 0.0 | 11.3 | 0.00 | 0.03 | 0.00 | 85 | 1013.2 |
| 20260831014701 | 17 | 249 | 0.0 | 6.4 | 0.00 | 0.03 | 0.00 | 85 | 1012.8 |
| 20260831014601 | 17 | 105 | 0.0 | 3.2 | 0.00 | 0.03 | 0.00 | 85 | 1012.6 |
| 20260831014500 | 17 | 105 | 0.0 | 1.6 | 0.00 | 0.03 | 0.00 | 85 | 1012.5 |
| 20260831014400 | 17 | 105 | 0.0 | 1.6 | 0.00 | 0.03 | 0.00 | 85 | 1012.4 |
| 20260831014301 | 17 | 105 | 0.0 | 1.6 | 0.00 | 0.03 | 0.00 | 85 | 1012.4 |
| 20260831014201 | 17 | 105 | 0.0 | 1.6 | 0.00 | 0.03 | 0.00 | 85 | 1012.3 |
| 20260831014059 | 17 | 105 | 0.0 | 1.6 | 0.00 | 0.03 | 0.00 | 85 | 1012.1 |
| 20260831013957 | 17 | 105 | 0.0 | 1.6 | 0.00 | 0.03 | 0.00 | 85 | 1012.3 |
| 20260831013852 | 17 | 105 | 0.0 | 3.2 | 0.00 | 0.03 | 0.00 | 85 | 1012.3 |
| 20260831013801 | 17 | 105 | 0.0 | 3.2 | 0.00 | 0.03 | 0.00 | 85 | 1012.3 |
| 20260831013752 | 17 | 105 | 0.0 | 3.2 | 0.00 | 0.03 | 0.00 | 85 | 1012.3 |
| 20260831013652 | 17 | 105 | 0.0 | 3.2 | 0.00 | 0.03 | 0.00 | 85 | 1012.3 |
| 20260831013552 | 17 | 105 | 0.0 | 3.2 | 0.00 | 0.03 | 0.00 | 85 | 1012.3 |
| 20260831013451 | 17 | 105 | 0.0 | 3.2 | 0.00 | 0.03 | 0.00 | 85 | 1012.3 |
| 20260831013351 | 17 | 105 | 0.0 | 3.2 | 0.00 | 0.03 | 0.00 | 85 | 1012.3 |
| 20260831013300 | 17 | 105 | 0.0 | 3.2 | 0.00 | 0.03 | 0.00 | 85 | 1012.3 |
| 20260831013250 | 17 | 105 | 0.0 | 3.2 | 0.00 | 0.03 | 0.00 | 85 | 1012.3 |
| 20260831013149 | 17 | 105 | 1.6 | 3.2 | 0.00 | 0.03 | 0.00 | 85 | 1012.3 |
| 20260831013048 | 17 | 105 | 0.0 | 3.2 | 0.00 | 0.03 | 0.00 | 85 | 1012.3 |
| 20260831012946 | 17 | 105 | 0.0 | 3.2 | 0.00 | 0.03 | 0.00 | 85 | 1012.3 |
| 20260831012844 | 17 | 105 | 1.6 | 3.2 | 0.00 | 0.03 | 0.00 | 85 | 1012.3 |
| 20260831012801 | 17 | 105 | 1.6 | 3.2 | 0.00 | 0.03 | 0.00 | 84 | 1012.3 |
| 20260831012744 | 17 | 105 | 1.6 | 3.2 | 0.00 | 0.03 | 0.00 | 84 | 1012.3 |
| 20260831012644 | 17 | 105 | 1.6 | 3.2 | 0.00 | 0.03 | 0.00 | 84 | 1012.3 |
| 20260831012542 | 17 | 105 | 1.6 | 3.2 | 0.00 | 0.03 | 0.00 | 85 | 1012.3 |
| 20260831012441 | 17 | 105 | 1.6 | 3.2 | 0.00 | 0.03 | 0.00 | 85 | 1012.3 |
| 20260831012342 | 17 | 105 | 1.6 | 3.2 | 0.00 | 0.03 | 0.00 | 85 | 1012.3 |
| 20260831012300 | 17 | 105 | 1.6 | 3.2 | 0.00 | 0.03 | 0.00 | 85 | 1012.4 |
| 20260831012241 | 17 | 105 | 1.6 | 3.2 | 0.00 | 0.03 | 0.00 | 85 | 1012.4 |
| 20260831012139 | 17 | 105 | 1.6 | 3.2 | 0.00 | 0.03 | 0.00 | 85 | 1012.4 |
| 20260831012040 | 17 | 104 | 1.6 | 3.2 | 0.00 | 0.03 | 0.00 | 85 | 1012.4 |
| 20260831012028 | 17 | 105 | 1.6 | 4.8 | 0.00 | 0.03 | 0.00 | 85 | 1012.4 |
| 20260831012017 | 17 | 105 | 1.6 | 3.2 | 0.00 | 0.03 | 0.00 | 85 | 1012.4 |
| 20260831012013 | 17 | 105 | 1.6 | 3.2 | 0.00 | 0.03 | 0.00 | 85 | 1012.3 |
| 20260831011740 | 17 | 105 | 1.6 | 4.8 | 0.00 | 0.03 | 0.00 | 85 | 1012.4 |
| 20260831011640 | 17 | 105 | 1.6 | 4.8 | 0.00 | 0.03 | 0.00 | 85 | 1012.4 |
| 20260831011540 | 17 | 105 | 1.6 | 4.8 | 0.00 | 0.03 | 0.00 | 85 | 1012.4 |
| 20260831011440 | 17 | 105 | 1.6 | 4.8 | 0.00 | 0.03 | 0.00 | 85 | 1012.4 |
| 20260831011339 | 17 | 105 | 1.6 | 4.8 | 0.00 | 0.03 | 0.00 | 85 | 1012.4 |
| 20260831011301 | 17 | 105 | 1.6 | 4.8 | 0.00 | 0.03 | 0.00 | 85 | 1012.4 |
| 20260831011237 | 17 | 105 | 1.6 | 4.8 | 0.00 | 0.03 | 0.00 | 85 | 1012.4 |
| 20260831011136 | 17 | 105 | 1.6 | 4.8 | 0.00 | 0.03 | 0.00 | 85 | 1012.5 |
| 20260831011036 | 17 | 105 | 1.6 | 4.8 | 0.00 | 0.03 | 0.00 | 85 | 1012.4 |
| 20260831010934 | 17 | 105 | 1.6 | 4.8 | 0.00 | 0.03 | 0.00 | 85 | 1012.4 |
| 20260831010834 | 17 | 105 | 1.6 | 4.8 | 0.00 | 0.03 | 0.00 | 85 | 1012.4 |
| 20260831010801 | 17 | 105 | 1.6 | 4.8 | 0.00 | 0.03 | 0.00 | 85 | 1012.4 |
| 20260831010733 | 17 | 105 | 1.6 | 4.8 | 0.00 | 0.03 | 0.00 | 85 | 1012.4 |
| 20260831010632 | 17 | 106 | 1.6 | 3.2 | 0.00 | 0.03 | 0.00 | 85 | 1012.4 |
| 20260831010531 | 17 | 107 | 1.6 | 3.2 | 0.00 | 0.03 | 0.00 | 85 | 1012.4 |
| 20260831010431 | 17 | 106 | 0.0 | 3.2 | 0.00 | 0.03 | 0.00 | 85 | 1012.4 |
| 20260831010301 | 17 | 107 | 0.0 | 3.2 | 0.00 | 0.03 | 0.00 | 85 | 1012.5 |
| 20260831010230 | 17 | 107 | 0.0 | 3.2 | 0.00 | 0.03 | 0.00 | 85 | 1012.5 |
| 20260831010129 | 17 | 107 | 0.0 | 4.8 | 0.00 | 0.03 | 0.00 | 85 | 1012.5 |
| 20260831010029 | 17 | 107 | 0.0 | 4.8 | 0.00 | 0.03 | 0.00 | 85 | 1012.5 |
| 20260831005930 | 17 | 107 | 1.6 | 4.8 | 0.00 | 0.03 | 0.00 | 85 | 1012.5 |
| 20260831005801 | 17 | 107 | 1.6 | 4.8 | 0.00 | 0.03 | 0.00 | 85 | 1012.5 |
| 20260831005729 | 17 | 107 | 1.6 | 4.8 | 0.00 | 0.03 | 0.00 | 85 | 1012.5 |
| 20260831005629 | 17 | 107 | 1.6 | 4.8 | 0.00 | 0.03 | 0.00 | 85 | 1012.6 |
| 20260831005529 | 17 | 107 | 1.6 | 4.8 | 0.00 | 0.03 | 0.00 | 85 | 1012.6 |
| 20260831005429 | 17 | 107 | 1.6 | 4.8 | 0.00 | 0.03 | 0.00 | 85 | 1012.6 |
| 20260831005329 | 17 | 107 | 1.6 | 4.8 | 0.00 | 0.03 | 0.00 | 85 | 1012.6 |
| 20260831005301 | 17 | 107 | 1.6 | 4.8 | 0.00 | 0.03 | 0.00 | 85 | 1012.7 |
| 20260831005229 | 17 | 107 | 1.6 | 4.8 | 0.00 | 0.03 | 0.00 | 85 | 1012.7 |
| 20260831005129 | 17 | 107 | 1.6 | 4.8 | 0.00 | 0.03 | 0.00 | 85 | 1012.7 |
| 20260831005029 | 17 | 107 | 1.6 | 4.8 | 0.00 | 0.03 | 0.00 | 85 | 1012.7 |
| 20260831004929 | 17 | 107 | 1.6 | 4.8 | 0.00 | 0.03 | 0.00 | 85 | 1012.7 |
| 20260831004829 | 17 | 107 | 1.6 | 4.8 | 0.00 | 0.03 | 0.00 | 85 | 1012.7 |
| 20260831004801 | 17 | 107 | 0.0 | 4.8 | 0.00 | 0.03 | 0.00 | 85 | 1012.7 |
| 20260831004729 | 17 | 107 | 0.0 | 4.8 | 0.00 | 0.03 | 0.00 | 85 | 1012.7 |
| 20260831004629 | 17 | 107 | 0.0 | 4.8 | 0.00 | 0.03 | 0.00 | 85 | 1012.7 |
| 20260831004529 | 17 | 105 | 0.0 | 3.2 | 0.00 | 0.03 | 0.00 | 85 | 1012.7 |
| 20260831004515 | 17 | 105 | 0.0 | 3.2 | 0.00 | 0.03 | 0.00 | 85 | 1012.7 |
| 20260831004511 | 17 | 106 | 0.0 | 3.2 | 0.00 | 0.03 | 0.00 | 85 | 1012.7 |
| 20260831004228 | 17 | 106 | 0.0 | 3.2 | 0.00 | 0.03 | 0.00 | 85 | 1012.7 |
| 20260831004128 | 17 | 106 | 0.0 | 3.2 | 0.00 | 0.03 | 0.00 | 85 | 1012.7 |
| 20260831004029 | 17 | 106 | 0.0 | 3.2 | 0.00 | 0.03 | 0.00 | 85 | 1012.7 |
| 20260831003929 | 17 | 106 | 0.0 | 3.2 | 0.00 | 0.03 | 0.00 | 85 | 1012.7 |
| 20260831003800 | 17 | 106 | 0.0 | 3.2 | 0.00 | 0.03 | 0.00 | 85 | 1012.7 |
| 20260831003729 | 17 | 106 | 0.0 | 3.2 | 0.00 | 0.03 | 0.00 | 85 | 1012.7 |
| 20260831003629 | 17 | 106 | 1.6 | 3.2 | 0.00 | 0.03 | 0.00 | 85 | 1012.7 |
| 20260831003529 | 17 | 106 | 1.6 | 3.2 | 0.00 | 0.03 | 0.00 | 85 | 1012.7 |
| 20260831003515 | 17 | 106 | 1.6 | 3.2 | 0.00 | 0.03 | 0.00 | 85 | 1012.7 |
| 20260831003511 | 17 | 106 | 1.6 | 3.2 | 0.00 | 0.03 | 0.00 | 85 | 1012.7 |
| 20260831003224 | 17 | 106 | 1.6 | 3.2 | 0.00 | 0.03 | 0.00 | 85 | 1012.7 |
| 20260831003122 | 17 | 106 | 0.0 | 3.2 | 0.00 | 0.03 | 0.00 | 85 | 1012.7 |
| 20260831003022 | 17 | 106 | 1.6 | 3.2 | 0.00 | 0.03 | 0.00 | 85 | 1012.8 |
| 20260831002922 | 17 | 106 | 1.6 | 3.2 | 0.00 | 0.03 | 0.00 | 85 | 1012.8 |
| 20260831002801 | 17 | 106 | 1.6 | 3.2 | 0.00 | 0.03 | 0.00 | 85 | 1012.7 |
| 20260831002721 | 17 | 106 | 1.6 | 3.2 | 0.00 | 0.03 | 0.00 | 85 | 1012.7 |
| 20260831002619 | 17 | 106 | 1.6 | 3.2 | 0.00 | 0.03 | 0.00 | 84 | 1012.7 |
| 20260831002519 | 17 | 106 | 1.6 | 3.2 | 0.00 | 0.03 | 0.00 | 84 | 1012.8 |
| 20260831002515 | 17 | 106 | 1.6 | 3.2 | 0.00 | 0.03 | 0.00 | 84 | 1012.8 |
| 20260831002511 | 17 | 106 | 1.6 | 3.2 | 0.00 | 0.03 | 0.00 | 84 | 1012.8 |
| 20260831002217 | 17 | 106 | 1.6 | 3.2 | 0.00 | 0.03 | 0.00 | 84 | 1012.9 |
| 20260831002117 | 17 | 106 | 1.6 | 3.2 | 0.00 | 0.03 | 0.00 | 84 | 1012.8 |
| 20260831002017 | 17 | 106 | 1.6 | 3.2 | 0.00 | 0.03 | 0.00 | 84 | 1012.8 |
| 20260831001917 | 17 | 106 | 1.6 | 3.2 | 0.00 | 0.03 | 0.00 | 84 | 1012.8 |
| 20260831001801 | 17 | 106 | 1.6 | 3.2 | 0.00 | 0.03 | 0.00 | 84 | 1012.9 |
| 20260831001718 | 17 | 106 | 1.6 | 3.2 | 0.00 | 0.03 | 0.00 | 84 | 1012.9 |
| 20260831001617 | 17 | 106 | 1.6 | 3.2 | 0.00 | 0.03 | 0.00 | 84 | 1012.9 |
| 20260831001514 | 17 | 106 | 1.6 | 3.2 | 0.00 | 0.03 | 0.00 | 84 | 1012.9 |
| 20260831001414 | 17 | 106 | 1.6 | 3.2 | 0.00 | 0.03 | 0.00 | 84 | 1012.9 |
| 20260831001314 | 17 | 105 | 1.6 | 3.2 | 0.00 | 0.03 | 0.00 | 84 | 1012.9 |
| 20260831001300 | 17 | 106 | 1.6 | 3.2 | 0.00 | 0.03 | 0.00 | 84 | 1012.9 |
| 20260831001213 | 17 | 106 | 1.6 | 3.2 | 0.00 | 0.03 | 0.00 | 84 | 1012.9 |
| 20260831001114 | 17 | 106 | 1.6 | 3.2 | 0.00 | 0.03 | 0.00 | 84 | 1012.9 |
| 20260831001013 | 17 | 105 | 1.6 | 3.2 | 0.00 | 0.03 | 0.00 | 84 | 1012.9 |
| 20260831000913 | 17 | 106 | 1.6 | 3.2 | 0.00 | 0.03 | 0.00 | 84 | 1012.9 |
| 20260831000801 | 17 | 105 | 0.0 | 3.2 | 0.00 | 0.03 | 0.00 | 84 | 1013.0 |
| 20260831000713 | 17 | 105 | 0.0 | 3.2 | 0.00 | 0.03 | 0.00 | 84 | 1013.0 |
| 20260831000613 | 17 | 105 | 0.0 | 3.2 | 0.00 | 0.03 | 0.00 | 84 | 1013.0 |
| 20260831000521 | 17 | 105 | 0.0 | 3.2 | 0.00 | 0.03 | 0.00 | 84 | 1013.0 |
| 20260831000517 | 17 | 105 | 0.0 | 3.2 | 0.00 | 0.03 | 0.00 | 84 | 1013.0 |
| 20260831000513 | 17 | 105 | 0.0 | 3.2 | 0.00 | 0.03 | 0.00 | 84 | 1013.0 |
| 20260831000211 | 17 | 105 | 1.6 | 3.2 | 0.00 | 0.03 | 0.00 | 84 | 1013.0 |
| 20260831000112 | 17 | 105 | 1.6 | 3.2 | 0.00 | 0.03 | 0.00 | 84 | 1013.0 |
| 20260831000011 | 17 | 105 | 1.6 | 3.2 | 0.00 | 0.03 | 0.00 | 84 | 1013.0 |
| 20260830235911 | 17 | 105 | 1.6 | 3.2 | 0.00 | 0.03 | 0.00 | 84 | 1013.0 |
| 20260830235801 | 17 | 105 | 1.6 | 3.2 | 0.00 | 0.03 | 0.00 | 83 | 1013.0 |
| 20260830235711 | 17 | 105 | 1.6 | 3.2 | 0.00 | 0.03 | 0.00 | 83 | 1013.0 |
| 20260830235611 | 17 | 105 | 1.6 | 3.2 | 0.00 | 0.03 | 0.00 | 83 | 1013.1 |
| 20260830235511 | 17 | 105 | 1.6 | 3.2 | 0.00 | 0.03 | 0.00 | 83 | 1013.0 |
| 20260830235411 | 17 | 105 | 1.6 | 3.2 | 0.00 | 0.03 | 0.00 | 83 | 1013.0 |
| 20260830235301 | 17 | 105 | 1.6 | 3.2 | 0.00 | 0.03 | 0.00 | 83 | 1013.0 |
| 20260830235211 | 17 | 105 | 1.6 | 3.2 | 0.00 | 0.03 | 0.00 | 83 | 1013.0 |
| 20260830235111 | 17 | 105 | 1.6 | 3.2 | 0.00 | 0.03 | 0.00 | 83 | 1013.0 |
| 20260830235011 | 17 | 105 | 1.6 | 3.2 | 0.00 | 0.03 | 0.00 | 83 | 1013.0 |
| 20260830234911 | 17 | 105 | 1.6 | 3.2 | 0.00 | 0.03 | 0.00 | 83 | 1013.0 |
| 20260830234801 | 17 | 105 | 1.6 | 3.2 | 0.00 | 0.03 | 0.00 | 83 | 1013.0 |
| 20260830234712 | 17 | 105 | 1.6 | 3.2 | 0.00 | 0.03 | 0.00 | 83 | 1013.0 |
| 20260830234612 | 17 | 105 | 1.6 | 3.2 | 0.00 | 0.03 | 0.00 | 83 | 1013.0 |
| 20260830234511 | 17 | 105 | 1.6 | 3.2 | 0.00 | 0.03 | 0.00 | 83 | 1013.0 |
| 20260830234407 | 17 | 105 | 1.6 | 3.2 | 0.00 | 0.03 | 0.00 | 83 | 1013.0 |
| 20260830234301 | 17 | 105 | 1.6 | 3.2 | 0.00 | 0.03 | 0.00 | 83 | 1013.0 |
| 20260830234208 | 17 | 105 | 1.6 | 3.2 | 0.00 | 0.03 | 0.00 | 83 | 1013.0 |
| 20260830234107 | 17 | 105 | 1.6 | 3.2 | 0.00 | 0.03 | 0.00 | 83 | 1013.0 |
| 20260830234020 | 17 | 105 | 1.6 | 3.2 | 0.00 | 0.03 | 0.00 | 83 | 1013.0 |
| 20260830234016 | 17 | 105 | 1.6 | 3.2 | 0.00 | 0.03 | 0.00 | 83 | 1013.0 |
| 20260830234012 | 17 | 105 | 1.6 | 3.2 | 0.00 | 0.03 | 0.00 | 83 | 1013.0 |
| 20260830233708 | 17 | 105 | 1.6 | 3.2 | 0.00 | 0.03 | 0.00 | 83 | 1013.0 |
| 20260830233608 | 17 | 105 | 1.6 | 3.2 | 0.00 | 0.03 | 0.00 | 83 | 1013.0 |
| 20260830233521 | 17 | 105 | 1.6 | 3.2 | 0.00 | 0.03 | 0.00 | 83 | 1013.0 |
| 20260830233517 | 17 | 105 | 1.6 | 3.2 | 0.00 | 0.03 | 0.00 | 83 | 1013.1 |
| 20260830233513 | 17 | 105 | 1.6 | 3.2 | 0.00 | 0.03 | 0.00 | 83 | 1013.1 |
| 20260830233207 | 17 | 105 | 1.6 | 3.2 | 0.00 | 0.03 | 0.00 | 83 | 1013.1 |
| 20260830233108 | 17 | 105 | 1.6 | 3.2 | 0.00 | 0.03 | 0.00 | 83 | 1013.1 |
| 20260830233008 | 17 | 105 | 1.6 | 3.2 | 0.00 | 0.03 | 0.00 | 83 | 1013.1 |
| 20260830232908 | 17 | 106 | 1.6 | 3.2 | 0.00 | 0.03 | 0.00 | 83 | 1013.1 |
| 20260830232807 | 17 | 106 | 1.6 | 3.2 | 0.00 | 0.03 | 0.00 | 83 | 1013.1 |
| 20260830232759 | 17 | 106 | 1.6 | 3.2 | 0.00 | 0.03 | 0.00 | 83 | 1013.1 |
| 20260830232707 | 17 | 106 | 1.6 | 6.4 | 0.00 | 0.03 | 0.00 | 83 | 1013.1 |
| 20260830232607 | 17 | 106 | 0.0 | 6.4 | 0.00 | 0.03 | 0.00 | 83 | 1013.1 |
| 20260830232503 | 17 | 106 | 0.0 | 6.4 | 0.00 | 0.03 | 0.00 | 83 | 1013.1 |
| 20260830232403 | 17 | 106 | 0.0 | 6.4 | 0.00 | 0.03 | 0.00 | 83 | 1013.1 |
| 20260830232306 | 17 | 106 | 1.6 | 6.4 | 0.00 | 0.03 | 0.00 | 83 | 1013.1 |
| 20260830232301 | 17 | 106 | 1.6 | 6.4 | 0.00 | 0.03 | 0.00 | 83 | 1013.1 |
| 20260830232204 | 17 | 106 | 1.6 | 6.4 | 0.00 | 0.03 | 0.00 | 83 | 1013.1 |
| 20260830232103 | 17 | 106 | 1.6 | 6.4 | 0.00 | 0.03 | 0.00 | 83 | 1013.1 |
| 20260830232004 | 17 | 106 | 1.6 | 6.4 | 0.00 | 0.03 | 0.00 | 83 | 1013.2 |
| 20260830231904 | 17 | 107 | 1.6 | 6.4 | 0.00 | 0.03 | 0.00 | 83 | 1013.2 |
| 20260830231804 | 17 | 107 | 1.6 | 6.4 | 0.00 | 0.03 | 0.00 | 83 | 1013.2 |
| 20260830231759 | 17 | 107 | 1.6 | 6.4 | 0.00 | 0.03 | 0.00 | 83 | 1013.2 |
| 20260830231704 | 17 | 123 | 1.6 | 4.8 | 0.00 | 0.03 | 0.00 | 83 | 1013.2 |
| 20260830231604 | 17 | 124 | 1.6 | 4.8 | 0.00 | 0.03 | 0.00 | 83 | 1013.2 |
| 20260830231504 | 17 | 123 | 1.6 | 4.8 | 0.00 | 0.03 | 0.00 | 83 | 1013.2 |
| 20260830231404 | 17 | 124 | 1.6 | 4.8 | 0.00 | 0.03 | 0.00 | 83 | 1013.2 |
| 20260830231303 | 17 | 124 | 1.6 | 4.8 | 0.00 | 0.03 | 0.00 | 83 | 1013.2 |
| 20260830231259 | 17 | 124 | 1.6 | 4.8 | 0.00 | 0.03 | 0.00 | 83 | 1013.2 |
| 20260830231203 | 17 | 125 | 1.6 | 4.8 | 0.00 | 0.03 | 0.00 | 84 | 1013.2 |
| 20260830231103 | 17 | 125 | 1.6 | 4.8 | 0.00 | 0.03 | 0.00 | 84 | 1013.2 |
| 20260830231003 | 17 | 125 | 1.6 | 4.8 | 0.00 | 0.03 | 0.00 | 83 | 1013.2 |
| 20260830230903 | 17 | 125 | 1.6 | 4.8 | 0.00 | 0.03 | 0.00 | 84 | 1013.2 |
| 20260830230804 | 17 | 125 | 1.6 | 4.8 | 0.00 | 0.03 | 0.00 | 84 | 1013.2 |
| 20260830230800 | 17 | 125 | 1.6 | 4.8 | 0.00 | 0.03 | 0.00 | 84 | 1013.2 |
| 20260830230704 | 17 | 126 | 1.6 | 4.8 | 0.00 | 0.03 | 0.00 | 84 | 1013.2 |
| 20260830230603 | 17 | 127 | 1.6 | 4.8 | 0.00 | 0.03 | 0.00 | 83 | 1013.2 |
| 20260830230501 | 17 | 127 | 1.6 | 4.8 | 0.00 | 0.03 | 0.00 | 84 | 1013.2 |
| 20260830230401 | 17 | 127 | 1.6 | 4.8 | 0.00 | 0.03 | 0.00 | 84 | 1013.3 |
| 20260830230304 | 17 | 127 | 1.6 | 3.2 | 0.00 | 0.03 | 0.00 | 84 | 1013.3 |
| 20260830230300 | 17 | 127 | 1.6 | 3.2 | 0.00 | 0.03 | 0.00 | 84 | 1013.3 |
| 20260830230202 | 17 | 128 | 1.6 | 3.2 | 0.00 | 0.03 | 0.00 | 84 | 1013.3 |
| 20260830230002 | 17 | 128 | 1.6 | 3.2 | 0.00 | 0.03 | 0.00 | 84 | 1013.3 |
| 20260830225902 | 17 | 128 | 1.6 | 3.2 | 0.00 | 0.03 | 0.00 | 84 | 1013.3 |
| 20260830225803 | 17 | 128 | 1.6 | 3.2 | 0.00 | 0.03 | 0.00 | 84 | 1013.4 |
| 20260830225759 | 17 | 128 | 1.6 | 3.2 | 0.00 | 0.03 | 0.00 | 84 | 1013.4 |
| 20260830225702 | 17 | 128 | 0.0 | 3.2 | 0.00 | 0.03 | 0.00 | 84 | 1013.4 |
| 20260830225601 | 17 | 128 | 0.0 | 3.2 | 0.00 | 0.03 | 0.00 | 84 | 1013.4 |
| 20260830225501 | 17 | 128 | 0.0 | 3.2 | 0.00 | 0.03 | 0.00 | 84 | 1013.4 |
| 20260830225401 | 17 | 128 | 0.0 | 3.2 | 0.00 | 0.03 | 0.00 | 84 | 1013.4 |
| 20260830225305 | 17 | 128 | 0.0 | 3.2 | 0.00 | 0.03 | 0.00 | 84 | 1013.4 |
| 20260830225300 | 17 | 128 | 0.0 | 3.2 | 0.00 | 0.03 | 0.00 | 84 | 1013.4 |
| 20260830225201 | 17 | 128 | 0.0 | 4.8 | 0.00 | 0.03 | 0.00 | 84 | 1013.3 |
| 20260830225101 | 17 | 128 | 0.0 | 4.8 | 0.00 | 0.03 | 0.00 | 84 | 1013.4 |
| 20260830225001 | 17 | 128 | 1.6 | 4.8 | 0.00 | 0.03 | 0.00 | 84 | 1013.4 |
| 20260830224901 | 17 | 128 | 1.6 | 4.8 | 0.00 | 0.03 | 0.00 | 84 | 1013.4 |
| 20260830224804 | 17 | 128 | 1.6 | 4.8 | 0.00 | 0.03 | 0.00 | 84 | 1013.4 |
| 20260830224759 | 17 | 128 | 1.6 | 4.8 | 0.00 | 0.03 | 0.00 | 84 | 1013.4 |
| 20260830224700 | 17 | 128 | 1.6 | 4.8 | 0.00 | 0.03 | 0.00 | 83 | 1013.4 |
| 20260830224601 | 17 | 128 | 1.6 | 4.8 | 0.00 | 0.03 | 0.00 | 83 | 1013.4 |
| 20260830224501 | 17 | 128 | 1.6 | 4.8 | 0.00 | 0.03 | 0.00 | 83 | 1013.4 |
| 20260830224401 | 17 | 128 | 1.6 | 4.8 | 0.00 | 0.03 | 0.00 | 83 | 1013.4 |
| 20260830224301 | 17 | 129 | 1.6 | 4.8 | 0.00 | 0.03 | 0.00 | 83 | 1013.4 |
| 20260830224252 | 17 | 129 | 1.6 | 4.8 | 0.00 | 0.03 | 0.00 | 83 | 1013.4 |
| 20260830224200 | 17 | 129 | 1.6 | 4.8 | 0.00 | 0.03 | 0.00 | 83 | 1013.4 |
| 20260830224100 | 17 | 131 | 1.6 | 4.8 | 0.00 | 0.03 | 0.00 | 83 | 1013.4 |
| 20260830224014 | 17 | 132 | 1.6 | 4.8 | 0.00 | 0.03 | 0.00 | 83 | 1013.3 |
| 20260830224005 | 17 | 131 | 1.6 | 4.8 | 0.00 | 0.03 | 0.00 | 83 | 1013.4 |
| 20260830224001 | 17 | 131 | 1.6 | 4.8 | 0.00 | 0.03 | 0.00 | 83 | 1013.3 |
| 20260830223957 | 17 | 132 | 1.6 | 4.8 | 0.00 | 0.03 | 0.00 | 83 | 1013.3 |
| 20260830223700 | 17 | 132 | 1.6 | 4.8 | 0.00 | 0.03 | 0.00 | 83 | 1013.3 |
| 20260830223604 | 17 | 132 | 1.6 | 4.8 | 0.00 | 0.03 | 0.00 | 83 | 1013.3 |
| 20260830223501 | 18 | 132 | 1.6 | 4.8 | 0.00 | 0.03 | 0.00 | 83 | 1013.4 |
| 20260830223401 | 18 | 134 | 1.6 | 4.8 | 0.00 | 0.03 | 0.00 | 83 | 1013.4 |
| 20260830223301 | 18 | 136 | 1.6 | 4.8 | 0.00 | 0.03 | 0.00 | 82 | 1013.4 |
| 20260830223240 | 18 | 136 | 1.6 | 4.8 | 0.00 | 0.03 | 0.00 | 82 | 1013.4 |
| 20260830223202 | 18 | 136 | 1.6 | 4.8 | 0.00 | 0.03 | 0.00 | 82 | 1013.4 |
| 20260830223102 | 18 | 136 | 0.0 | 4.8 | 0.00 | 0.03 | 0.00 | 82 | 1013.4 |
| 20260830223005 | 18 | 136 | 0.0 | 3.2 | 0.00 | 0.03 | 0.00 | 83 | 1013.5 |
| 20260830223001 | 18 | 137 | 0.0 | 3.2 | 0.00 | 0.03 | 0.00 | 82 | 1013.4 |
| 20260830222957 | 18 | 136 | 0.0 | 3.2 | 0.00 | 0.03 | 0.00 | 82 | 1013.4 |
| 20260830222953 | 18 | 136 | 0.0 | 3.2 | 0.00 | 0.03 | 0.00 | 83 | 1013.5 |
| 20260830222701 | 18 | 136 | 0.0 | 3.2 | 0.00 | 0.03 | 0.00 | 83 | 1013.5 |
| 20260830222601 | 18 | 136 | 0.0 | 3.2 | 0.00 | 0.03 | 0.00 | 82 | 1013.5 |
| 20260830222501 | 18 | 136 | 0.0 | 3.2 | 0.00 | 0.03 | 0.00 | 82 | 1013.5 |
| 20260830222401 | 18 | 136 | 0.0 | 3.2 | 0.00 | 0.03 | 0.00 | 82 | 1013.5 |
| 20260830222301 | 18 | 136 | 0.0 | 3.2 | 0.00 | 0.03 | 0.00 | 82 | 1013.5 |
| 20260830222228 | 18 | 136 | 1.6 | 4.8 | 0.00 | 0.03 | 0.00 | 82 | 1013.6 |
| 20260830222224 | 18 | 136 | 0.0 | 3.2 | 0.00 | 0.03 | 0.00 | 82 | 1013.5 |
| 20260830222220 | 18 | 136 | 0.0 | 3.2 | 0.00 | 0.03 | 0.00 | 82 | 1013.5 |
| 20260830222212 | 18 | 136 | 0.0 | 3.2 | 0.00 | 0.03 | 0.00 | 82 | 1013.5 |
| 20260830221953 | 18 | 136 | 0.0 | 3.2 | 0.00 | 0.03 | 0.00 | 82 | 1013.5 |
| 20260830221949 | 18 | 136 | 1.6 | 4.8 | 0.00 | 0.03 | 0.00 | 82 | 1013.6 |
| 20260830221702 | 18 | 136 | 1.6 | 4.8 | 0.00 | 0.03 | 0.00 | 82 | 1013.6 |
| 20260830221600 | 18 | 136 | 1.6 | 4.8 | 0.00 | 0.03 | 0.00 | 82 | 1013.6 |
| 20260830221500 | 18 | 136 | 1.6 | 4.8 | 0.00 | 0.03 | 0.00 | 82 | 1013.6 |
| 20260830221359 | 18 | 136 | 1.6 | 4.8 | 0.00 | 0.03 | 0.00 | 82 | 1013.6 |
| 20260830221239 | 18 | 136 | 1.6 | 4.8 | 0.00 | 0.03 | 0.00 | 82 | 1013.6 |
| 20260830221227 | 18 | 137 | 1.6 | 3.2 | 0.00 | 0.03 | 0.00 | 82 | 1013.7 |
| 20260830221223 | 18 | 136 | 1.6 | 4.8 | 0.00 | 0.03 | 0.00 | 82 | 1013.6 |
| 20260830221218 | 18 | 136 | 1.6 | 4.8 | 0.00 | 0.03 | 0.00 | 82 | 1013.6 |
| 20260830220957 | 18 | 136 | 1.6 | 4.8 | 0.00 | 0.03 | 0.00 | 82 | 1013.6 |
| 20260830220953 | 18 | 136 | 1.6 | 4.8 | 0.00 | 0.03 | 0.00 | 82 | 1013.7 |
| 20260830220949 | 18 | 137 | 1.6 | 3.2 | 0.00 | 0.03 | 0.00 | 82 | 1013.7 |
| 20260830220656 | 18 | 138 | 1.6 | 3.2 | 0.00 | 0.03 | 0.00 | 82 | 1013.7 |
| 20260830220556 | 18 | 138 | 1.6 | 3.2 | 0.00 | 0.03 | 0.00 | 82 | 1013.7 |
| 20260830220458 | 18 | 138 | 1.6 | 3.2 | 0.00 | 0.03 | 0.00 | 82 | 1013.7 |
| 20260830220454 | 18 | 138 | 1.6 | 3.2 | 0.00 | 0.03 | 0.00 | 82 | 1013.7 |
| 20260830220450 | 18 | 138 | 1.6 | 3.2 | 0.00 | 0.03 | 0.00 | 82 | 1013.7 |
| 20260830220155 | 18 | 138 | 0.0 | 3.2 | 0.00 | 0.03 | 0.00 | 82 | 1013.7 |
| 20260830220052 | 18 | 138 | 0.0 | 3.2 | 0.00 | 0.03 | 0.00 | 83 | 1013.7 |
| 20260830215952 | 18 | 138 | 0.0 | 3.2 | 0.00 | 0.03 | 0.03 | 82 | 1013.8 |
| 20260830215852 | 18 | 138 | 0.0 | 3.2 | 0.00 | 0.03 | 0.03 | 82 | 1013.7 |
| 20260830215737 | 18 | 138 | 0.0 | 3.2 | 0.00 | 0.03 | 0.03 | 82 | 1013.7 |
| 20260830215648 | 18 | 138 | 0.0 | 3.2 | 0.00 | 0.03 | 0.03 | 82 | 1013.8 |
| 20260830215548 | 18 | 138 | 0.0 | 3.2 | 0.00 | 0.03 | 0.03 | 82 | 1013.8 |
| 20260830215448 | 18 | 138 | 0.0 | 3.2 | 0.00 | 0.03 | 0.03 | 82 | 1013.9 |
| 20260830215348 | 18 | 138 | 0.0 | 3.2 | 0.00 | 0.03 | 0.03 | 82 | 1013.9 |
| 20260830215237 | 18 | 138 | 0.0 | 3.2 | 0.00 | 0.03 | 0.03 | 82 | 1013.9 |
| 20260830215147 | 18 | 138 | 1.6 | 4.8 | 0.00 | 0.03 | 0.03 | 82 | 1013.8 |
| 20260830215047 | 18 | 138 | 1.6 | 4.8 | 0.00 | 0.03 | 0.03 | 82 | 1013.9 |
| 20260830214955 | 18 | 138 | 1.6 | 4.8 | 0.00 | 0.03 | 0.03 | 82 | 1013.9 |
| 20260830214951 | 18 | 138 | 1.6 | 4.8 | 0.00 | 0.03 | 0.03 | 82 | 1013.9 |
| 20260830214947 | 18 | 138 | 1.6 | 4.8 | 0.00 | 0.03 | 0.03 | 82 | 1013.8 |
| 20260830214640 | 18 | 138 | 1.6 | 4.8 | 0.00 | 0.03 | 0.03 | 82 | 1013.8 |
| 20260830214541 | 18 | 138 | 1.6 | 4.8 | 0.00 | 0.03 | 0.03 | 82 | 1013.8 |
| 20260830214459 | 18 | 138 | 1.6 | 4.8 | 0.00 | 0.03 | 0.03 | 82 | 1013.8 |
| 20260830214454 | 18 | 138 | 1.6 | 4.8 | 0.00 | 0.03 | 0.03 | 82 | 1013.9 |
| 20260830214450 | 18 | 138 | 1.6 | 4.8 | 0.00 | 0.03 | 0.03 | 82 | 1013.9 |
| 20260830214134 | 18 | 138 | 1.6 | 4.8 | 0.00 | 0.03 | 0.03 | 82 | 1013.9 |
| 20260830214038 | 18 | 140 | 1.6 | 3.2 | 0.00 | 0.03 | 0.03 | 83 | 1013.9 |
| 20260830213932 | 18 | 140 | 1.6 | 3.2 | 0.00 | 0.03 | 0.03 | 82 | 1013.9 |
| 20260830213830 | 18 | 140 | 1.6 | 3.2 | 0.00 | 0.03 | 0.03 | 82 | 1013.9 |
| 20260830213730 | 18 | 140 | 1.6 | 3.2 | 0.00 | 0.03 | 0.03 | 82 | 1013.9 |
| 20260830213630 | 18 | 140 | 1.6 | 3.2 | 0.00 | 0.03 | 0.03 | 82 | 1013.9 |
| 20260830213529 | 18 | 140 | 1.6 | 3.2 | 0.00 | 0.03 | 0.03 | 82 | 1013.9 |
| 20260830213430 | 18 | 140 | 1.6 | 3.2 | 0.00 | 0.03 | 0.03 | 82 | 1013.9 |
| 20260830213330 | 18 | 140 | 1.6 | 3.2 | 0.00 | 0.03 | 0.03 | 82 | 1013.9 |
| 20260830213229 | 18 | 140 | 1.6 | 3.2 | 0.00 | 0.03 | 0.03 | 82 | 1013.9 |
| 20260830213129 | 18 | 140 | 1.6 | 3.2 | 0.00 | 0.03 | 0.03 | 82 | 1013.8 |
| 20260830213033 | 18 | 140 | 1.6 | 3.2 | 0.00 | 0.03 | 0.03 | 82 | 1013.8 |
| 20260830213003 | 18 | 140 | 0.0 | 3.2 | 0.00 | 0.03 | 0.03 | 82 | 1013.9 |
| 20260830212949 | 18 | 140 | 1.6 | 3.2 | 0.00 | 0.03 | 0.03 | 82 | 1013.9 |
| 20260830212944 | 18 | 140 | 1.6 | 3.2 | 0.00 | 0.03 | 0.03 | 82 | 1013.9 |
| 20260830212729 | 18 | 140 | 0.0 | 3.2 | 0.00 | 0.03 | 0.03 | 81 | 1013.9 |
| 20260830212628 | 18 | 140 | 0.0 | 3.2 | 0.00 | 0.03 | 0.03 | 81 | 1013.9 |
| 20260830212532 | 18 | 140 | 0.0 | 3.2 | 0.00 | 0.03 | 0.03 | 81 | 1013.8 |
| 20260830212429 | 18 | 140 | 0.0 | 3.2 | 0.00 | 0.03 | 0.03 | 81 | 1013.9 |
| 20260830212328 | 18 | 140 | 0.0 | 3.2 | 0.00 | 0.03 | 0.03 | 82 | 1013.9 |
| 20260830212229 | 18 | 140 | 0.0 | 1.6 | 0.00 | 0.03 | 0.03 | 82 | 1013.9 |
| 20260830212129 | 18 | 140 | 0.0 | 3.2 | 0.00 | 0.03 | 0.03 | 81 | 1013.9 |
| 20260830212037 | 18 | 140 | 0.0 | 3.2 | 0.00 | 0.03 | 0.03 | 81 | 1013.9 |
| 20260830211952 | 18 | 140 | 0.0 | 3.2 | 0.00 | 0.03 | 0.03 | 81 | 1013.9 |
| 20260830211948 | 18 | 140 | 0.0 | 3.2 | 0.00 | 0.03 | 0.03 | 81 | 1013.9 |
| 20260830211944 | 18 | 140 | 0.0 | 3.2 | 0.00 | 0.03 | 0.03 | 81 | 1013.9 |
| 20260830211728 | 18 | 140 | 0.0 | 3.2 | 0.00 | 0.03 | 0.03 | 81 | 1013.9 |
| 20260830211628 | 18 | 140 | 0.0 | 3.2 | 0.00 | 0.03 | 0.03 | 81 | 1013.9 |
| 20260830211528 | 18 | 140 | 1.6 | 3.2 | 0.00 | 0.03 | 0.03 | 81 | 1013.9 |
| 20260830211429 | 18 | 140 | 1.6 | 3.2 | 0.00 | 0.03 | 0.03 | 81 | 1013.9 |
| 20260830211324 | 18 | 140 | 1.6 | 3.2 | 0.00 | 0.03 | 0.03 | 81 | 1013.9 |
| 20260830211225 | 18 | 140 | 1.6 | 3.2 | 0.00 | 0.03 | 0.03 | 81 | 1013.9 |
| 20260830211124 | 18 | 140 | 1.6 | 3.2 | 0.00 | 0.03 | 0.03 | 81 | 1013.9 |
| 20260830211025 | 18 | 140 | 1.6 | 3.2 | 0.00 | 0.03 | 0.03 | 82 | 1013.9 |
| 20260830210924 | 18 | 140 | 1.6 | 3.2 | 0.00 | 0.03 | 0.03 | 81 | 1013.9 |
| 20260830210820 | 18 | 140 | 1.6 | 3.2 | 0.00 | 0.03 | 0.03 | 81 | 1013.9 |
| 20260830210720 | 18 | 140 | 1.6 | 3.2 | 0.00 | 0.03 | 0.03 | 81 | 1013.9 |
| 20260830210620 | 18 | 141 | 1.6 | 3.2 | 0.00 | 0.03 | 0.03 | 81 | 1013.9 |
| 20260830210524 | 18 | 141 | 1.6 | 3.2 | 0.00 | 0.03 | 0.03 | 81 | 1014.1 |
| 20260830210420 | 18 | 141 | 1.6 | 3.2 | 0.00 | 0.03 | 0.03 | 81 | 1013.9 |
| 20260830210320 | 18 | 141 | 1.6 | 4.8 | 0.00 | 0.03 | 0.03 | 81 | 1014.1 |
| 20260830210223 | 18 | 141 | 1.6 | 6.4 | 0.00 | 0.03 | 0.03 | 81 | 1014.1 |
| 20260830210219 | 18 | 141 | 1.6 | 6.4 | 0.00 | 0.03 | 0.03 | 81 | 1013.9 |
| 20260830210207 | 18 | 141 | 1.6 | 6.4 | 0.00 | 0.03 | 0.03 | 81 | 1014.1 |
| 20260830210203 | 18 | 141 | 1.6 | 6.4 | 0.00 | 0.03 | 0.03 | 81 | 1013.9 |
| 20260830205944 | 18 | 141 | 1.6 | 6.4 | 0.00 | 0.03 | 0.03 | 81 | 1013.9 |
| 20260830205940 | 18 | 141 | 1.6 | 6.4 | 0.00 | 0.03 | 0.03 | 81 | 1013.9 |
| 20260830205714 | 18 | 141 | 1.6 | 6.4 | 0.00 | 0.03 | 0.03 | 81 | 1013.9 |
| 20260830205614 | 18 | 141 | 1.6 | 6.4 | 0.00 | 0.03 | 0.03 | 81 | 1013.9 |
| 20260830205512 | 18 | 141 | 1.6 | 6.4 | 0.00 | 0.03 | 0.03 | 81 | 1013.9 |
| 20260830205411 | 18 | 141 | 1.6 | 6.4 | 0.00 | 0.03 | 0.03 | 81 | 1013.9 |
| 20260830205310 | 18 | 142 | 1.6 | 6.4 | 0.00 | 0.03 | 0.03 | 81 | 1013.9 |
| 20260830205209 | 18 | 142 | 1.6 | 4.8 | 0.00 | 0.03 | 0.03 | 81 | 1013.9 |
| 20260830205108 | 18 | 142 | 1.6 | 4.8 | 0.00 | 0.03 | 0.03 | 80 | 1013.9 |
| 20260830205006 | 18 | 142 | 1.6 | 4.8 | 0.00 | 0.03 | 0.03 | 80 | 1014.1 |
| 20260830204906 | 18 | 142 | 0.0 | 4.8 | 0.00 | 0.03 | 0.03 | 81 | 1014.1 |
| 20260830204807 | 18 | 142 | 0.0 | 3.2 | 0.00 | 0.03 | 0.03 | 81 | 1014.1 |
| 20260830204706 | 18 | 142 | 0.0 | 3.2 | 0.00 | 0.03 | 0.03 | 81 | 1014.1 |
| 20260830204606 | 18 | 142 | 0.0 | 3.2 | 0.00 | 0.03 | 0.03 | 81 | 1014.1 |
| 20260830204505 | 18 | 142 | 0.0 | 3.2 | 0.00 | 0.03 | 0.03 | 81 | 1014.1 |
| 20260830204404 | 18 | 142 | 0.0 | 3.2 | 0.00 | 0.03 | 0.03 | 81 | 1014.1 |
| 20260830204304 | 18 | 142 | 0.0 | 3.2 | 0.00 | 0.03 | 0.03 | 81 | 1014.1 |
| 20260830204204 | 18 | 142 | 0.0 | 3.2 | 0.00 | 0.03 | 0.03 | 80 | 1014.1 |
| 20260830204104 | 18 | 142 | 0.0 | 3.2 | 0.00 | 0.03 | 0.03 | 80 | 1013.9 |
| 20260830204003 | 18 | 142 | 0.0 | 3.2 | 0.00 | 0.03 | 0.03 | 80 | 1014.1 |
| 20260830203902 | 18 | 142 | 0.0 | 3.2 | 0.00 | 0.03 | 0.03 | 80 | 1014.1 |
| 20260830203801 | 18 | 142 | 0.0 | 3.2 | 0.00 | 0.03 | 0.03 | 80 | 1014.1 |
| 20260830203702 | 18 | 142 | 0.0 | 3.2 | 0.00 | 0.03 | 0.03 | 80 | 1014.1 |
| 20260830203602 | 18 | 142 | 0.0 | 3.2 | 0.00 | 0.03 | 0.03 | 80 | 1014.1 |
| 20260830203501 | 18 | 142 | 0.0 | 3.2 | 0.00 | 0.03 | 0.03 | 80 | 1014.1 |
| 20260830203401 | 18 | 142 | 0.0 | 3.2 | 0.00 | 0.03 | 0.03 | 80 | 1014.1 |
| 20260830203302 | 18 | 142 | 0.0 | 3.2 | 0.00 | 0.03 | 0.03 | 79 | 1014.1 |
| 20260830203201 | 18 | 142 | 0.0 | 3.2 | 0.00 | 0.03 | 0.03 | 79 | 1014.1 |
| 20260830203101 | 18 | 142 | 0.0 | 3.2 | 0.00 | 0.03 | 0.03 | 79 | 1014.1 |
| 20260830203002 | 18 | 142 | 0.0 | 3.2 | 0.00 | 0.03 | 0.03 | 79 | 1014.1 |
| 20260830202901 | 18 | 142 | 0.0 | 1.6 | 0.00 | 0.03 | 0.03 | 79 | 1014.1 |
| 20260830202801 | 18 | 142 | 0.0 | 4.8 | 0.00 | 0.03 | 0.03 | 79 | 1014.2 |
| 20260830202729 | 18 | 142 | 0.0 | 4.8 | 0.00 | 0.03 | 0.03 | 79 | 1014.2 |
| 20260830202701 | 18 | 142 | 1.6 | 4.8 | 0.00 | 0.03 | 0.03 | 79 | 1014.2 |
| 20260830202601 | 18 | 142 | 1.6 | 8.0 | 0.00 | 0.03 | 0.03 | 79 | 1014.1 |
| 20260830202501 | 18 | 142 | 1.6 | 8.0 | 0.00 | 0.03 | 0.03 | 79 | 1014.1 |
| 20260830202404 | 18 | 142 | 1.6 | 8.0 | 0.00 | 0.03 | 0.03 | 79 | 1014.1 |
| 20260830202301 | 18 | 142 | 1.6 | 8.0 | 0.00 | 0.03 | 0.03 | 79 | 1014.1 |
| 20260830202201 | 18 | 142 | 1.6 | 8.0 | 0.00 | 0.03 | 0.03 | 78 | 1014.1 |
| 20260830202101 | 18 | 142 | 1.6 | 8.0 | 0.00 | 0.03 | 0.03 | 78 | 1014.1 |
| 20260830202006 | 18 | 142 | 1.6 | 8.0 | 0.00 | 0.03 | 0.03 | 79 | 1013.9 |
| 20260830201901 | 18 | 142 | 1.6 | 8.0 | 0.00 | 0.03 | 0.03 | 79 | 1013.9 |
| 20260830201801 | 18 | 142 | 1.6 | 8.0 | 0.00 | 0.03 | 0.03 | 79 | 1013.9 |
| 20260830201728 | 18 | 142 | 1.6 | 8.0 | 0.00 | 0.03 | 0.03 | 79 | 1013.9 |
| 20260830201701 | 18 | 144 | 1.6 | 8.0 | 0.00 | 0.03 | 0.03 | 79 | 1013.9 |
| 20260830201600 | 18 | 198 | 1.6 | 3.2 | 0.00 | 0.03 | 0.03 | 79 | 1014.1 |
| 20260830201504 | 18 | 201 | 1.6 | 3.2 | 0.00 | 0.03 | 0.03 | 79 | 1014.1 |
| 20260830201400 | 18 | 201 | 1.6 | 3.2 | 0.00 | 0.03 | 0.03 | 79 | 1014.1 |
| 20260830201229 | 18 | 263 | 1.6 | 3.2 | 0.00 | 0.03 | 0.03 | 79 | 1013.9 |
| 20260830201158 | 18 | 263 | 1.6 | 3.2 | 0.00 | 0.03 | 0.03 | 79 | 1013.9 |
| 20260830201056 | 18 | 263 | 1.6 | 3.2 | 0.00 | 0.03 | 0.03 | 78 | 1014.1 |
| 20260830200958 | 18 | 263 | 1.6 | 3.2 | 0.00 | 0.03 | 0.03 | 78 | 1013.9 |
| 20260830200852 | 18 | 263 | 0.0 | 3.2 | 0.00 | 0.03 | 0.03 | 78 | 1013.9 |
| 20260830200752 | 18 | 266 | 0.0 | 3.2 | 0.00 | 0.03 | 0.03 | 78 | 1013.9 |
| 20260830200730 | 18 | 267 | 0.0 | 3.2 | 0.00 | 0.03 | 0.03 | 78 | 1013.9 |
| 20260830200652 | 18 | 267 | 0.0 | 3.2 | 0.00 | 0.03 | 0.03 | 78 | 1013.9 |
| 20260830200552 | 18 | 267 | 0.0 | 3.2 | 0.00 | 0.03 | 0.03 | 78 | 1014.1 |
| 20260830200455 | 19 | 267 | 0.0 | 3.2 | 0.00 | 0.03 | 0.03 | 78 | 1014.1 |
| 20260830200443 | 19 | 267 | 0.0 | 1.6 | 0.00 | 0.03 | 0.03 | 77 | 1014.1 |
| 20260830200439 | 19 | 267 | 0.0 | 3.2 | 0.00 | 0.03 | 0.03 | 77 | 1014.1 |
| 20260830200431 | 19 | 267 | 0.0 | 1.6 | 0.00 | 0.03 | 0.03 | 78 | 1014.1 |
| 20260830200211 | 19 | 267 | 0.0 | 1.6 | 0.00 | 0.03 | 0.03 | 77 | 1014.1 |
| 20260830200207 | 19 | 267 | 0.0 | 1.6 | 0.00 | 0.03 | 0.03 | 77 | 1013.9 |
| 20260830195952 | 19 | 267 | 0.0 | 1.6 | 0.00 | 0.03 | 0.03 | 77 | 1014.1 |
| 20260830195944 | 19 | 267 | 0.0 | 1.6 | 0.00 | 0.03 | 0.03 | 77 | 1014.1 |
| 20260830195940 | 19 | 267 | 0.0 | 1.6 | 0.00 | 0.03 | 0.03 | 77 | 1014.1 |
| 20260830195644 | 19 | 267 | 0.0 | 1.6 | 0.00 | 0.03 | 0.03 | 76 | 1014.1 |
| 20260830195542 | 19 | 267 | 0.0 | 1.6 | 0.00 | 0.03 | 0.03 | 76 | 1014.1 |
| 20260830195442 | 19 | 267 | 0.0 | 1.6 | 0.00 | 0.03 | 0.03 | 76 | 1014.2 |
| 20260830195340 | 19 | 267 | 0.0 | 1.6 | 0.00 | 0.03 | 0.03 | 76 | 1014.1 |
| 20260830195228 | 19 | 267 | 0.0 | 1.6 | 0.00 | 0.03 | 0.03 | 76 | 1014.2 |
| 20260830195138 | 19 | 267 | 0.0 | 3.2 | 0.00 | 0.03 | 0.03 | 76 | 1014.2 |
| 20260830195035 | 19 | 267 | 1.6 | 4.8 | 0.00 | 0.03 | 0.03 | 76 | 1014.1 |
| 20260830194936 | 19 | 267 | 1.6 | 4.8 | 0.00 | 0.03 | 0.03 | 76 | 1014.2 |
| 20260830194836 | 19 | 267 | 1.6 | 4.8 | 0.00 | 0.03 | 0.03 | 76 | 1014.2 |
| 20260830194728 | 19 | 267 | 1.6 | 4.8 | 0.00 | 0.03 | 0.03 | 76 | 1014.2 |
| 20260830194635 | 19 | 267 | 1.6 | 4.8 | 0.00 | 0.03 | 0.03 | 76 | 1014.2 |
| 20260830194534 | 19 | 267 | 1.6 | 4.8 | 0.00 | 0.03 | 0.03 | 76 | 1014.2 |
| 20260830194434 | 19 | 267 | 1.6 | 4.8 | 0.00 | 0.03 | 0.03 | 76 | 1014.2 |
| 20260830194331 | 19 | 267 | 1.6 | 4.8 | 0.00 | 0.03 | 0.03 | 76 | 1014.3 |
| 20260830194228 | 19 | 267 | 1.6 | 4.8 | 0.00 | 0.03 | 0.03 | 75 | 1014.2 |
| 20260830194130 | 19 | 267 | 1.6 | 4.8 | 0.00 | 0.03 | 0.03 | 75 | 1014.3 |
| 20260830194029 | 19 | 267 | 1.6 | 4.8 | 0.00 | 0.03 | 0.03 | 75 | 1014.3 |
| 20260830193929 | 19 | 279 | 0.0 | 3.2 | 0.00 | 0.03 | 0.03 | 75 | 1014.2 |
| 20260830193829 | 19 | 279 | 1.6 | 3.2 | 0.00 | 0.03 | 0.03 | 75 | 1014.2 |
| 20260830193729 | 20 | 279 | 1.6 | 3.2 | 0.00 | 0.03 | 0.03 | 75 | 1014.2 |
| 20260830193629 | 20 | 279 | 0.0 | 3.2 | 0.00 | 0.03 | 0.03 | 75 | 1014.2 |
| 20260830193529 | 20 | 279 | 0.0 | 3.2 | 0.00 | 0.03 | 0.03 | 75 | 1014.2 |
| 20260830193449 | 20 | 279 | 0.0 | 1.6 | 0.00 | 0.03 | 0.03 | 75 | 1014.2 |
| 20260830193445 | 20 | 279 | 0.0 | 1.6 | 0.00 | 0.03 | 0.03 | 75 | 1014.2 |
| 20260830193441 | 20 | 279 | 0.0 | 1.6 | 0.00 | 0.03 | 0.03 | 75 | 1014.2 |
| 20260830193124 | 20 | 279 | 0.0 | 3.2 | 0.00 | 0.03 | 0.03 | 74 | 1014.2 |
| 20260830193024 | 20 | 279 | 0.0 | 3.2 | 0.00 | 0.03 | 0.03 | 74 | 1014.1 |
| 20260830192923 | 20 | 279 | 0.0 | 3.2 | 0.00 | 0.03 | 0.03 | 74 | 1014.1 |
| 20260830192824 | 20 | 279 | 0.0 | 3.2 | 0.00 | 0.03 | 0.03 | 74 | 1014.1 |
| 20260830192723 | 20 | 279 | 1.6 | 3.2 | 0.00 | 0.03 | 0.03 | 74 | 1014.2 |
| 20260830192619 | 20 | 279 | 1.6 | 6.4 | 0.00 | 0.03 | 0.03 | 74 | 1014.2 |
| 20260830192518 | 20 | 279 | 1.6 | 6.4 | 0.00 | 0.03 | 0.03 | 74 | 1014.2 |
| 20260830192418 | 20 | 279 | 1.6 | 6.4 | 0.00 | 0.03 | 0.03 | 74 | 1014.3 |
| 20260830192318 | 20 | 279 | 1.6 | 6.4 | 0.00 | 0.03 | 0.03 | 73 | 1014.3 |
| 20260830192218 | 20 | 279 | 1.6 | 6.4 | 0.00 | 0.03 | 0.03 | 73 | 1014.3 |
| 20260830192113 | 20 | 279 | 1.6 | 6.4 | 0.00 | 0.03 | 0.03 | 73 | 1014.2 |
| 20260830192014 | 20 | 279 | 1.6 | 6.4 | 0.00 | 0.03 | 0.03 | 73 | 1014.2 |
| 20260830191914 | 20 | 279 | 1.6 | 6.4 | 0.00 | 0.03 | 0.03 | 72 | 1014.2 |
| 20260830191814 | 20 | 279 | 1.6 | 6.4 | 0.00 | 0.03 | 0.03 | 72 | 1014.2 |
| 20260830191711 | 20 | 279 | 1.6 | 6.4 | 0.00 | 0.03 | 0.03 | 72 | 1014.2 |
| 20260830191608 | 20 | 273 | 0.0 | 6.4 | 0.00 | 0.03 | 0.03 | 72 | 1014.2 |
| 20260830191506 | 20 | 273 | 0.0 | 6.4 | 0.00 | 0.03 | 0.03 | 73 | 1014.2 |
| 20260830191406 | 20 | 261 | 0.0 | 3.2 | 0.00 | 0.03 | 0.03 | 73 | 1014.1 |
| 20260830191306 | 20 | 261 | 0.0 | 0.0 | 0.00 | 0.03 | 0.03 | 72 | 1014.1 |
| 20260830191205 | 20 | 261 | 0.0 | 0.0 | 0.00 | 0.03 | 0.03 | 72 | 1014.1 |
| 20260830191101 | 20 | 261 | 0.0 | 0.0 | 0.00 | 0.03 | 0.03 | 72 | 1014.1 |
| 20260830191001 | 20 | 261 | 0.0 | 0.0 | 0.00 | 0.03 | 0.03 | 72 | 1014.1 |
| 20260830190934 | 20 | 261 | 0.0 | 1.6 | 0.00 | 0.03 | 0.03 | 71 | 1014.1 |
| 20260830190925 | 20 | 261 | 0.0 | 0.0 | 0.00 | 0.03 | 0.03 | 71 | 1013.9 |
| 20260830190921 | 20 | 261 | 0.0 | 0.0 | 0.00 | 0.03 | 0.03 | 71 | 1014.1 |
| 20260830190702 | 20 | 261 | 0.0 | 1.6 | 0.00 | 0.03 | 0.03 | 71 | 1014.1 |
| 20260830190602 | 20 | 261 | 0.0 | 1.6 | 0.00 | 0.03 | 0.03 | 71 | 1014.1 |
| 20260830190501 | 20 | 261 | 0.0 | 1.6 | 0.00 | 0.03 | 0.03 | 71 | 1014.1 |
| 20260830190401 | 20 | 261 | 0.0 | 1.6 | 0.00 | 0.03 | 0.03 | 71 | 1014.1 |
| 20260830190301 | 20 | 261 | 0.0 | 1.6 | 0.00 | 0.03 | 0.03 | 71 | 1014.1 |
| 20260830190201 | 21 | 261 | 0.0 | 1.6 | 0.00 | 0.03 | 0.03 | 71 | 1014.1 |
| 20260830190001 | 21 | 261 | 0.0 | 1.6 | 0.00 | 0.03 | 0.03 | 70 | 1014.1 |
| 20260830185901 | 21 | 261 | 0.0 | 1.6 | 0.00 | 0.03 | 0.03 | 70 | 1014.1 |
| 20260830185801 | 21 | 261 | 0.0 | 1.6 | 0.00 | 0.03 | 0.03 | 69 | 1014.1 |
| 20260830185700 | 21 | 261 | 0.0 | 1.6 | 0.00 | 0.03 | 0.03 | 70 | 1014.1 |
| 20260830185601 | 21 | 261 | 0.0 | 1.6 | 0.00 | 0.03 | 0.03 | 70 | 1014.1 |
| 20260830185501 | 21 | 261 | 0.0 | 1.6 | 0.00 | 0.03 | 0.03 | 69 | 1014.1 |
| 20260830185401 | 21 | 261 | 0.0 | 1.6 | 0.00 | 0.03 | 0.03 | 69 | 1014.1 |
| 20260830185301 | 21 | 261 | 0.0 | 1.6 | 0.00 | 0.03 | 0.03 | 69 | 1014.1 |
| 20260830185201 | 21 | 261 | 0.0 | 1.6 | 0.00 | 0.03 | 0.03 | 69 | 1014.1 |
| 20260830185101 | 21 | 261 | 0.0 | 1.6 | 0.00 | 0.03 | 0.03 | 69 | 1014.1 |
| 20260830185002 | 21 | 261 | 0.0 | 1.6 | 0.00 | 0.03 | 0.03 | 69 | 1014.1 |
| 20260830184901 | 21 | 261 | 0.0 | 1.6 | 0.00 | 0.03 | 0.03 | 69 | 1014.1 |
| 20260830184801 | 21 | 261 | 0.0 | 1.6 | 0.00 | 0.03 | 0.03 | 69 | 1014.1 |
| 20260830184700 | 21 | 261 | 0.0 | 1.6 | 0.00 | 0.03 | 0.03 | 69 | 1014.1 |
| 20260830184600 | 21 | 261 | 0.0 | 1.6 | 0.00 | 0.03 | 0.03 | 68 | 1014.1 |
| 20260830184500 | 21 | 261 | 0.0 | 1.6 | 0.00 | 0.03 | 0.03 | 68 | 1014.1 |
| 20260830184401 | 21 | 261 | 0.0 | 1.6 | 0.00 | 0.03 | 0.03 | 68 | 1014.1 |
| 20260830184300 | 21 | 261 | 0.0 | 0.0 | 0.00 | 0.03 | 0.03 | 68 | 1014.1 |
| 20260830184200 | 21 | 261 | 0.0 | 0.0 | 0.00 | 0.03 | 0.03 | 68 | 1014.1 |
| 20260830184101 | 21 | 261 | 0.0 | 0.0 | 0.00 | 0.03 | 0.03 | 68 | 1014.1 |
| 20260830184001 | 22 | 261 | 0.0 | 1.6 | 0.00 | 0.03 | 0.03 | 67 | 1014.1 |
| 20260830183902 | 22 | 261 | 0.0 | 1.6 | 0.00 | 0.03 | 0.03 | 67 | 1013.9 |
| 20260830183802 | 22 | 261 | 0.0 | 1.6 | 0.00 | 0.03 | 0.03 | 67 | 1013.9 |
| 20260830183701 | 22 | 261 | 0.0 | 1.6 | 0.00 | 0.03 | 0.03 | 67 | 1013.9 |
| 20260830183601 | 22 | 261 | 0.0 | 1.6 | 0.00 | 0.03 | 0.03 | 67 | 1013.9 |
| 20260830183501 | 22 | 261 | 0.0 | 1.6 | 0.00 | 0.03 | 0.03 | 67 | 1013.8 |
| 20260830183429 | 22 | 261 | 0.0 | 1.6 | 0.00 | 0.03 | 0.03 | 66 | 1013.8 |
| 20260830183420 | 22 | 261 | 0.0 | 1.6 | 0.00 | 0.03 | 0.03 | 67 | 1013.9 |
| 20260830183416 | 22 | 261 | 0.0 | 1.6 | 0.00 | 0.03 | 0.03 | 66 | 1013.9 |
| 20260830183156 | 22 | 261 | 0.0 | 1.6 | 0.00 | 0.03 | 0.03 | 66 | 1013.8 |
| 20260830183054 | 22 | 261 | 0.0 | 1.6 | 0.00 | 0.03 | 0.03 | 66 | 1013.8 |
| 20260830182954 | 22 | 261 | 0.0 | 1.6 | 0.00 | 0.03 | 0.03 | 65 | 1013.8 |
| 20260830182853 | 22 | 261 | 0.0 | 1.6 | 0.00 | 0.03 | 0.03 | 65 | 1013.8 |
| 20260830182753 | 22 | 261 | 0.0 | 1.6 | 0.00 | 0.03 | 0.03 | 64 | 1013.8 |
| 20260830182702 | 22 | 261 | 0.0 | 1.6 | 0.00 | 0.03 | 0.03 | 63 | 1013.8 |
| 20260830182654 | 22 | 261 | 0.0 | 1.6 | 0.00 | 0.03 | 0.03 | 63 | 1013.8 |
| 20260830182553 | 22 | 261 | 0.0 | 1.6 | 0.00 | 0.03 | 0.03 | 63 | 1013.7 |
| 20260830182452 | 22 | 261 | 0.0 | 1.6 | 0.00 | 0.03 | 0.03 | 63 | 1013.7 |
| 20260830182350 | 22 | 261 | 0.0 | 1.6 | 0.00 | 0.03 | 0.03 | 63 | 1013.7 |
| 20260830182248 | 22 | 261 | 0.0 | 1.6 | 0.00 | 0.03 | 0.03 | 63 | 1013.7 |
| 20260830182202 | 22 | 261 | 0.0 | 1.6 | 0.00 | 0.03 | 0.03 | 63 | 1013.7 |
| 20260830182158 | 23 | 261 | 1.6 | 3.2 | 0.00 | 0.03 | 0.03 | 62 | 1013.7 |
| 20260830182152 | 22 | 261 | 0.0 | 1.6 | 0.00 | 0.03 | 0.03 | 63 | 1013.7 |
| 20260830182148 | 22 | 261 | 0.0 | 3.2 | 0.00 | 0.03 | 0.03 | 62 | 1013.7 |
| 20260830182144 | 22 | 261 | 0.0 | 3.2 | 0.00 | 0.03 | 0.03 | 62 | 1013.7 |
| 20260830181917 | 22 | 261 | 0.0 | 3.2 | 0.00 | 0.03 | 0.03 | 62 | 1013.7 |
| 20260830181913 | 23 | 261 | 1.6 | 3.2 | 0.00 | 0.03 | 0.03 | 62 | 1013.7 |
| 20260830181643 | 23 | 261 | 1.6 | 3.2 | 0.00 | 0.03 | 0.03 | 62 | 1013.7 |
| 20260830181543 | 23 | 261 | 1.6 | 3.2 | 0.00 | 0.03 | 0.03 | 62 | 1013.7 |
| 20260830181443 | 23 | 261 | 1.6 | 3.2 | 0.00 | 0.03 | 0.03 | 62 | 1013.7 |
| 20260830181342 | 23 | 261 | 1.6 | 3.2 | 0.00 | 0.03 | 0.03 | 62 | 1013.7 |
| 20260830181242 | 23 | 261 | 1.6 | 3.2 | 0.00 | 0.03 | 0.03 | 61 | 1013.7 |
| 20260830181202 | 23 | 261 | 1.6 | 3.2 | 0.00 | 0.03 | 0.03 | 61 | 1013.7 |
| 20260830181139 | 23 | 261 | 1.6 | 3.2 | 0.00 | 0.03 | 0.03 | 61 | 1013.7 |
| 20260830181038 | 23 | 261 | 1.6 | 3.2 | 0.00 | 0.03 | 0.03 | 61 | 1013.7 |
| 20260830180938 | 23 | 261 | 1.6 | 3.2 | 0.00 | 0.03 | 0.03 | 61 | 1013.7 |
| 20260830180837 | 23 | 261 | 1.6 | 3.2 | 0.00 | 0.03 | 0.03 | 61 | 1013.7 |
| 20260830180738 | 23 | 261 | 1.6 | 3.2 | 0.00 | 0.03 | 0.03 | 61 | 1013.6 |
| 20260830180701 | 23 | 261 | 1.6 | 3.2 | 0.00 | 0.03 | 0.03 | 61 | 1013.7 |
| 20260830180638 | 23 | 261 | 1.6 | 3.2 | 0.00 | 0.03 | 0.03 | 61 | 1013.7 |
| 20260830180536 | 23 | 261 | 1.6 | 3.2 | 0.00 | 0.03 | 0.03 | 61 | 1013.7 |
| 20260830180436 | 23 | 261 | 1.6 | 3.2 | 0.00 | 0.03 | 0.03 | 61 | 1013.7 |
| 20260830180333 | 23 | 261 | 1.6 | 3.2 | 0.00 | 0.03 | 0.03 | 60 | 1013.7 |
| 20260830180233 | 23 | 261 | 1.6 | 3.2 | 0.00 | 0.03 | 0.03 | 60 | 1013.7 |
| 20260830180200 | 23 | 261 | 1.6 | 3.2 | 0.00 | 0.03 | 0.03 | 60 | 1013.7 |
| 20260830180134 | 23 | 261 | 1.6 | 3.2 | 0.00 | 0.03 | 0.03 | 60 | 1013.7 |
| 20260830180034 | 23 | 261 | 1.6 | 4.8 | 0.00 | 0.03 | 0.03 | 60 | 1013.7 |
| 20260830175934 | 23 | 261 | 1.6 | 4.8 | 0.00 | 0.03 | 0.03 | 60 | 1013.7 |
| 20260830175833 | 23 | 261 | 1.6 | 4.8 | 0.00 | 0.03 | 0.03 | 60 | 1013.7 |
| 20260830175733 | 23 | 261 | 1.6 | 4.8 | 0.00 | 0.03 | 0.03 | 60 | 1013.7 |
| 20260830175700 | 23 | 261 | 1.6 | 4.8 | 0.00 | 0.03 | 0.03 | 59 | 1013.7 |
| 20260830175634 | 23 | 261 | 1.6 | 4.8 | 0.00 | 0.03 | 0.03 | 59 | 1013.7 |
| 20260830175534 | 23 | 261 | 1.6 | 4.8 | 0.00 | 0.03 | 0.03 | 60 | 1013.7 |
| 20260830175434 | 23 | 261 | 1.6 | 4.8 | 0.00 | 0.03 | 0.03 | 60 | 1013.7 |
| 20260830175332 | 23 | 261 | 1.6 | 4.8 | 0.00 | 0.03 | 0.03 | 59 | 1013.6 |
| 20260830175232 | 23 | 261 | 1.6 | 4.8 | 0.00 | 0.03 | 0.03 | 59 | 1013.7 |
| 20260830175200 | 23 | 261 | 3.2 | 4.8 | 0.00 | 0.03 | 0.03 | 60 | 1013.7 |
| 20260830175132 | 23 | 261 | 3.2 | 4.8 | 0.00 | 0.03 | 0.03 | 60 | 1013.7 |
| 20260830175032 | 23 | 261 | 3.2 | 4.8 | 0.00 | 0.03 | 0.03 | 59 | 1013.7 |
| 20260830174932 | 23 | 261 | 3.2 | 4.8 | 0.00 | 0.03 | 0.03 | 59 | 1013.7 |
| 20260830174830 | 23 | 261 | 3.2 | 6.4 | 0.00 | 0.03 | 0.03 | 59 | 1013.6 |
| 20260830174701 | 23 | 261 | 3.2 | 6.4 | 0.00 | 0.03 | 0.03 | 59 | 1013.6 |
| 20260830174629 | 23 | 261 | 3.2 | 6.4 | 0.00 | 0.03 | 0.03 | 59 | 1013.6 |
| 20260830174530 | 23 | 261 | 3.2 | 6.4 | 0.00 | 0.03 | 0.03 | 59 | 1013.6 |
| 20260830174431 | 23 | 262 | 3.2 | 6.4 | 0.00 | 0.03 | 0.03 | 59 | 1013.6 |
| 20260830174427 | 23 | 262 | 3.2 | 6.4 | 0.00 | 0.03 | 0.03 | 59 | 1013.5 |
| 20260830174417 | 23 | 261 | 3.2 | 6.4 | 0.00 | 0.03 | 0.03 | 59 | 1013.6 |
| 20260830174413 | 23 | 262 | 3.2 | 6.4 | 0.00 | 0.03 | 0.03 | 59 | 1013.6 |
| 20260830174130 | 23 | 262 | 3.2 | 6.4 | 0.00 | 0.03 | 0.03 | 58 | 1013.5 |
| 20260830174029 | 23 | 262 | 3.2 | 6.4 | 0.00 | 0.03 | 0.03 | 58 | 1013.6 |
| 20260830173931 | 23 | 262 | 3.2 | 6.4 | 0.00 | 0.03 | 0.03 | 59 | 1013.6 |
| 20260830173916 | 23 | 263 | 3.2 | 6.4 | 0.00 | 0.03 | 0.03 | 58 | 1013.6 |
| 20260830173912 | 23 | 263 | 3.2 | 6.4 | 0.00 | 0.03 | 0.03 | 58 | 1013.6 |
| 20260830173626 | 24 | 263 | 3.2 | 6.4 | 0.00 | 0.03 | 0.03 | 58 | 1013.6 |
| 20260830173526 | 24 | 263 | 3.2 | 9.7 | 0.00 | 0.03 | 0.03 | 58 | 1013.6 |
| 20260830173425 | 24 | 263 | 3.2 | 11.3 | 0.00 | 0.03 | 0.03 | 57 | 1013.6 |
| 20260830173326 | 24 | 263 | 4.8 | 11.3 | 0.00 | 0.03 | 0.03 | 57 | 1013.6 |
| 20260830173226 | 24 | 263 | 4.8 | 11.3 | 0.00 | 0.03 | 0.03 | 57 | 1013.6 |
| 20260830173201 | 24 | 264 | 4.8 | 11.3 | 0.00 | 0.03 | 0.03 | 57 | 1013.5 |
| 20260830173125 | 24 | 264 | 4.8 | 11.3 | 0.00 | 0.03 | 0.03 | 57 | 1013.5 |
| 20260830173023 | 24 | 264 | 4.8 | 11.3 | 0.00 | 0.03 | 0.03 | 57 | 1013.5 |
| 20260830172924 | 24 | 264 | 6.4 | 11.3 | 0.00 | 0.03 | 0.03 | 56 | 1013.5 |
| 20260830172823 | 24 | 265 | 6.4 | 11.3 | 0.00 | 0.03 | 0.03 | 56 | 1013.5 |
| 20260830172701 | 24 | 265 | 6.4 | 12.9 | 0.00 | 0.03 | 0.03 | 57 | 1013.5 |
| 20260830172621 | 24 | 256 | 6.4 | 12.9 | 0.00 | 0.03 | 0.03 | 57 | 1013.5 |
| 20260830172522 | 24 | 293 | 6.4 | 12.9 | 0.00 | 0.03 | 0.03 | 56 | 1013.5 |
| 20260830172422 | 24 | 246 | 6.4 | 12.9 | 0.00 | 0.03 | 0.03 | 56 | 1013.5 |
| 20260830172322 | 24 | 269 | 4.8 | 12.9 | 0.00 | 0.03 | 0.03 | 57 | 1013.5 |
| 20260830172222 | 24 | 279 | 4.8 | 12.9 | 0.00 | 0.03 | 0.03 | 57 | 1013.5 |
| 20260830172200 | 24 | 275 | 4.8 | 12.9 | 0.00 | 0.03 | 0.03 | 57 | 1013.5 |
| 20260830172120 | 24 | 261 | 4.8 | 12.9 | 0.00 | 0.03 | 0.03 | 56 | 1013.5 |
| 20260830172019 | 24 | 262 | 4.8 | 12.9 | 0.00 | 0.03 | 0.03 | 56 | 1013.6 |
| 20260830171921 | 24 | 253 | 4.8 | 12.9 | 0.00 | 0.03 | 0.03 | 56 | 1013.6 |
| 20260830171819 | 24 | 261 | 4.8 | 12.9 | 0.00 | 0.03 | 0.03 | 57 | 1013.6 |
| 20260830171719 | 24 | 238 | 4.8 | 9.7 | 0.00 | 0.03 | 0.03 | 57 | 1013.5 |
| 20260830171701 | 24 | 265 | 4.8 | 9.7 | 0.00 | 0.03 | 0.03 | 57 | 1013.5 |
| 20260830171619 | 24 | 267 | 4.8 | 9.7 | 0.00 | 0.03 | 0.03 | 56 | 1013.5 |
| 20260830171513 | 24 | 275 | 3.2 | 9.7 | 0.00 | 0.03 | 0.03 | 56 | 1013.6 |
| 20260830171413 | 24 | 218 | 4.8 | 8.0 | 0.00 | 0.03 | 0.03 | 56 | 1013.6 |
| 20260830171313 | 24 | 243 | 4.8 | 11.3 | 0.00 | 0.03 | 0.03 | 56 | 1013.6 |
| 20260830171213 | 24 | 243 | 4.8 | 11.3 | 0.00 | 0.03 | 0.03 | 57 | 1013.5 |
| 20260830171201 | 25 | 243 | 4.8 | 11.3 | 0.00 | 0.03 | 0.03 | 56 | 1013.5 |
| 20260830171113 | 25 | 243 | 4.8 | 11.3 | 0.00 | 0.03 | 0.03 | 56 | 1013.5 |
| 20260830171014 | 25 | 244 | 4.8 | 11.3 | 0.00 | 0.03 | 0.03 | 55 | 1013.5 |
| 20260830170914 | 25 | 246 | 4.8 | 11.3 | 0.00 | 0.03 | 0.03 | 56 | 1013.5 |
| 20260830170812 | 25 | 245 | 4.8 | 12.9 | 0.00 | 0.03 | 0.03 | 56 | 1013.5 |
| 20260830170712 | 25 | 230 | 4.8 | 12.9 | 0.00 | 0.03 | 0.03 | 56 | 1013.5 |
| 20260830170701 | 25 | 231 | 4.8 | 12.9 | 0.00 | 0.03 | 0.03 | 56 | 1013.5 |
| 20260830170612 | 25 | 252 | 4.8 | 12.9 | 0.00 | 0.03 | 0.03 | 56 | 1013.5 |
| 20260830170512 | 25 | 254 | 6.4 | 12.9 | 0.00 | 0.03 | 0.03 | 56 | 1013.5 |
| 20260830170412 | 25 | 257 | 6.4 | 12.9 | 0.00 | 0.03 | 0.03 | 56 | 1013.5 |
| 20260830170312 | 25 | 280 | 6.4 | 16.1 | 0.00 | 0.03 | 0.03 | 55 | 1013.5 |
| 20260830170210 | 25 | 244 | 6.4 | 16.1 | 0.00 | 0.03 | 0.03 | 55 | 1013.5 |
| 20260830170201 | 25 | 216 | 6.4 | 16.1 | 0.00 | 0.03 | 0.03 | 55 | 1013.5 |
| 20260830170110 | 25 | 215 | 6.4 | 16.1 | 0.00 | 0.03 | 0.03 | 55 | 1013.5 |
| 20260830170009 | 25 | 215 | 6.4 | 16.1 | 0.00 | 0.03 | 0.03 | 54 | 1013.5 |
| 20260830165909 | 25 | 250 | 6.4 | 16.1 | 0.00 | 0.03 | 0.03 | 54 | 1013.5 |
| 20260830165810 | 25 | 267 | 6.4 | 16.1 | 0.00 | 0.03 | 0.03 | 55 | 1013.5 |
| 20260830165710 | 25 | 264 | 6.4 | 16.1 | 0.00 | 0.03 | 0.03 | 55 | 1013.5 |
| 20260830165701 | 25 | 266 | 6.4 | 16.1 | 0.00 | 0.03 | 0.03 | 55 | 1013.5 |
| 20260830165610 | 25 | 240 | 6.4 | 16.1 | 0.00 | 0.03 | 0.03 | 54 | 1013.5 |
| 20260830165510 | 25 | 266 | 6.4 | 16.1 | 0.00 | 0.03 | 0.03 | 54 | 1013.5 |
| 20260830165410 | 25 | 198 | 6.4 | 16.1 | 0.00 | 0.03 | 0.03 | 55 | 1013.5 |
| 20260830165310 | 25 | 225 | 6.4 | 11.3 | 0.00 | 0.03 | 0.03 | 55 | 1013.5 |
| 20260830165210 | 25 | 221 | 6.4 | 12.9 | 0.00 | 0.03 | 0.03 | 54 | 1013.4 |
| 20260830165201 | 25 | 205 | 6.4 | 12.9 | 0.00 | 0.03 | 0.03 | 54 | 1013.4 |
| 20260830165109 | 25 | 214 | 6.4 | 12.9 | 0.00 | 0.03 | 0.03 | 55 | 1013.4 |
| 20260830165009 | 25 | 213 | 6.4 | 16.1 | 0.00 | 0.03 | 0.03 | 55 | 1013.4 |
| 20260830164909 | 25 | 284 | 6.4 | 16.1 | 0.00 | 0.03 | 0.03 | 55 | 1013.4 |
| 20260830164809 | 25 | 242 | 8.0 | 16.1 | 0.00 | 0.03 | 0.03 | 55 | 1013.4 |
| 20260830164710 | 25 | 256 | 8.0 | 16.1 | 0.00 | 0.03 | 0.03 | 55 | 1013.4 |
| 20260830164700 | 25 | 258 | 8.0 | 16.1 | 0.00 | 0.03 | 0.03 | 55 | 1013.4 |
| 20260830164605 | 25 | 260 | 8.0 | 17.7 | 0.00 | 0.03 | 0.03 | 54 | 1013.4 |
| 20260830164506 | 25 | 250 | 8.0 | 17.7 | 0.00 | 0.03 | 0.03 | 55 | 1013.5 |
| 20260830164406 | 25 | 213 | 8.0 | 17.7 | 0.00 | 0.03 | 0.03 | 55 | 1013.5 |
| 20260830164305 | 25 | 265 | 8.0 | 17.7 | 0.00 | 0.03 | 0.03 | 55 | 1013.5 |
| 20260830164201 | 25 | 243 | 9.7 | 17.7 | 0.00 | 0.03 | 0.03 | 54 | 1013.4 |
| 20260830164106 | 25 | 202 | 8.0 | 17.7 | 0.00 | 0.03 | 0.03 | 56 | 1013.4 |
| 20260830164006 | 25 | 228 | 8.0 | 17.7 | 0.00 | 0.03 | 0.03 | 56 | 1013.5 |
| 20260830163906 | 25 | 223 | 8.0 | 17.7 | 0.00 | 0.03 | 0.03 | 54 | 1013.5 |
| 20260830163806 | 25 | 229 | 8.0 | 17.7 | 0.00 | 0.03 | 0.03 | 56 | 1013.5 |
| 20260830163701 | 25 | 234 | 8.0 | 17.7 | 0.00 | 0.03 | 0.03 | 56 | 1013.5 |
| 20260830163606 | 25 | 240 | 8.0 | 16.1 | 0.00 | 0.03 | 0.03 | 55 | 1013.5 |
| 20260830163505 | 25 | 254 | 8.0 | 16.1 | 0.00 | 0.03 | 0.03 | 55 | 1013.5 |
| 20260830163405 | 25 | 260 | 8.0 | 16.1 | 0.00 | 0.03 | 0.03 | 56 | 1013.5 |
| 20260830163306 | 25 | 246 | 8.0 | 16.1 | 0.00 | 0.03 | 0.03 | 55 | 1013.4 |
| 20260830163200 | 25 | 271 | 8.0 | 16.1 | 0.00 | 0.03 | 0.03 | 55 | 1013.5 |
| 20260830163105 | 25 | 288 | 8.0 | 16.1 | 0.00 | 0.03 | 0.03 | 54 | 1013.5 |
| 20260830163005 | 25 | 236 | 9.7 | 16.1 | 0.00 | 0.03 | 0.03 | 54 | 1013.5 |
| 20260830162905 | 25 | 263 | 9.7 | 17.7 | 0.00 | 0.03 | 0.03 | 54 | 1013.5 |
| 20260830162805 | 25 | 286 | 9.7 | 17.7 | 0.00 | 0.03 | 0.03 | 54 | 1013.5 |
| 20260830162701 | 25 | 254 | 9.7 | 17.7 | 0.00 | 0.03 | 0.03 | 54 | 1013.5 |
| 20260830162602 | 25 | 248 | 9.7 | 17.7 | 0.00 | 0.03 | 0.03 | 55 | 1013.5 |
| 20260830162502 | 25 | 259 | 9.7 | 17.7 | 0.00 | 0.03 | 0.03 | 55 | 1013.5 |
| 20260830162402 | 25 | 271 | 11.3 | 17.7 | 0.00 | 0.03 | 0.03 | 55 | 1013.5 |
| 20260830162305 | 25 | 260 | 11.3 | 17.7 | 0.00 | 0.03 | 0.03 | 55 | 1013.5 |
| 20260830162205 | 25 | 271 | 11.3 | 17.7 | 0.00 | 0.03 | 0.03 | 54 | 1013.5 |
| 20260830162201 | 25 | 286 | 11.3 | 17.7 | 0.00 | 0.03 | 0.03 | 54 | 1013.5 |
| 20260830162102 | 25 | 266 | 11.3 | 19.3 | 0.00 | 0.03 | 0.03 | 54 | 1013.5 |
| 20260830162002 | 25 | 264 | 11.3 | 19.3 | 0.00 | 0.03 | 0.03 | 54 | 1013.5 |
| 20260830161901 | 25 | 281 | 11.3 | 19.3 | 0.00 | 0.03 | 0.03 | 54 | 1013.5 |
| 20260830161802 | 25 | 288 | 11.3 | 19.3 | 0.00 | 0.03 | 0.03 | 54 | 1013.5 |
| 20260830161705 | 25 | 288 | 11.3 | 19.3 | 0.00 | 0.03 | 0.03 | 54 | 1013.5 |
| 20260830161701 | 25 | 287 | 11.3 | 19.3 | 0.00 | 0.03 | 0.03 | 54 | 1013.5 |
| 20260830161653 | 25 | 291 | 11.3 | 19.3 | 0.00 | 0.03 | 0.03 | 54 | 1013.5 |
| 20260830161644 | 25 | 247 | 9.7 | 19.3 | 0.00 | 0.03 | 0.03 | 54 | 1013.5 |
| 20260830161640 | 25 | 276 | 9.7 | 19.3 | 0.00 | 0.03 | 0.03 | 54 | 1013.5 |
| 20260830161425 | 25 | 261 | 9.7 | 19.3 | 0.00 | 0.03 | 0.03 | 54 | 1013.5 |
| 20260830161417 | 25 | 278 | 11.3 | 19.3 | 0.00 | 0.03 | 0.03 | 54 | 1013.5 |
| 20260830161413 | 25 | 291 | 11.3 | 19.3 | 0.00 | 0.03 | 0.03 | 54 | 1013.5 |
| 20260830161101 | 25 | 270 | 9.7 | 19.3 | 0.00 | 0.03 | 0.03 | 54 | 1013.5 |
| 20260830161001 | 25 | 240 | 9.7 | 19.3 | 0.00 | 0.03 | 0.03 | 54 | 1013.5 |
| 20260830160901 | 25 | 286 | 9.7 | 19.3 | 0.00 | 0.03 | 0.03 | 55 | 1013.5 |
| 20260830160805 | 25 | 242 | 11.3 | 19.3 | 0.00 | 0.03 | 0.03 | 55 | 1013.5 |
| 20260830160701 | 25 | 286 | 9.7 | 19.3 | 0.00 | 0.03 | 0.03 | 54 | 1013.5 |
| 20260830160647 | 25 | 228 | 9.7 | 16.1 | 0.00 | 0.03 | 0.03 | 54 | 1013.5 |
| 20260830160642 | 25 | 211 | 9.7 | 19.3 | 0.00 | 0.03 | 0.03 | 54 | 1013.5 |
| 20260830160638 | 25 | 273 | 9.7 | 19.3 | 0.00 | 0.03 | 0.03 | 55 | 1013.5 |
| 20260830160423 | 25 | 233 | 9.7 | 19.3 | 0.00 | 0.03 | 0.03 | 55 | 1013.5 |
| 20260830160418 | 25 | 296 | 9.7 | 19.3 | 0.00 | 0.03 | 0.03 | 54 | 1013.5 |
| 20260830160411 | 25 | 228 | 9.7 | 16.1 | 0.00 | 0.03 | 0.03 | 54 | 1013.5 |
| 20260830160100 | 25 | 239 | 8.0 | 16.1 | 0.00 | 0.03 | 0.03 | 54 | 1013.5 |
| 20260830160001 | 25 | 277 | 8.0 | 16.1 | 0.00 | 0.03 | 0.03 | 54 | 1013.5 |
| 20260830155901 | 25 | 255 | 8.0 | 17.7 | 0.00 | 0.03 | 0.03 | 54 | 1013.5 |
| 20260830155801 | 25 | 261 | 8.0 | 17.7 | 0.00 | 0.03 | 0.03 | 55 | 1013.5 |
| 20260830155701 | 25 | 232 | 8.0 | 17.7 | 0.00 | 0.03 | 0.03 | 54 | 1013.5 |
| 20260830155601 | 25 | 279 | 8.0 | 17.7 | 0.00 | 0.03 | 0.03 | 55 | 1013.5 |
| 20260830155501 | 25 | 238 | 8.0 | 17.7 | 0.00 | 0.03 | 0.03 | 55 | 1013.5 |
| 20260830155401 | 25 | 268 | 8.0 | 17.7 | 0.00 | 0.03 | 0.03 | 54 | 1013.5 |
| 20260830155301 | 25 | 239 | 6.4 | 17.7 | 0.00 | 0.03 | 0.03 | 54 | 1013.5 |
| 20260830155201 | 25 | 252 | 8.0 | 17.7 | 0.00 | 0.03 | 0.03 | 54 | 1013.5 |
| 20260830155101 | 25 | 257 | 8.0 | 17.7 | 0.00 | 0.03 | 0.03 | 54 | 1013.5 |
| 20260830155001 | 25 | 250 | 8.0 | 17.7 | 0.00 | 0.03 | 0.03 | 55 | 1013.5 |
| 20260830154901 | 25 | 280 | 8.0 | 17.7 | 0.00 | 0.03 | 0.03 | 54 | 1013.5 |
| 20260830154800 | 25 | 242 | 8.0 | 17.7 | 0.00 | 0.03 | 0.03 | 55 | 1013.5 |
| 20260830154701 | 25 | 259 | 8.0 | 17.7 | 0.00 | 0.03 | 0.03 | 55 | 1013.5 |
| 20260830154601 | 25 | 281 | 8.0 | 17.7 | 0.00 | 0.03 | 0.03 | 53 | 1013.5 |
| 20260830154501 | 25 | 239 | 9.7 | 17.7 | 0.00 | 0.03 | 0.03 | 54 | 1013.6 |
| 20260830154401 | 25 | 272 | 9.7 | 17.7 | 0.00 | 0.03 | 0.03 | 54 | 1013.5 |
| 20260830154301 | 25 | 233 | 11.3 | 17.7 | 0.00 | 0.03 | 0.03 | 54 | 1013.5 |
| 20260830154201 | 25 | 229 | 11.3 | 17.7 | 0.00 | 0.03 | 0.03 | 54 | 1013.5 |
| 20260830154101 | 25 | 216 | 9.7 | 17.7 | 0.00 | 0.03 | 0.03 | 53 | 1013.6 |
| 20260830154001 | 25 | 275 | 9.7 | 17.7 | 0.00 | 0.03 | 0.03 | 53 | 1013.6 |
| 20260830153925 | 25 | 248 | 9.7 | 17.7 | 0.00 | 0.03 | 0.03 | 53 | 1013.6 |
| 20260830153921 | 25 | 240 | 9.7 | 16.1 | 0.00 | 0.03 | 0.03 | 53 | 1013.6 |
| 20260830153914 | 25 | 270 | 9.7 | 16.1 | 0.00 | 0.03 | 0.03 | 53 | 1013.6 |
| 20260830153601 | 25 | 252 | 9.7 | 16.1 | 0.00 | 0.03 | 0.03 | 53 | 1013.5 |
| 20260830153501 | 25 | 286 | 8.0 | 16.1 | 0.00 | 0.03 | 0.03 | 53 | 1013.6 |
| 20260830153401 | 25 | 236 | 8.0 | 16.1 | 0.00 | 0.03 | 0.03 | 53 | 1013.6 |
| 20260830153301 | 25 | 263 | 8.0 | 16.1 | 0.00 | 0.03 | 0.03 | 53 | 1013.6 |
| 20260830153201 | 25 | 248 | 8.0 | 16.1 | 0.00 | 0.03 | 0.03 | 54 | 1013.6 |
| 20260830153101 | 25 | 198 | 8.0 | 16.1 | 0.00 | 0.03 | 0.03 | 54 | 1013.6 |
| 20260830153001 | 25 | 272 | 8.0 | 16.1 | 0.00 | 0.03 | 0.03 | 55 | 1013.6 |
| 20260830152901 | 25 | 283 | 9.7 | 19.3 | 0.00 | 0.03 | 0.03 | 54 | 1013.6 |
| 20260830152801 | 25 | 234 | 9.7 | 19.3 | 0.00 | 0.03 | 0.03 | 55 | 1013.6 |
| 20260830152701 | 25 | 260 | 9.7 | 19.3 | 0.00 | 0.03 | 0.03 | 54 | 1013.6 |
| 20260830152601 | 25 | 277 | 9.7 | 19.3 | 0.00 | 0.03 | 0.03 | 53 | 1013.6 |
| 20260830152501 | 25 | 204 | 9.7 | 19.3 | 0.00 | 0.03 | 0.03 | 53 | 1013.6 |
| 20260830152401 | 25 | 200 | 9.7 | 19.3 | 0.00 | 0.03 | 0.03 | 53 | 1013.6 |
| 20260830152301 | 25 | 207 | 9.7 | 24.1 | 0.00 | 0.03 | 0.03 | 53 | 1013.6 |
| 20260830152201 | 25 | 225 | 9.7 | 24.1 | 0.00 | 0.03 | 0.03 | 53 | 1013.7 |
| 20260830152102 | 25 | 263 | 9.7 | 24.1 | 0.00 | 0.03 | 0.03 | 53 | 1013.7 |
| 20260830152001 | 25 | 253 | 9.7 | 24.1 | 0.00 | 0.03 | 0.03 | 53 | 1013.6 |
| 20260830151924 | 25 | 275 | 9.7 | 24.1 | 0.00 | 0.03 | 0.03 | 54 | 1013.6 |
| 20260830151920 | 25 | 286 | 9.7 | 24.1 | 0.00 | 0.03 | 0.03 | 54 | 1013.6 |
| 20260830151911 | 25 | 254 | 9.7 | 24.1 | 0.00 | 0.03 | 0.03 | 54 | 1013.7 |
| 20260830151601 | 25 | 244 | 9.7 | 24.1 | 0.00 | 0.03 | 0.03 | 54 | 1013.6 |
| 20260830151501 | 25 | 251 | 9.7 | 24.1 | 0.00 | 0.03 | 0.03 | 54 | 1013.7 |
| 20260830151424 | 25 | 257 | 9.7 | 24.1 | 0.00 | 0.03 | 0.03 | 53 | 1013.7 |
| 20260830151420 | 25 | 285 | 9.7 | 22.5 | 0.00 | 0.03 | 0.03 | 53 | 1013.7 |
| 20260830151412 | 25 | 244 | 9.7 | 16.1 | 0.00 | 0.03 | 0.03 | 53 | 1013.6 |
| 20260830151147 | 25 | 261 | 9.7 | 16.1 | 0.00 | 0.03 | 0.03 | 54 | 1013.7 |
| 20260830151143 | 25 | 246 | 9.7 | 16.1 | 0.00 | 0.03 | 0.03 | 53 | 1013.6 |
| 20260830151139 | 25 | 208 | 9.7 | 16.1 | 0.00 | 0.03 | 0.03 | 53 | 1013.6 |
| 20260830150923 | 25 | 246 | 9.7 | 16.1 | 0.00 | 0.03 | 0.03 | 53 | 1013.6 |
| 20260830150919 | 25 | 271 | 9.7 | 16.1 | 0.00 | 0.03 | 0.03 | 53 | 1013.6 |
| 20260830150912 | 25 | 261 | 9.7 | 16.1 | 0.00 | 0.03 | 0.03 | 54 | 1013.7 |
| 20260830150601 | 25 | 209 | 9.7 | 16.1 | 0.00 | 0.03 | 0.03 | 53 | 1013.6 |
| 20260830150501 | 25 | 262 | 9.7 | 16.1 | 0.00 | 0.03 | 0.03 | 53 | 1013.6 |
| 20260830150424 | 25 | 256 | 9.7 | 16.1 | 0.00 | 0.03 | 0.03 | 53 | 1013.6 |
| 20260830150420 | 25 | 263 | 8.0 | 16.1 | 0.00 | 0.03 | 0.03 | 54 | 1013.7 |
| 20260830150412 | 26 | 271 | 8.0 | 16.1 | 0.00 | 0.03 | 0.03 | 54 | 1013.6 |
| 20260830150100 | 26 | 227 | 8.0 | 16.1 | 0.00 | 0.03 | 0.03 | 53 | 1013.7 |
| 20260830150001 | 26 | 260 | 8.0 | 16.1 | 0.00 | 0.03 | 0.03 | 54 | 1013.7 |
| 20260830145901 | 26 | 246 | 8.0 | 16.1 | 0.00 | 0.03 | 0.03 | 53 | 1013.7 |
| 20260830145801 | 26 | 273 | 8.0 | 14.5 | 0.00 | 0.03 | 0.03 | 53 | 1013.7 |
| 20260830145701 | 26 | 254 | 8.0 | 14.5 | 0.00 | 0.03 | 0.03 | 53 | 1013.7 |
| 20260830145601 | 26 | 229 | 8.0 | 14.5 | 0.00 | 0.03 | 0.03 | 54 | 1013.7 |
| 20260830145501 | 26 | 224 | 8.0 | 14.5 | 0.00 | 0.03 | 0.03 | 53 | 1013.6 |
| 20260830145424 | 26 | 275 | 8.0 | 16.1 | 0.00 | 0.03 | 0.03 | 53 | 1013.6 |
| 20260830145420 | 26 | 265 | 9.7 | 16.1 | 0.00 | 0.03 | 0.03 | 52 | 1013.6 |
| 20260830145412 | 26 | 249 | 9.7 | 16.1 | 0.00 | 0.03 | 0.03 | 53 | 1013.6 |
| 20260830145100 | 26 | 267 | 9.7 | 16.1 | 0.00 | 0.03 | 0.03 | 53 | 1013.6 |
| 20260830145000 | 26 | 275 | 9.7 | 16.1 | 0.00 | 0.03 | 0.03 | 53 | 1013.6 |
| 20260830144923 | 26 | 255 | 9.7 | 16.1 | 0.00 | 0.03 | 0.03 | 52 | 1013.6 |
| 20260830144919 | 26 | 290 | 9.7 | 16.1 | 0.00 | 0.03 | 0.03 | 53 | 1013.6 |
| 20260830144911 | 26 | 246 | 9.7 | 16.1 | 0.00 | 0.03 | 0.03 | 52 | 1013.6 |
| 20260830144602 | 26 | 294 | 9.7 | 16.1 | 0.00 | 0.03 | 0.03 | 52 | 1013.6 |
| 20260830144502 | 26 | 238 | 9.7 | 16.1 | 0.00 | 0.03 | 0.03 | 52 | 1013.7 |
| 20260830144402 | 26 | 271 | 9.7 | 16.1 | 0.00 | 0.03 | 0.03 | 53 | 1013.6 |
| 20260830144301 | 26 | 273 | 8.0 | 16.1 | 0.00 | 0.03 | 0.03 | 53 | 1013.7 |
| 20260830144201 | 26 | 256 | 9.7 | 14.5 | 0.00 | 0.03 | 0.03 | 52 | 1013.7 |
| 20260830144101 | 26 | 252 | 8.0 | 14.5 | 0.00 | 0.03 | 0.03 | 52 | 1013.7 |
| 20260830144003 | 26 | 217 | 8.0 | 14.5 | 0.00 | 0.03 | 0.03 | 52 | 1013.7 |
| 20260830143901 | 26 | 244 | 9.7 | 14.5 | 0.00 | 0.03 | 0.03 | 51 | 1013.7 |
| 20260830143801 | 26 | 237 | 9.7 | 17.7 | 0.00 | 0.03 | 0.03 | 52 | 1013.7 |
| 20260830143701 | 26 | 263 | 9.7 | 17.7 | 0.00 | 0.03 | 0.03 | 51 | 1013.6 |
| 20260830143651 | 26 | 309 | 9.7 | 17.7 | 0.00 | 0.03 | 0.03 | 51 | 1013.6 |
| 20260830143644 | 26 | 270 | 9.7 | 17.7 | 0.00 | 0.03 | 0.03 | 51 | 1013.6 |
| 20260830143640 | 26 | 275 | 9.7 | 17.7 | 0.00 | 0.03 | 0.03 | 51 | 1013.6 |
| 20260830143424 | 26 | 254 | 9.7 | 17.7 | 0.00 | 0.03 | 0.03 | 52 | 1013.6 |
| 20260830143420 | 26 | 302 | 9.7 | 17.7 | 0.00 | 0.03 | 0.03 | 51 | 1013.7 |
| 20260830143412 | 26 | 309 | 9.7 | 17.7 | 0.00 | 0.03 | 0.03 | 51 | 1013.6 |
| 20260830143101 | 26 | 251 | 11.3 | 19.3 | 0.00 | 0.03 | 0.03 | 50 | 1013.6 |
| 20260830143001 | 26 | 257 | 11.3 | 19.3 | 0.00 | 0.03 | 0.03 | 50 | 1013.7 |
| 20260830142901 | 26 | 257 | 11.3 | 19.3 | 0.00 | 0.03 | 0.03 | 51 | 1013.7 |
| 20260830142800 | 26 | 269 | 11.3 | 19.3 | 0.00 | 0.03 | 0.03 | 51 | 1013.7 |
| 20260830142701 | 26 | 323 | 9.7 | 19.3 | 0.00 | 0.03 | 0.03 | 51 | 1013.7 |
| 20260830142601 | 26 | 288 | 9.7 | 19.3 | 0.00 | 0.03 | 0.03 | 51 | 1013.7 |
| 20260830142501 | 26 | 294 | 9.7 | 19.3 | 0.00 | 0.03 | 0.03 | 50 | 1013.7 |
| 20260830142424 | 26 | 239 | 9.7 | 19.3 | 0.00 | 0.03 | 0.03 | 50 | 1013.7 |
| 20260830142420 | 26 | 282 | 8.0 | 19.3 | 0.00 | 0.03 | 0.03 | 51 | 1013.7 |
| 20260830142412 | 26 | 246 | 8.0 | 19.3 | 0.00 | 0.03 | 0.03 | 51 | 1013.7 |
| 20260830142100 | 26 | 277 | 6.4 | 19.3 | 0.00 | 0.03 | 0.03 | 52 | 1013.7 |
| 20260830141959 | 26 | 231 | 6.4 | 19.3 | 0.00 | 0.03 | 0.03 | 52 | 1013.7 |
| 20260830141859 | 26 | 272 | 6.4 | 19.3 | 0.00 | 0.03 | 0.03 | 53 | 1013.7 |
| 20260830141759 | 26 | 309 | 8.0 | 19.3 | 0.00 | 0.03 | 0.03 | 54 | 1013.7 |
| 20260830141703 | 26 | 328 | 8.0 | 19.3 | 0.00 | 0.03 | 0.03 | 53 | 1013.7 |
| 20260830141659 | 26 | 329 | 8.0 | 19.3 | 0.00 | 0.03 | 0.03 | 53 | 1013.7 |
| 20260830141559 | 26 | 285 | 8.0 | 19.3 | 0.00 | 0.03 | 0.03 | 52 | 1013.7 |
| 20260830141457 | 26 | 257 | 9.7 | 19.3 | 0.00 | 0.03 | 0.03 | 53 | 1013.8 |
| 20260830141358 | 26 | 265 | 9.7 | 19.3 | 0.00 | 0.03 | 0.03 | 52 | 1013.8 |
| 20260830141257 | 26 | 291 | 9.7 | 19.3 | 0.00 | 0.03 | 0.03 | 51 | 1013.8 |
| 20260830141201 | 26 | 277 | 11.3 | 19.3 | 0.00 | 0.03 | 0.03 | 51 | 1013.8 |
| 20260830141154 | 26 | 277 | 11.3 | 19.3 | 0.00 | 0.03 | 0.03 | 51 | 1013.8 |
| 20260830141053 | 26 | 284 | 11.3 | 19.3 | 0.00 | 0.03 | 0.03 | 52 | 1013.8 |
| 20260830140947 | 26 | 268 | 11.3 | 17.7 | 0.00 | 0.03 | 0.03 | 51 | 1013.8 |
| 20260830140847 | 26 | 277 | 11.3 | 17.7 | 0.00 | 0.03 | 0.03 | 52 | 1013.8 |
| 20260830140748 | 26 | 254 | 11.3 | 17.7 | 0.00 | 0.03 | 0.03 | 51 | 1013.8 |
| 20260830140701 | 26 | 263 | 9.7 | 17.7 | 0.00 | 0.03 | 0.03 | 51 | 1013.7 |
| 20260830140647 | 26 | 247 | 9.7 | 17.7 | 0.00 | 0.03 | 0.03 | 51 | 1013.7 |
| 20260830140546 | 26 | 284 | 9.7 | 17.7 | 0.00 | 0.03 | 0.03 | 51 | 1013.8 |
| 20260830140441 | 26 | 261 | 9.7 | 17.7 | 0.00 | 0.03 | 0.03 | 51 | 1013.8 |
| 20260830140341 | 26 | 265 | 9.7 | 17.7 | 0.00 | 0.03 | 0.03 | 51 | 1013.8 |
| 20260830140241 | 26 | 255 | 9.7 | 17.7 | 0.00 | 0.03 | 0.03 | 51 | 1013.8 |
| 20260830140200 | 26 | 248 | 8.0 | 17.7 | 0.00 | 0.03 | 0.03 | 51 | 1013.8 |
| 20260830140146 | 26 | 297 | 8.0 | 17.7 | 0.00 | 0.03 | 0.03 | 50 | 1013.9 |
| 20260830140142 | 26 | 257 | 8.0 | 17.7 | 0.00 | 0.03 | 0.03 | 51 | 1013.8 |
| 20260830140138 | 26 | 245 | 6.4 | 14.5 | 0.00 | 0.03 | 0.03 | 51 | 1013.9 |
| 20260830140134 | 26 | 275 | 8.0 | 17.7 | 0.00 | 0.03 | 0.03 | 50 | 1013.8 |
| 20260830140130 | 26 | 252 | 6.4 | 17.7 | 0.00 | 0.03 | 0.03 | 49 | 1013.8 |
| 20260830140126 | 26 | 246 | 6.4 | 14.5 | 0.00 | 0.03 | 0.03 | 50 | 1013.8 |
| 20260830140122 | 26 | 242 | 6.4 | 14.5 | 0.00 | 0.03 | 0.03 | 50 | 1013.8 |
| 20260830135649 | 26 | 245 | 6.4 | 14.5 | 0.00 | 0.03 | 0.03 | 51 | 1013.9 |
| 20260830135645 | 26 | 262 | 6.4 | 14.5 | 0.00 | 0.03 | 0.03 | 51 | 1013.8 |
| 20260830135641 | 26 | 250 | 6.4 | 14.5 | 0.00 | 0.03 | 0.03 | 52 | 1013.9 |
| 20260830135420 | 26 | 250 | 6.4 | 16.1 | 0.00 | 0.03 | 0.03 | 52 | 1013.8 |
| 20260830135416 | 26 | 263 | 6.4 | 17.7 | 0.00 | 0.03 | 0.03 | 53 | 1013.9 |
| 20260830135134 | 26 | 309 | 8.0 | 17.7 | 0.00 | 0.03 | 0.03 | 50 | 1013.9 |
| 20260830135033 | 26 | 309 | 9.7 | 22.5 | 0.00 | 0.03 | 0.03 | 51 | 1013.9 |
| 20260830134933 | 26 | 309 | 9.7 | 22.5 | 0.00 | 0.03 | 0.03 | 51 | 1013.9 |
| 20260830134829 | 26 | 267 | 11.3 | 22.5 | 0.00 | 0.03 | 0.03 | 51 | 1013.8 |
| 20260830134729 | 26 | 266 | 11.3 | 22.5 | 0.00 | 0.03 | 0.03 | 52 | 1013.9 |
| 20260830134705 | 26 | 269 | 12.9 | 22.5 | 0.00 | 0.03 | 0.03 | 50 | 1013.9 |
| 20260830134629 | 26 | 270 | 12.9 | 22.5 | 0.00 | 0.03 | 0.03 | 50 | 1013.9 |
| 20260830134529 | 26 | 274 | 12.9 | 22.5 | 0.00 | 0.03 | 0.03 | 50 | 1013.9 |
| 20260830134429 | 27 | 264 | 12.9 | 22.5 | 0.00 | 0.03 | 0.03 | 50 | 1013.9 |
| 20260830134330 | 27 | 272 | 12.9 | 22.5 | 0.00 | 0.03 | 0.03 | 51 | 1013.9 |
| 20260830134230 | 27 | 255 | 12.9 | 22.5 | 0.00 | 0.03 | 0.03 | 50 | 1013.9 |
| 20260830134202 | 27 | 269 | 12.9 | 22.5 | 0.00 | 0.03 | 0.03 | 50 | 1013.9 |
| 20260830134131 | 27 | 294 | 12.9 | 22.5 | 0.00 | 0.03 | 0.03 | 50 | 1013.9 |
| 20260830134029 | 27 | 270 | 11.3 | 22.5 | 0.00 | 0.03 | 0.03 | 51 | 1013.9 |
| 20260830133929 | 27 | 276 | 11.3 | 22.5 | 0.00 | 0.03 | 0.03 | 49 | 1013.8 |
| 20260830133829 | 27 | 308 | 11.3 | 22.5 | 0.00 | 0.03 | 0.03 | 51 | 1013.8 |
| 20260830133729 | 27 | 335 | 9.7 | 22.5 | 0.00 | 0.03 | 0.03 | 50 | 1013.8 |
| 20260830133701 | 27 | 266 | 9.7 | 22.5 | 0.00 | 0.03 | 0.03 | 50 | 1013.9 |
| 20260830133629 | 27 | 270 | 9.7 | 22.5 | 0.00 | 0.03 | 0.03 | 51 | 1013.9 |
| 20260830133529 | 27 | 275 | 8.0 | 22.5 | 0.00 | 0.03 | 0.03 | 50 | 1013.8 |
| 20260830133429 | 27 | 297 | 9.7 | 22.5 | 0.00 | 0.03 | 0.03 | 51 | 1013.8 |
| 20260830133422 | 27 | 234 | 8.0 | 14.5 | 0.00 | 0.03 | 0.03 | 52 | 1013.9 |
| 20260830133416 | 27 | 294 | 8.0 | 14.5 | 0.00 | 0.03 | 0.03 | 52 | 1013.9 |
| 20260830133412 | 27 | 318 | 8.0 | 14.5 | 0.00 | 0.03 | 0.03 | 52 | 1013.9 |
| 20260830133129 | 27 | 261 | 8.0 | 14.5 | 0.00 | 0.03 | 0.03 | 53 | 1013.9 |
| 20260830133029 | 27 | 314 | 8.0 | 14.5 | 0.00 | 0.03 | 0.03 | 52 | 1013.9 |
| 20260830132929 | 27 | 290 | 8.0 | 14.5 | 0.00 | 0.03 | 0.03 | 52 | 1013.9 |
| 20260830132829 | 27 | 288 | 8.0 | 17.7 | 0.00 | 0.03 | 0.03 | 52 | 1013.9 |
| 20260830132729 | 27 | 308 | 8.0 | 19.3 | 0.00 | 0.03 | 0.03 | 52 | 1013.9 |